[[{"header":{"parameterUnit":"m.s-1","parameterCategory":1,"la1":30.6,"la2":28.766,"lo1":-90.7593,"lo2":-88.6598,"dy":0.0162,"dx":0.0183,"nx":116,"ny":114,"refTime":"2024-06-12T00:00:00:Z","depth":0,"parameterNumber":2,"parameterNumberName":"U-component_of_WINDS"},"data":[0.0,0.0,0.0,0.0,0.0,0.0,0.0,0.0,0.0,0.0,0.0,0.0,0.0,0.0,0.0,0.0,0.0,0.0,0.0,0.0,0.0,0.0,0.0,0.0,0.0,0.0,0.0,0.0,0.0,0.0,0.0,0.0,0.0,0.0,0.0,0.0,0.0,0.0,0.0,0.0,0.0,0.0,0.0,0.0,0.0,0.0,0.0,0.0,0.0,0.0,0.0,0.0,0.0,0.0,0.0,0.0,0.0,0.0,0.0,0.0,0.0,0.0,0.0,0.0,0.0,0.0,0.0,0.0,0.0,0.0,0.0,0.0,0.0,0.0,0.0,0.0,0.0,0.0,0.0,0.0,0.0,0.0,0.0,0.0,0.0,0.0,0.0,0.0,0.0,0.0,0.0,0.0,0.0,0.0,0.0,0.0,0.0,0.0,0.0,0.0,0.0,0.0,0.0,0.0,0.0,0.0,0.0,0.0,0.0,0.0,0.0,0.0,0.0,0.0,0.0,0.0,0.0,0.0,0.0,0.0,0.0,0.0,0.0,0.0,0.0,0.0,0.0,0.0,0.0,0.0,0.0,0.0,0.0,0.0,0.0,0.0,0.0,0.0,0.0,0.0,0.0,0.0,0.0,0.0,0.0,0.0,0.0,0.0,0.0,0.0,0.0,0.0,0.0,0.0,0.0,0.0,0.0,0.0,0.0,0.0,0.0,0.0,0.0,0.0,0.0,0.0,0.0,0.0,0.0,0.0,0.0,0.0,0.0,0.0,0.0,0.0,0.0,0.0,0.0,0.0,0.0,0.0,0.0,0.0,0.0,0.0,0.0,0.0,0.0,0.0,0.0,0.0,0.0,0.0,0.0,0.0,0.0,0.0,0.0,0.0,0.0,0.0,0.0,0.0,0.0,0.0,0.0,0.0,0.0,0.0,0.0,0.0,0.0,0.0,0.0,0.0,0.0,0.0,0.0,0.0,0.0,0.0,0.0,0.0,0.0,0.0,0.0,0.0,0.0,0.0,0.0,0.0,0.0,0.0,0.0,0.0,0.0,0.0,0.0,0.0,0.0,0.0,0.0,0.0,0.0,0.0,0.0,0.0,0.0,0.0,0.0,0.0,0.0,0.0,0.0,0.0,0.0,0.0,0.0,0.0,0.0,0.0,0.0,0.0,0.0,0.0,0.0,0.0,0.0,0.0,0.0,0.0,0.0,0.0,0.0,0.0,0.0,0.0,0.0,0.0,0.0,0.0,0.0,0.0,0.0,0.0,0.0,0.0,0.0,0.0,0.0,0.0,0.0,0.0,0.0,0.0,0.0,0.0,0.0,0.0,0.0,0.0,0.0,0.0,0.0,0.0,0.0,0.0,0.0,0.0,0.0,0.0,0.0,0.0,0.0,0.0,0.0,0.0,0.0,0.0,0.0,0.0,0.0,0.0,0.0,0.0,0.0,0.0,0.0,0.0,0.0,0.0,0.0,0.0,0.0,0.0,0.0,0.0,0.0,0.0,0.0,0.0,0.0,0.0,0.0,0.0,0.0,0.0,0.0,0.0,0.0,0.0,0.0,0.0,0.0,0.0,0.0,0.0,0.0,0.0,0.0,0.0,0.0,0.0,0.0,0.0,0.0,0.0,0.0,0.0,0.0,0.0,0.0,0.0,0.0,0.0,0.0,0.0,0.0,0.0,0.0,0.0,0.0,0.0,0.0,0.0,0.0,0.0,0.0,0.0,0.0,0.0,0.0,0.0,0.0,0.0,0.0,0.0,0.0,0.0,0.0,0.0,0.0,0.0,0.0,0.0,0.0,0.0,0.0,0.0,0.0,0.0,0.0,0.0,0.0,0.0,0.0,0.0,0.0,0.0,0.0,0.0,0.0,0.0,0.0,0.0,0.0,0.0,0.0,0.0,0.0,0.0,0.0,0.0,0.0,0.0,0.0,0.0,0.0,0.0,0.0,0.0,0.0,0.0,0.0,0.0,0.0,0.0,0.0,0.0,0.0,0.0,0.0,0.0,0.0,0.0,0.0,0.0,0.0,0.0,0.0,0.0,0.0,0.0,0.0,0.0,0.0,0.0,0.0,0.0,0.0,0.0,0.0,0.0,0.0,0.0,0.0,0.0,0.0,0.0,0.0,0.0,0.0,0.0,0.0,0.0,0.0,0.0,0.0,0.0,0.0,0.0,0.0,0.0,0.0,0.0,0.0,0.0,0.0,0.0,0.0,0.0,0.0,0.0,0.0,0.0,0.0,0.0,0.0,0.0,0.0,0.0,0.0,0.0,0.0,0.0,0.0,0.0,0.0,0.0,0.0,0.0,0.0,0.0,0.0,0.0,0.0,0.0,0.0,0.0,0.0,0.0,0.0,0.0,0.0,0.0,0.0,0.0,0.0,0.0,0.0,0.0,0.0,0.0,0.0,0.0,0.0,0.0,0.0,0.0,0.0,0.0,0.0,0.0,0.0,0.0,0.0,0.0,0.0,0.0,0.0,0.0,0.0,0.0,0.0,0.0,0.0,0.0,0.0,0.0,0.0,0.0,0.0,0.0,0.0,0.0,0.0,0.0,0.0,0.0,0.0,0.0,0.0,0.0,0.0,0.0,0.0,0.0,0.0,0.0,0.0,0.0,0.0,0.0,0.0,0.0,0.0,0.0,0.0,0.0,0.0,0.0,0.0,0.0,0.0,0.0,0.0,0.0,0.0,0.0,0.0,0.0,0.0,0.0,0.0,0.0,0.0,0.0,0.0,0.0,0.0,0.0,0.0,0.0,0.0,0.0,0.0,0.0,0.0,0.0,0.0,0.0,0.0,0.0,0.0,0.0,0.0,0.0,0.0,0.0,0.0,0.0,0.0,0.0,0.0,0.0,0.0,0.0,0.0,0.0,0.0,0.0,0.0,0.0,0.0,0.0,0.0,0.0,0.0,0.0,0.0,0.0,0.0,0.0,0.0,0.0,0.0,0.0,0.0,0.0,0.0,0.0,0.0,0.0,0.0,0.0,0.0,0.0,0.0,0.0,0.0,0.0,0.0,0.0,0.0,0.0,0.0,0.0,0.0,0.0,0.0,0.0,0.0,0.0,0.0,0.0,0.0,0.0,0.0,0.0,0.0,0.0,0.0,0.0,0.0,0.0,0.0,0.0,0.0,0.0,0.0,0.0,0.0,0.0,0.0,0.0,0.0,0.0,0.0,0.0,0.0,0.0,0.0,0.0,0.0,0.0,0.0,0.0,0.0,0.0,0.0,0.0,0.0,0.0,0.0,0.0,0.0,0.0,0.0,0.0,0.0,0.0,0.0,0.0,0.0,0.0,0.0,0.0,0.0,0.0,0.0,0.0,0.0,0.0,0.0,0.0,0.0,0.0,0.0,0.0,0.0,0.0,0.0,0.0,0.0,0.0,0.0,0.0,0.0,0.0,0.0,0.0,0.0,0.0,0.0,0.0,0.0,0.0,0.0,0.0,0.0,0.0,0.0,0.0,0.0,0.0,0.0,0.0,0.0,0.0,0.0,0.0,0.0,0.0,0.0,0.0,0.0,0.0,0.0,0.0,0.0,0.0,0.0,0.0,0.0,0.0,0.0,0.0,0.0,0.0,0.0,0.0,0.0,0.0,0.0,0.0,0.0,0.0,0.0,0.0,0.0,0.0,0.0,0.0,0.0,0.0,0.0,0.0,0.0,0.0,0.0,0.0,0.0,0.0,0.0,0.0,0.0,0.0,0.0,0.0,0.0,0.0,0.0,0.0,0.0,0.0,0.0,0.0,0.0,0.0,0.0,0.0,0.0,0.0,0.0,0.0,0.0,0.0,0.0,0.0,0.0,0.0,0.0,0.0,0.0,0.0,0.0,0.0,0.0,0.0,0.0,0.0,0.0,0.0,0.0,0.0,0.0,0.0,0.0,0.0,0.0,0.0,0.0,0.0,0.0,0.0,0.0,0.0,0.0,0.0,0.0,0.0,0.0,0.0,0.0,0.0,0.0,0.0,0.0,0.0,0.0,0.0,0.0,0.0,0.0,0.0,0.0,0.0,0.0,0.0,0.0,0.0,0.0,0.0,0.0,0.0,0.0,0.0,0.0,0.0,0.0,0.0,0.0,0.0,0.0,0.0,0.0,0.0,0.0,0.0,0.0,0.0,0.0,0.0,0.0,0.0,0.0,0.0,0.0,0.0,0.0,0.0,0.0,0.0,0.0,0.0,0.0,0.0,0.0,0.0,0.0,0.0,0.0,0.0,0.0,0.0,0.0,0.0,0.0,0.0,0.0,0.0,0.0,0.0,0.0,0.0,0.0,0.0,0.0,0.0,0.0,0.0,0.0,0.0,0.0,0.0,0.0,0.0,0.0,0.0,0.0,0.0,0.0,0.0,0.0,0.0,0.0,0.0,0.0,0.0,0.0,0.0,0.0,0.0,0.0,0.0,0.0,0.0,0.0,0.0,0.0,0.0,0.0,0.0,0.0,0.0,0.0,0.0,0.0,0.0,0.0,0.0,0.0,0.0,0.0,0.0,0.0,0.0,0.0,0.0,0.0,0.0,0.0,0.0,0.0,0.0,0.0,0.0,0.0,0.0,0.0,0.0,0.0,0.0,0.0,0.0,0.0,0.0,0.0,0.0,0.0,0.0,0.0,0.0,0.0,0.0,0.0,0.0,0.0,0.0,0.0,0.0,0.0,0.0,0.0,0.0,0.0,0.0,0.0,0.0,0.0,0.0,0.0,0.0,0.0,0.0,0.0,0.0,0.0,0.0,0.0,0.0,0.0,0.0,0.0,0.0,0.0,0.0,0.0,0.0,0.0,0.0,0.0,0.0,0.0,0.0,0.0,0.0,0.0,0.0,0.0,0.0,0.0,0.0,0.0,0.0,0.0,0.0,0.0,0.0,0.0,0.0,0.0,0.0,0.0,0.0,0.0,0.0,0.0,0.0,0.0,0.0,0.0,0.0,0.0,0.0,0.0,0.0,0.0,0.0,0.0,0.0,0.0,0.0,0.0,0.0,0.0,0.0,0.0,0.0,0.0,0.0,0.0,0.0,0.0,0.0,0.0,0.0,0.0,0.0,0.0,0.0,0.0,0.0,0.0,0.0,0.0,0.0,0.0,0.0,0.0,0.0,0.0,0.0,0.0,0.0,0.0,0.0,0.0,0.0,0.0,0.0,0.0,0.0,0.0,0.0,0.0,0.0,0.0,0.0,0.0,0.0,0.0,0.0,0.0,0.0,0.0,0.0,0.0,0.0,0.0,0.0,0.0,0.0,0.0,0.0,0.0,0.0,0.0,0.0,0.0,0.0,0.0,0.0,0.0,0.0,0.0,0.0,0.0,0.0,0.0,0.0,0.0,0.0,0.0,0.0,0.0,0.0,0.0,0.0,0.0,0.0,0.0,0.0,0.0,0.0,0.0,0.0,0.0,0.0,0.0,0.0,0.0,0.0,0.0,0.0,0.0,0.0,0.0,0.0,0.0,0.0,0.0,0.0,0.0,0.0,0.0,0.0,0.0,0.0,0.0,0.0,0.0,0.0,0.0,0.0,0.0,0.0,0.0,0.0,0.0,0.0,0.0,0.0,0.0,0.0,0.0,0.0,0.0,0.0,0.0,0.0,0.0,0.0,0.0,0.0,0.0,0.0,0.0,0.0,0.0,0.0,0.0,0.0,0.0,0.0,0.0,0.0,0.0,0.0,0.0,0.0,0.0,0.0,0.0,0.0,0.0,0.0,0.0,0.0,0.0,0.0,0.0,0.0,0.0,0.0,0.0,0.0,0.0,0.0,0.0,0.0,0.0,0.0,0.0,0.0,0.0,0.0,0.0,0.0,0.0,0.0,0.0,0.0,0.0,0.0,0.0,0.0,0.0,0.0,0.0,0.0,0.0,0.0,0.0,0.0,0.0,0.0,0.0,0.0,0.0,0.0,0.0,0.0,0.0,0.0,0.0,0.0,0.0,0.0,0.0,0.0,0.0,0.0,0.0,0.0,0.0,0.0,0.0,0.0,0.0,0.0,0.0,0.0,0.0,0.0,0.0,0.0,0.0,0.0,0.0,0.0,0.0,0.0,0.0,0.0,0.0,0.0,0.0,0.0,0.0,0.0,0.0,0.0,0.0,0.0,0.0,0.0,0.0,0.0,0.6962,0.6791,0.0,0.0,0.0,0.0,0.0,0.0,0.0,0.0,0.0,0.0,0.0,0.0,0.0,0.0,0.0,0.0,0.0,0.0,0.0,0.0,0.0,0.0,0.0,1.0497,1.1024,1.0957,1.0957,1.088,1.0707,0.0,0.0,0.0,0.0,0.0,0.9997,0.9663,0.9473,0.9473,0.9373,0.929,0.9235,0.941,0.9404,0.9256,0.0,0.0,0.0,0.0,0.0,0.0,0.0,0.0,0.0,0.0,0.0,0.0,0.0,0.0,0.0,0.0,0.0,0.0,0.0,0.0,0.0,0.0,0.0,0.0,0.0,0.0,0.0,0.0,0.0,0.0,0.0,0.0,0.0,0.0,0.0,0.0,0.0,0.0,0.0,0.0,0.0,0.0,0.0,0.0,0.0,0.0,0.0,0.0,0.0,0.0,0.0,0.0,0.0,0.0,0.0,0.0,0.0,0.0,0.0,0.0,0.0,0.0,0.0,0.0,0.0,0.0,0.0,0.0,0.0,0.0,0.7324,0.7144,0.0,0.0,0.0,0.0,0.0,0.0,0.0,0.0,0.0,0.0,0.0,0.0,0.0,0.0,0.0,0.0,0.0,0.0,0.0,0.0,0.0,0.9524,0.9597,1.0367,1.0852,1.0775,1.0775,1.0717,1.0573,1.0573,0.0,0.0,0.0,1.0215,1.0088,1.001,0.9961,0.9961,1.0016,1.0022,0.9956,0.9956,0.9801,0.9524,0.9817,0.0,0.0,0.0,0.0,0.0,0.0,0.0,0.0,0.0,0.0,0.0,0.0,0.0,0.0,0.0,0.0,0.0,0.0,0.0,0.0,0.0,0.0,0.0,0.0,0.0,0.0,0.0,0.0,0.0,0.0,0.0,0.0,0.0,0.0,0.0,0.0,0.0,0.0,0.0,0.0,0.0,0.0,0.0,0.0,0.0,0.0,0.0,0.0,0.0,0.0,0.0,0.0,0.0,0.0,0.0,0.0,0.0,0.0,0.0,0.0,0.0,0.0,0.0,0.8097,0.8097,0.8097,0.8097,0.8097,0.8079,0.775,0.7598,0.7584,0.7384,0.0,0.0,0.0,0.0,0.0,0.0,0.0,0.0,0.0,0.0,0.0,0.0,0.0,0.0,0.0,0.0,0.0,0.0,0.0,0.963,0.9979,1.0496,1.0765,1.064,1.063,1.0573,1.0438,1.0428,0.0,0.0,1.0127,1.0088,1.001,0.9892,0.9823,0.9823,1.0125,1.0372,1.058,1.058,1.0498,1.0318,0.9917,0.9705,0.965,0.0,0.0,0.0,0.0,0.0,0.0,0.0,0.0,0.0,0.0,0.0,0.0,0.0,0.0,0.0,0.0,0.0,0.0,0.0,0.0,0.0,0.0,0.0,0.0,0.0,0.0,0.0,0.0,0.0,0.0,0.0,0.0,0.0,0.0,0.0,0.0,0.0,0.0,0.0,0.0,0.0,0.7869,0.7837,0.0,0.0,0.0,0.0,0.0,0.0,0.0,0.0,0.0,0.0,0.0,0.0,0.0,0.7831,0.8024,0.8048,0.808,0.8097,0.8097,0.8097,0.8097,0.8097,0.8097,0.8093,0.8041,0.0,0.7998,0.7799,0.0,0.0,0.0,0.0,0.0,0.0,0.0,0.0,0.0,0.0,0.0,0.0,0.0,0.0,0.0,0.0,0.0,0.0,0.0,0.0,0.0,1.0405,1.063,1.0495,1.0496,1.0457,1.0351,1.0273,1.0196,1.0098,1.0209,1.0251,1.023,1.0349,1.0419,1.0419,1.0487,1.0551,1.0588,1.051,1.0363,1.0143,0.9915,0.9929,1.0134,0.9907,0.0,0.0,0.0,0.0,0.0,0.0,0.0,0.0,0.0,0.0,0.0,0.0,0.0,0.0,0.0,0.0,0.0,0.0,0.0,0.0,0.0,0.0,0.0,0.0,0.0,0.0,0.0,0.0,0.0,0.0,0.0,0.0,0.0,0.0,0.0,0.0,0.0,0.0,0.0,0.8021,0.8133,0.8145,0.7741,0.7527,0.0,0.0,0.0,0.0,0.0,0.0,0.0,0.0,0.0,0.7974,0.8077,0.8225,0.8429,0.8548,0.8666,0.8779,0.8779,0.8779,0.8774,0.8661,0.8614,0.8604,0.8481,0.8429,0.8419,0.8097,0.7965,0.7955,0.0,0.0,0.0,0.0,0.7845,0.7845,0.0,0.0,0.0,0.0,0.0,0.0,0.0,0.0,0.0,0.0,0.0,0.0,1.0024,1.0343,1.0495,1.038,1.037,1.0351,1.0303,1.0273,1.0251,1.0222,1.0446,1.0555,1.0524,1.0766,1.0945,1.1055,1.0911,1.084,1.08,1.0673,1.0463,1.0206,1.0171,1.019,1.0222,0.9923,0.9781,0.0,0.0,0.0,0.0,0.0,0.0,0.0,0.0,0.0,0.0,0.0,0.0,0.0,0.0,0.0,0.0,0.0,0.0,0.0,0.0,0.0,0.0,0.0,0.0,0.0,0.0,0.0,0.0,0.0,0.0,0.0,0.0,0.0,0.0,0.0,0.0,0.0,0.0,0.8403,0.8504,0.8565,0.8169,0.7961,0.0,0.0,0.0,0.0,0.0,0.0,0.8254,0.8311,0.8344,0.8415,0.8552,0.8708,0.8859,0.9,0.9156,0.9302,0.9302,0.9302,0.9297,0.9146,0.908,0.9071,0.8911,0.8859,0.8822,0.8354,0.8178,0.8173,0.8121,0.8097,0.8097,0.8097,0.8097,0.8097,0.0,0.0,0.0,0.0,0.0,0.0,0.0,0.0,0.0,0.0,0.0,1.0014,1.0339,1.0399,1.038,1.0312,1.0312,1.0303,0.0,1.0533,1.0642,1.0579,1.0834,1.0938,1.0884,1.0892,1.1092,1.1464,1.1344,1.1405,1.1641,1.1504,1.1304,1.1028,1.0902,1.0372,0.9544,0.9536,0.9447,0.9312,0.0,0.0,0.0,0.0,0.0,0.0,0.0,0.0,0.0,0.0,0.0,0.0,0.0,0.0,0.0,0.0,0.0,0.0,0.0,0.0,0.0,0.0,0.0,0.0,0.0,0.0,0.0,0.0,0.0,0.0,0.0,0.0,0.0,0.0,0.0,0.0,0.0,0.0,0.0,0.9059,0.8817,0.0,0.0,0.0,0.0,0.8083,0.8264,0.8467,0.8661,0.8845,0.9043,0.9231,0.925,0.926,0.9269,0.9283,0.9293,0.9302,0.9302,0.9302,0.9302,0.9293,0.9288,0.9288,0.9274,0.9269,0.9227,0.8637,0.8387,0.8363,0.8178,0.8097,0.8097,0.8097,0.8097,0.8097,0.0,0.0,0.0,0.0,0.0,0.8661,0.8694,0.9135,0.9566,0.9797,1.0022,1.0203,1.0312,1.0341,1.0322,1.0303,1.0303,1.041,1.0674,1.0645,1.0731,1.0985,1.1198,1.1435,1.1672,1.1669,1.1742,1.1889,1.167,1.1607,1.1703,1.1469,1.1226,1.0972,1.0833,1.0378,0.9689,0.9649,0.9556,0.9381,0.8874,0.8647,0.0,0.0,0.0,0.0,0.0,0.0,0.0,0.0,0.0,0.0,0.0,0.0,0.0,0.0,0.0,0.0,0.0,0.0,0.0,0.0,0.0,0.0,0.0,0.0,0.0,0.0,0.0,0.0,0.0,0.0,0.0,0.0,0.0,0.0,0.0,0.0,0.0,0.9547,0.9163,0.0,0.8887,0.876,0.8678,0.8675,0.8859,0.9005,0.9076,0.9156,0.9227,0.9302,0.9302,0.9368,0.9489,0.9489,0.9576,0.975,0.975,0.975,0.9745,0.9571,0.9489,0.9484,0.9363,0.9302,0.9288,0.9066,0.8977,0.8953,0.875,0.8689,0.867,0.8533,0.8481,0.8481,0.0,0.0,0.0,0.0,0.8699,0.896,0.9148,0.9581,0.9933,1.0001,1.0174,1.0303,1.0303,1.0303,1.0303,1.0303,1.042,1.0625,1.0878,1.1011,1.1168,1.1389,1.1603,1.1834,1.2092,1.2101,1.2101,1.2101,1.184,1.1703,1.1681,1.1427,1.1188,1.096,1.0833,1.0462,0.9919,0.9786,0.9582,0.9285,0.8725,0.8441,0.8331,0.0,0.0,0.0,0.0,0.0,0.0,0.0,0.0,0.0,0.0,0.0,0.0,0.0,0.0,0.0,0.0,0.0,0.0,0.0,0.0,0.0,0.0,0.0,0.0,0.0,0.0,0.0,0.0,0.0,0.0,0.0,0.0,0.0,0.0,0.9973,1.0117,1.0033,0.9763,0.9532,0.9439,0.9386,0.9316,0.9234,0.942,0.9542,0.953,0.9606,0.9677,0.9743,0.9748,0.9814,0.9934,0.9873,0.9927,1.0104,1.0028,0.9994,0.999,0.9809,0.9726,0.9717,0.9597,0.9535,0.9535,0.9535,0.9535,0.9507,0.9213,0.9104,0.9085,0.8944,0.8911,0.8911,0.0,0.0,0.0,0.882,0.8917,0.9206,0.9979,1.0003,1.0034,1.0359,1.0341,1.0303,1.0303,1.0303,1.0312,1.0322,1.0674,1.0908,1.0937,1.1603,1.1948,1.183,1.1999,1.2113,1.2113,1.2101,1.2101,1.2101,1.184,1.1715,1.1703,1.1431,1.123,1.1099,1.096,1.0641,1.0185,0.9925,0.9504,0.8994,0.8649,0.8351,0.8086,0.0,0.0,0.0,0.0,0.0,0.0,0.0,0.0,0.0,0.0,0.0,0.0,0.0,0.0,0.0,0.0,0.0,0.0,0.0,0.0,0.0,0.0,0.0,0.0,0.0,0.0,0.0,0.0,0.0,0.0,0.0,0.0,0.0,1.0352,1.0616,1.0736,1.0554,1.0628,1.0603,1.0344,1.0152,0.9953,0.9759,0.993,1.0039,1.0047,1.0213,1.0417,1.0611,1.0598,1.0598,1.0598,1.0404,1.0304,1.0304,1.0113,1.0009,1.0026,1.0026,1.0021,1.0016,1.0016,1.0016,1.0016,1.0016,1.0016,0.9973,0.9493,0.9312,0.9312,0.9307,0.9322,0.9322,0.0,0.0,0.8798,0.889,0.9418,0.9903,1.0072,1.0358,1.0546,1.0553,1.0448,1.037,1.037,1.0322,1.042,1.0713,1.084,1.1171,1.1804,1.1941,1.2094,1.2303,1.2267,1.2258,1.2258,1.215,1.2101,1.2101,1.1927,1.1852,1.184,1.1569,1.1368,1.123,1.0998,1.0718,1.0398,1.0185,0.9842,0.9393,0.8919,0.8619,0.8436,0.0,0.0,0.0,0.0,0.0,0.0,0.0,0.0,0.0,0.0,0.0,0.0,0.0,0.0,0.0,0.0,0.0,0.0,0.0,0.0,0.0,0.0,0.0,0.0,0.0,0.0,0.0,0.0,0.0,0.0,0.0,1.0846,1.096,1.0888,1.1008,1.1144,1.1286,1.1078,1.0891,1.0807,1.0758,1.069,1.0653,1.0869,1.102,1.1013,1.0868,1.084,1.0893,1.0709,1.0598,1.0598,1.0541,1.0513,1.0513,1.0456,1.0437,1.045,1.045,1.0472,1.0511,1.0511,1.0511,1.0511,1.0511,1.0511,1.0443,0.9785,0.9642,0.979,0.9646,0.9679,0.9806,0.0,0.8824,0.9119,0.9469,0.9901,1.0244,1.0413,1.064,1.0775,1.0688,1.0573,1.0476,1.0476,1.0626,1.0785,1.0971,1.1325,1.1725,1.2174,1.2252,1.238,1.2581,1.2468,1.2382,1.2382,1.2308,1.2237,1.2175,1.2051,1.1964,1.1902,1.1678,1.154,1.1465,1.1301,1.1124,1.0909,1.0723,1.0421,1.0022,0.9629,0.9159,0.8666,0.8448,0.8194,0.7958,0.7875,0.7693,0.749,0.749,0.0,0.0,0.0,0.0,0.0,0.0,0.0,0.0,0.0,0.0,0.0,0.0,0.0,0.0,0.0,0.0,0.0,0.0,0.0,0.0,0.0,0.0,0.0,0.0,1.1285,1.1466,1.16,1.1639,1.17,1.1761,1.1751,1.1709,1.1594,1.1592,1.1543,1.1478,1.1494,1.1538,1.1525,1.139,1.1336,1.1421,1.1261,1.119,1.119,1.1102,1.1058,1.1058,1.0988,1.095,1.094,1.094,1.096,1.0986,1.0872,1.0831,1.0821,1.0725,1.0706,1.0652,0.0,0.0,0.0,0.0,1.0199,1.0288,0.0,0.9152,0.9435,1.0269,1.0349,1.0444,1.0867,1.0862,1.0833,1.0874,1.0779,1.0712,1.0762,1.1126,1.1347,1.1273,1.1979,1.2389,0.0,0.0,1.2747,1.2747,1.2603,1.2517,1.2517,1.2505,1.2443,1.2311,1.22,1.2076,1.1964,1.184,1.1765,1.1765,1.1744,1.1669,1.154,1.1427,1.1137,1.0769,1.0557,0.9834,0.8883,0.8738,0.8514,0.8261,0.8248,0.8128,0.7955,0.7955,0.0,0.0,0.0,0.0,0.0,0.0,0.0,0.0,0.0,0.0,0.0,0.0,0.0,0.0,0.0,0.0,0.0,0.0,0.0,0.0,0.0,0.0,0.0,0.0,1.1635,1.2051,1.234,1.2382,1.232,1.2153,1.2553,1.2749,1.2499,1.249,1.243,1.2247,1.2021,1.1895,1.1849,1.184,0.0,0.0,0.0,1.2005,1.2005,1.1812,1.1721,1.174,1.1555,1.1466,1.1469,1.1469,1.1477,1.1464,1.1219,1.1137,1.1139,1.0926,1.0861,1.0841,1.0749,1.0749,1.0771,1.0798,1.0836,1.0841,0.0,0.9783,1.033,1.0462,1.073,1.0958,1.1043,1.0958,1.1014,1.1395,1.1337,1.1389,1.1766,1.1846,1.1974,1.2282,1.2452,1.2692,0.0,0.0,1.3014,1.3014,1.2786,1.2652,1.2652,1.2566,1.2492,1.2468,1.2443,1.2406,1.2382,1.2258,1.2175,1.2175,1.2076,1.1952,1.1828,1.1781,1.1606,1.1326,1.1074,1.0357,0.9432,0.9289,0.9015,0.8672,0.8553,0.8434,0.8308,0.8308,0.8228,0.8141,0.8141,0.0,0.0,0.0,0.0,0.0,0.0,0.0,0.0,0.0,0.0,0.0,0.0,0.0,0.0,0.0,0.0,0.0,0.0,0.0,0.0,1.199,1.2147,1.2388,1.2876,1.2948,1.2921,1.2899,1.3025,1.3102,1.3057,1.3055,1.303,1.2989,1.3081,1.3054,1.2834,1.267,1.2522,1.2322,1.2102,1.2005,1.2005,1.1964,1.1944,1.1944,1.1898,0.0,1.1869,1.1869,1.1905,1.1951,1.1909,1.1978,1.2116,1.1854,1.1756,1.1693,1.1154,1.1035,1.1219,1.1429,1.1607,1.1758,1.0111,1.0348,1.0662,1.0911,1.1064,1.1232,1.1463,1.1397,1.1485,1.1975,1.1923,1.1933,1.217,1.2352,1.2522,1.2691,1.2812,0.0,0.0,1.3168,1.3152,1.3152,1.3021,1.2949,1.2949,1.3051,1.3068,1.2996,1.318,1.3221,1.3147,1.3083,1.3044,1.3044,1.2979,1.2915,1.285,1.285,1.2562,1.2089,1.194,1.1289,1.0293,0.9718,0.9211,0.8778,0.8646,0.8507,0.8395,0.8395,0.8361,0.8295,0.8295,0.8322,0.8378,0.0,0.0,0.0,0.0,0.0,0.0,0.0,0.0,0.0,0.0,0.0,0.0,0.0,0.0,1.1189,1.1448,0.0,1.2033,1.2424,1.2605,1.2834,1.3244,1.3412,1.3443,1.3316,1.3459,1.3551,1.3551,1.3555,1.3541,1.3541,1.3513,1.3443,1.3322,1.3201,1.308,1.2953,1.2807,1.2759,1.2759,1.2759,1.2759,1.2759,1.2759,1.2748,1.2754,1.2754,1.2784,1.2799,1.2694,1.2708,1.2784,1.2513,1.2315,1.216,1.1833,1.169,1.1661,1.1801,1.1914,1.2,1.1065,1.0895,1.0909,1.1347,1.1392,1.1497,1.1879,1.1907,1.2057,1.2594,1.2561,1.2528,1.2622,1.2922,1.3073,0.0,0.0,0.0,0.0,1.3433,1.345,1.3553,1.3528,1.3504,1.3479,1.3738,1.3826,1.371,1.3975,1.407,1.3953,1.3953,1.3953,1.3953,1.3936,1.3896,1.3882,1.3855,1.3482,1.29,1.2844,1.2252,1.131,1.0384,0.9573,0.8929,0.8778,0.8619,0.848,0.848,0.8461,0.8447,0.8505,0.8644,0.8814,0.8943,0.917,0.0,0.0,0.0,0.0,0.0,0.0,0.0,0.0,1.0833,1.1126,1.1358,1.1607,1.1869,1.2077,1.2381,1.2662,1.2875,1.3143,1.3424,1.3709,1.3929,1.3985,1.3826,1.3898,1.3978,1.3978,1.3969,1.3979,1.3979,1.3781,1.3636,1.3588,1.3588,1.3539,1.3491,1.3491,1.3491,1.3491,1.3491,1.3491,1.3491,1.3491,1.3491,1.3491,1.3491,1.3491,1.348,1.3388,1.332,1.3251,1.3072,1.2864,1.2616,1.2616,1.2473,1.2261,1.2142,1.2102,1.2145,0.0,1.1492,1.142,1.1485,1.1776,1.2018,1.2072,1.2326,1.2669,1.3147,1.32,1.3348,1.3761,1.3845,1.383,1.3701,0.0,0.0,1.4334,1.4244,1.4357,1.4782,1.4676,1.4572,1.4444,1.4481,1.4499,1.4485,1.4509,1.4529,1.4503,1.4503,1.4503,1.4503,1.439,1.4267,1.4147,1.404,1.3853,1.3645,1.3358,1.295,1.2451,1.1801,1.0703,0.9471,0.9217,0.8969,0.8752,0.8752,0.8679,0.8625,0.8865,0.8866,0.8911,0.9443,0.9631,0.9705,0.9879,1.0154,1.0431,1.0725,1.1212,1.1624,0.0,1.2024,1.2398,1.243,1.2658,1.2834,1.2866,1.3296,1.3635,1.3667,1.3951,1.4259,1.4532,1.4602,1.468,1.4891,1.453,1.4256,1.4256,1.4256,1.425,1.425,1.4226,1.4112,1.3883,1.3859,1.3738,1.3515,1.3491,1.3491,1.3491,1.3491,1.3491,1.3491,1.3491,1.3491,1.3491,1.3491,1.3491,1.3515,1.3728,1.3678,1.3473,1.3683,1.3614,1.3381,1.3381,1.3363,1.3256,1.2604,1.247,1.2619,0.0,1.1626,1.1591,1.1862,1.204,1.2249,1.2521,1.2882,1.329,1.3752,1.3758,1.3774,1.3975,1.4242,1.4379,1.433,1.4572,0.0,1.5006,1.4965,1.5024,1.5224,1.5172,1.512,1.5068,1.5262,1.5356,1.5356,1.5512,1.5594,1.5594,1.5511,1.5469,1.5469,1.5337,1.5235,1.5193,1.5127,1.4825,1.437,1.4232,1.3792,1.3168,1.2643,1.1916,1.1061,1.0191,0.9695,0.0,0.0,0.9354,0.9262,0.9374,0.9483,0.9602,0.9851,1.0063,1.026,1.0374,1.068,1.1037,1.1353,1.173,1.2075,1.2235,1.2566,1.2833,1.2833,1.305,1.3271,1.3436,1.3652,1.3913,1.426,1.4435,1.4637,1.4907,1.4922,1.4967,1.5094,1.4909,1.4688,1.4544,1.4394,1.437,1.4514,1.4544,1.4544,1.4604,1.4604,1.4556,1.443,1.443,1.4358,1.4214,1.4214,1.4112,1.3968,1.3968,1.3968,1.3962,1.4142,1.4286,1.4436,1.4556,1.4536,1.4449,1.4544,1.4453,1.4197,1.4197,1.4104,1.3871,1.3091,1.2859,1.29,0.0,1.1708,1.1693,1.2173,1.233,1.2561,1.3052,1.3477,1.3866,1.4202,1.4174,1.4157,1.4296,1.4714,1.4992,1.4957,1.5265,1.5521,1.5675,1.5686,1.5726,1.5842,1.5842,1.5815,1.5786,1.6021,1.6212,1.6328,1.6534,1.6703,1.6828,1.6715,1.6686,1.6671,1.6531,1.6382,1.6226,1.6168,1.5747,1.5098,1.507,1.4678,1.4052,1.3575,1.3141,1.2598,1.1175,1.0437,0.0,0.0,0.9911,0.9765,0.9867,0.9991,1.0118,1.0214,1.0463,1.0762,1.0962,1.1307,1.1659,1.1981,1.2324,1.2635,1.2841,1.3106,1.3306,1.3306,1.3511,1.3763,1.3969,1.4137,1.4376,1.4811,1.4964,1.507,1.5266,1.5291,1.5291,1.5291,1.5244,1.5124,1.4951,1.4688,1.4592,1.479,1.4814,1.4909,1.5083,1.5107,1.5107,1.5107,1.5107,1.5011,1.4814,1.4814,1.4718,1.4514,1.4514,1.4514,1.4544,1.4712,1.4916,1.5107,1.5107,1.5107,1.5107,1.5107,1.4979,1.4812,1.4812,1.4684,1.4434,1.3773,1.3491,1.3399,0.0,0.0,1.1846,1.2311,1.2655,1.3052,1.3587,1.4068,1.4385,1.4385,1.4396,1.4559,1.5027,1.5495,1.5701,1.5575,1.5597,1.5803,1.6334,1.638,1.6534,1.6932,1.6954,1.6894,1.6751,1.6772,1.7009,1.7449,1.7456,1.769,1.8132,1.8132,1.8132,1.8132,1.8001,1.7612,1.7049,1.6867,1.6419,1.585,1.5735,1.5531,1.5284,1.4816,1.4364,1.3714,1.1985,0.0,0.0,1.0451,1.0164,0.9944,1.0283,1.025,0.0,1.0492,1.0787,1.1126,1.1701,1.2064,1.2358,1.2697,1.318,1.3559,1.3566,1.384,1.4075,1.4075,1.4281,1.4466,1.4472,1.4961,1.5354,1.5368,1.5608,1.5771,1.5784,1.5784,1.5784,1.5784,1.5618,1.5469,1.5469,1.522,1.5083,1.5083,1.5083,1.5083,1.5107,1.5107,1.5107,1.5107,1.5107,1.5107,1.5083,1.5083,1.5083,1.5083,1.5083,1.5083,1.5083,1.5083,1.5083,1.5107,1.5107,1.5107,1.5107,1.5107,1.51,1.5094,1.5094,1.5088,1.5043,1.4773,1.4493,1.4263,0.0,0.0,0.0,1.2788,1.3181,1.3598,1.4089,1.4309,1.4396,1.4396,1.4752,0.0,0.0,0.0,0.0,0.0,1.6804,1.7031,1.7118,1.7129,1.7151,1.72,1.7273,1.7315,1.727,1.7701,1.7943,1.7966,1.8327,1.8508,1.8536,1.844,1.8394,1.839,1.8201,1.8014,1.782,1.7664,1.7439,1.7143,1.6961,1.6799,1.6592,1.5987,1.5555,1.5093,0.0,0.0,0.0,1.1428,1.1109,1.0826,1.0855,1.0935,1.1093,1.1429,1.1757,1.2082,1.2454,1.2668,1.2902,1.3463,1.3588,1.3653,1.3874,1.4015,1.4109,1.4109,1.4315,1.4583,1.4798,1.513,1.5458,1.5628,1.5741,1.5808,1.5808,1.5808,1.5808,1.5808,1.573,1.5706,1.5706,1.5339,1.5172,1.5356,1.5356,1.5428,1.5547,1.5547,1.5547,1.5547,1.5547,1.5499,1.5356,1.5356,1.5291,1.5107,1.5107,1.5196,1.5356,1.5356,1.5428,1.5547,1.5547,1.5547,1.5547,1.5547,1.5547,1.5547,1.5547,1.5547,1.5564,1.5459,1.5384,1.5199,0.0,0.0,0.0,0.0,0.0,0.0,0.0,0.0,0.0,0.0,0.0,0.0,0.0,0.0,0.0,0.0,0.0,1.767,1.7576,0.0,1.7534,1.7459,1.7532,1.7576,1.7576,1.8179,1.8515,1.8562,1.9021,1.9267,1.9304,1.9144,1.9066,1.9077,1.8946,1.8761,1.8554,1.8471,1.8206,1.7858,1.7719,1.758,1.7394,1.6915,1.659,0.0,0.0,0.0,1.3403,1.2468,1.1895,1.1559,1.1455,1.1544,1.1745,1.2087,1.2403,1.2712,1.3002,1.3274,1.3559,1.3999,1.4042,1.4048,1.4266,1.4307,1.4307,1.4307,1.4487,1.4747,1.5044,1.5272,1.5491,1.5761,1.5808,1.5808,1.5808,1.5808,1.5808,1.5808,1.5808,1.5808,1.5808,1.5529,1.541,1.5588,1.5611,1.5666,1.5778,1.5808,1.5808,1.5808,1.5808,1.573,1.5611,1.5611,1.5523,1.5339,1.5339,1.5434,1.5611,1.5611,1.5683,1.5808,1.5808,1.5808,1.5808,1.5808,1.5808,1.5808,1.5808,1.5808,1.5808,1.5808,1.5808,1.5701,0.0,0.0,0.0,0.0,0.0,0.0,0.0,0.0,0.0,0.0,0.0,0.0,0.0,0.0,0.0,0.0,0.0,0.0,1.7711,0.0,0.0,1.7698,1.7711,1.7711,1.7711,1.825,1.8744,1.9205,1.956,1.9955,2.041,2.0216,2.0134,2.0118,2.0118,1.9781,1.9252,1.9236,1.88,1.8112,1.8081,1.7957,1.7755,1.7616,0.0,0.0,0.0,0.0,1.5535,1.3539,1.2553,1.2157,1.2114,1.209,1.2157,1.2491,1.2783,1.3049,1.3384,1.3897,1.4326,1.4347,1.4524,1.4692,1.4692,1.4692,1.4692,1.4692,1.4808,1.4988,1.5253,1.5372,1.5531,1.5758,1.5818,1.5849,1.5849,1.5849,1.5849,1.5849,1.5849,1.5849,1.5849,1.5849,1.5849,1.5849,1.5825,1.5808,1.5808,1.5808,1.5808,1.5808,1.5808,1.5808,1.5808,1.5808,1.5808,1.5808,1.5808,1.5808,1.5808,1.5808,1.5808,1.5808,1.5808,1.5808,1.5808,1.5808,1.5808,1.5808,1.5832,1.5825,1.5825,1.5832,1.5849,1.5849,0.0,0.0,0.0,0.0,0.0,0.0,0.0,0.0,0.0,0.0,0.0,0.0,0.0,0.0,0.0,0.0,0.0,0.0,0.0,0.0,0.0,0.0,0.0,1.7854,1.7854,1.8478,1.8979,0.0,1.9836,2.0266,2.0621,2.0572,2.0475,2.0329,2.0329,2.0155,1.9857,1.9749,1.9603,1.9383,0.0,1.8929,1.8849,0.0,0.0,0.0,0.0,0.0,1.6065,1.4353,1.346,1.3106,1.333,1.3381,1.3406,1.3737,1.3967,1.4147,1.4446,1.4515,1.4586,1.4821,1.481,1.4692,1.4692,1.4692,1.4692,1.4692,1.4922,1.5144,1.5199,1.5606,1.5941,1.6017,1.6224,1.64,1.64,1.64,1.64,1.64,1.64,1.64,1.64,1.64,1.64,1.64,1.6021,1.5808,1.5808,1.5808,1.5808,1.5808,1.5808,1.5808,1.5808,1.5808,1.5808,1.5808,1.5808,1.5808,1.5808,1.5808,1.5808,1.5808,1.5808,1.5808,1.5808,1.5808,1.5808,1.5832,1.6028,1.6099,1.6123,1.6329,1.64,1.64,0.0,0.0,0.0,0.0,0.0,0.0,0.0,0.0,0.0,0.0,0.0,0.0,0.0,0.0,0.0,0.0,0.0,0.0,0.0,0.0,0.0,0.0,1.8168,1.8209,1.8209,1.8786,1.9252,0.0,0.0,0.0,2.0786,2.0733,2.0509,2.0185,2.0122,1.9905,1.9575,1.9656,0.0,0.0,0.0,0.0,0.0,0.0,0.0,0.0,0.0,0.0,1.6712,1.5832,1.5008,1.4327,1.4337,1.4418,1.4527,1.4611,1.4751,1.4892,1.503,1.5002,1.4991,1.5171,1.5124,1.502,1.502,1.502,1.502,1.502,1.5092,1.5198,1.5311,1.5661,1.5966,1.6076,1.6385,1.6612,1.6612,1.6612,1.6612,1.6612,1.6612,1.6612,1.6612,1.6612,1.6612,1.6612,1.6322,1.6163,1.6163,1.6163,1.6163,1.6163,1.6163,1.6163,1.6163,1.6163,1.6163,1.6163,1.6163,1.6163,1.6163,1.6163,1.6163,1.6163,1.6163,1.6163,1.6163,1.6163,1.6163,1.6157,1.6312,1.6383,1.6376,1.6541,1.6612,1.6612,0.0,0.0,0.0,0.0,0.0,0.0,0.0,0.0,0.0,0.0,0.0,0.0,0.0,0.0,0.0,0.0,0.0,0.0,0.0,0.0,0.0,0.0,1.86,1.86,1.86,1.8993,1.9415,1.9811,0.0,0.0,0.0,0.0,0.0,0.0,0.0,0.0,0.0,0.0,0.0,0.0,0.0,0.0,0.0,0.0,0.0,0.0,0.0,0.0,1.7513,1.759,1.678,1.5663,1.5244,1.5314,1.5505,1.5308,1.5298,1.5355,1.5355,1.5375,1.541,1.541,1.541,1.541,1.541,1.541,1.541,1.541,1.5264,1.521,1.544,1.5675,1.5912,1.6151,1.6543,1.68,1.6746,1.6789,1.6786,1.6763,1.6798,1.6826,1.6826,1.6826,1.6826,1.6826,1.6826,1.6767,1.6612,1.6647,1.6668,1.6668,1.6633,1.6612,1.6612,1.6612,1.6612,1.6612,1.6612,1.6612,1.6612,1.6612,1.6612,1.6612,1.6612,1.6612,1.6612,1.6612,1.6612,1.6612,1.6636,1.6659,1.6659,1.6683,1.6699,1.6699,0.0,0.0,0.0,0.0,0.0,0.0,0.0,0.0,0.0,0.0,1.7179,0.0,0.0,0.0,0.0,0.0,0.0,0.0,0.0,0.0,0.0,0.0,1.86,1.86,1.86,1.8681,1.8959,1.9392,0.0,0.0,0.0,0.0,0.0,0.0,0.0,0.0,0.0,0.0,0.0,0.0,0.0,0.0,0.0,0.0,0.0,0.0,0.0,0.0,0.0,0.0,1.7908,1.683,1.6441,1.6315,1.6272,1.6071,1.5842,1.5631,1.5631,1.5517,1.541,1.541,1.541,1.541,1.541,1.541,1.541,1.541,1.5368,1.5362,1.5413,1.608,1.6625,1.6677,1.7325,1.7761,1.7535,1.7748,1.7838,1.7615,1.7848,1.8015,1.8015,1.8015,1.8015,1.8015,1.8015,1.7589,1.6657,1.685,1.7015,1.7015,1.6745,1.6612,1.6612,1.6612,1.6612,1.6612,1.6612,1.6612,1.6612,1.6612,1.6612,1.6612,1.6612,1.6612,1.6612,1.6612,1.6612,1.6629,1.6831,1.6932,1.6949,1.7122,1.7185,1.7185,0.0,0.0,0.0,0.0,0.0,0.0,0.0,0.0,0.0,1.6536,1.7494,1.8166,0.0,0.0,0.0,0.0,0.0,0.0,0.0,0.0,0.0,0.0,0.0,1.8814,1.8814,1.8814,1.9112,1.9718,0.0,0.0,0.0,2.0086,1.9736,0.0,0.0,0.0,0.0,0.0,0.0,0.0,0.0,0.0,0.0,0.0,0.0,0.0,0.0,0.0,0.0,0.0,1.8734,1.8471,1.7999,1.7758,1.7593,1.7371,1.696,1.6558,1.6456,1.6175,1.5893,1.5797,1.5673,1.5561,1.5561,1.5486,1.5423,1.552,1.5561,1.5603,1.5735,1.6266,1.6758,1.6925,1.7454,1.7858,1.7901,1.8195,1.8311,1.8047,1.8296,1.8447,1.8299,1.8299,1.8299,1.8299,1.8299,1.8069,1.7514,1.7644,1.773,1.773,1.7579,1.7397,1.7232,1.7225,1.7146,1.6958,1.6958,1.6958,1.6958,1.6958,1.6958,1.6958,1.6958,1.6958,1.6958,1.6958,1.6958,1.6981,1.7106,1.7153,1.7176,1.7263,1.7302,1.7302,0.0,0.0,0.0,0.0,0.0,0.0,0.0,1.5668,1.6498,1.6659,1.7688,1.8408,1.8449,1.8545,1.86,0.0,0.0,0.0,0.0,0.0,0.0,0.0,0.0,1.9,1.9,0.0,0.0,1.9964,2.0024,0.0,0.0,0.0,0.0,0.0,1.854,1.8157,0.0,0.0,0.0,0.0,0.0,1.9623,0.0,0.0,0.0,0.0,0.0,0.0,1.9085,1.9038,1.9387,1.9811,1.9494,1.9166,1.8836,1.8545,1.7983,1.7412,1.718,1.6763,1.6353,1.6149,1.5935,1.5782,1.5782,1.5665,1.561,1.5816,1.5858,1.5927,1.619,1.6551,1.6912,1.7193,1.7621,1.797,1.8157,1.8556,1.8729,1.8423,1.8712,1.8828,1.8628,1.8561,1.8511,1.8511,1.8511,1.8482,1.8408,1.8343,1.8335,1.8401,1.8343,1.8182,1.7918,1.7852,1.766,1.7412,1.7339,1.7302,1.7302,1.7302,1.7302,1.7302,1.7302,1.7302,1.7302,1.7302,1.7302,1.7302,1.7302,1.7302,1.7302,1.7302,1.7302,1.7302,0.0,0.0,0.0,0.0,0.0,0.0,0.0,1.5811,1.6586,1.6611,1.765,1.8449,1.856,1.8587,1.86,0.0,0.0,0.0,0.0,0.0,0.0,0.0,0.0,0.0,0.0,0.0,0.0,1.9562,1.9802,0.0,0.0,0.0,0.0,0.0,0.0,1.7961,1.754,1.7863,0.0,0.0,0.0,0.0,0.0,0.0,0.0,0.0,0.0,1.9108,1.917,1.9578,1.987,2.0136,2.051,2.0129,1.945,1.9053,1.8333,1.7598,1.7192,1.6763,1.6353,1.6149,1.6087,1.6066,1.6066,1.6046,1.6087,1.6299,1.6332,1.6394,1.6607,1.7128,1.7565,1.7715,1.8382,1.8768,1.8496,1.9161,1.952,1.908,1.9361,1.9608,1.9564,1.9339,1.921,1.921,1.921,1.9085,1.876,1.8467,1.8438,1.8738,1.846,1.8284,1.8255,1.7938,1.7777,1.7741,1.7448,1.7302,1.7302,1.7302,1.7302,1.7302,1.7302,1.7302,1.7302,1.7302,1.7302,1.7302,1.7302,1.7302,1.7302,1.7302,1.7302,1.7302,0.0,0.0,0.0,0.0,0.0,0.0,0.0,1.5752,1.6537,1.6699,1.7704,1.8449,1.8587,1.86,1.8667,0.0,0.0,0.0,0.0,0.0,0.0,0.0,0.0,0.0,0.0,0.0,0.0,2.0164,2.019,0.0,0.0,0.0,0.0,0.0,0.0,1.8511,1.8346,0.0,0.0,0.0,0.0,0.0,0.0,0.0,0.0,0.0,0.0,0.0,1.9129,1.9316,1.961,1.9987,2.0411,2.0457,2.0291,2.0188,1.9608,1.8944,1.8536,1.8115,1.7691,1.7322,1.7066,1.6882,1.6882,1.6656,1.6553,1.6943,1.6996,1.7098,1.7424,1.7581,1.7759,1.8108,1.8458,1.8806,1.9115,1.9985,2.0443,2.0046,2.0387,2.0532,2.0205,1.9939,1.9783,1.9783,1.992,1.9886,1.9588,1.9154,1.8975,1.91,1.9129,1.9042,1.8842,1.8865,1.8701,1.8338,1.8011,1.7761,1.7594,1.7397,1.7302,1.7302,1.7302,1.7302,1.7302,1.7302,1.7302,1.7302,1.7302,1.7302,1.7302,1.7302,1.7302,1.7302,0.0,0.0,0.0,0.0,0.0,1.4627,1.473,1.5655,1.6412,1.6599,1.7573,1.8302,1.8439,1.8518,1.8639,1.8854,0.0,0.0,0.0,0.0,0.0,0.0,0.0,0.0,0.0,0.0,0.0,2.0542,2.0549,2.0455,0.0,0.0,1.9734,1.9184,0.0,0.0,0.0,0.0,0.0,0.0,0.0,0.0,0.0,0.0,0.0,0.0,0.0,0.0,0.0,0.0,0.0,1.9855,2.0131,2.053,0.0,2.0891,2.0479,1.9902,1.9361,1.9004,1.8685,1.8213,1.7931,1.7789,1.7789,1.7465,1.7294,1.7708,1.7728,1.7777,1.808,1.8076,1.8152,1.8473,1.8772,1.9172,1.9773,2.0705,2.12,2.0938,2.1204,2.1275,2.0891,2.0678,2.0542,2.0472,2.0565,2.0514,2.0223,1.9783,1.9532,1.9532,1.9732,1.9689,1.9481,1.955,1.9383,1.8959,1.8621,1.8366,1.8173,1.7936,1.778,1.7684,1.7684,1.7632,1.7543,1.7543,1.7543,1.7543,1.7543,1.7543,1.7543,1.7543,1.7543,1.7543,0.0,0.0,0.0,0.0,0.0,0.0,0.0,1.5509,1.6207,1.6207,1.7204,1.7963,1.8084,1.8286,1.845,1.8587,0.0,0.0,0.0,0.0,0.0,0.0,0.0,0.0,0.0,0.0,0.0,0.0,0.0,2.0716,2.0399,2.0399,2.0038,1.9392,0.0,0.0,0.0,0.0,0.0,0.0,0.0,0.0,0.0,0.0,0.0,0.0,0.0,0.0,0.0,0.0,0.0,0.0,0.0,2.0407,0.0,0.0,2.0605,2.0108,1.924,1.9002,1.8873,1.8396,1.8496,1.8685,1.8685,1.8476,1.8356,1.8625,1.8525,1.8393,1.8402,1.8676,1.8871,1.8819,1.9517,2.0171,2.045,2.1236,2.1734,2.1615,2.1645,2.17,2.17,2.17,2.1573,2.13,2.1045,2.0771,2.0514,2.0248,2.0078,2.0078,2.0078,2.0078,2.0104,1.9765,1.9613,1.9598,1.9254,1.9094,1.9094,1.9094,1.8903,1.859,1.859,1.8399,1.8087,1.8087,1.8087,1.8087,1.8087,1.8087,1.8087,1.8087,1.8087,1.8087,0.0,0.0,0.0,0.0,0.0,0.0,0.0,1.5436,1.6095,1.6195,1.7111,1.7783,1.7822,1.7877,1.7934,1.7975,0.0,0.0,0.0,0.0,0.0,0.0,0.0,0.0,0.0,0.0,0.0,0.0,0.0,0.0,0.0,0.0,2.0079,1.9878,1.9878,1.9802,0.0,0.0,0.0,0.0,0.0,0.0,0.0,0.0,0.0,0.0,0.0,0.0,0.0,0.0,0.0,0.0,0.0,0.0,0.0,2.0021,2.0429,2.079,2.0235,2.0089,2.001,1.9745,1.9598,1.9519,1.9519,1.9242,1.9004,1.9094,1.9063,1.9024,1.9024,1.9207,1.9404,1.9473,2.0095,2.0749,2.1185,2.199,2.2572,2.2611,2.2569,2.2526,2.2526,2.2677,2.2677,2.24,2.2299,2.2004,2.1343,2.1062,2.0678,2.013,2.0274,2.0377,2.0377,2.0456,2.0401,2.0197,1.9882,1.962,1.9437,1.9208,1.904,1.8941,1.8941,1.8743,1.843,1.843,1.8324,1.811,1.811,1.811,1.811,1.811,1.811,1.811,0.0,0.0,0.0,0.0,0.0,0.0,0.0,1.5326,1.5942,1.6042,1.6975,1.7617,1.7617,1.767,1.7698,1.7698,0.0,0.0,0.0,0.0,0.0,0.0,0.0,0.0,0.0,0.0,0.0,0.0,0.0,0.0,0.0,0.0,0.0,0.0,2.0102,0.0,0.0,0.0,0.0,0.0,0.0,0.0,0.0,0.0,0.0,0.0,0.0,0.0,0.0,0.0,0.0,0.0,0.0,0.0,0.0,0.0,1.9955,2.0648,2.0236,2.0353,2.0566,2.043,2.0342,2.0264,2.0177,1.9834,1.9479,1.9341,1.9301,1.9288,1.9312,1.9657,1.9982,2.0154,2.0808,2.1484,2.2031,2.2557,2.2968,2.3191,2.3138,2.3138,2.3238,2.3388,2.3388,2.3113,2.2778,2.235,2.1725,2.1351,2.0917,2.0421,2.0565,2.0642,2.0642,2.0822,2.0822,2.0642,2.0448,2.0245,2.0085,1.9876,1.9706,1.9582,1.9582,1.9412,0.0,1.8955,1.8784,1.8574,1.8419,1.8365,1.8365,1.8365,1.8365,1.8365,0.0,0.0,0.0,0.0,0.0,0.0,0.0,0.0,0.0,1.58,1.6744,1.7448,1.7482,1.759,1.767,0.0,0.0,0.0,0.0,0.0,0.0,0.0,0.0,0.0,0.0,0.0,0.0,2.0378,2.0378,2.0281,2.0102,0.0,0.0,0.0,0.0,0.0,0.0,0.0,0.0,0.0,0.0,0.0,0.0,0.0,0.0,0.0,0.0,0.0,0.0,0.0,0.0,0.0,0.0,0.0,0.0,0.0,0.0,0.0,0.0,1.9918,2.0625,2.0625,2.0761,2.0829,2.0625,2.0216,0.0,1.9361,1.9282,1.9301,1.9311,1.9975,2.0586,2.0793,2.1563,2.2331,2.2828,2.294,2.3117,2.3441,2.3447,2.3522,2.3805,2.3795,2.3696,2.3447,2.2636,2.2021,2.1751,2.1224,2.0925,2.0899,2.0899,2.0899,2.0899,2.0899,2.0899,2.0899,2.0899,2.0899,2.0899,2.0899,2.0742,2.0432,2.0432,2.0258,1.99,1.9598,1.9439,1.9367,1.9002,1.8828,1.8804,1.8804,1.8804,1.8804,0.0,0.0,0.0,0.0,0.0,0.0,0.0,0.0,0.0,0.0,1.6352,1.6896,1.7293,1.739,1.739,0.0,0.0,0.0,0.0,0.0,0.0,0.0,0.0,0.0,0.0,0.0,0.0,2.0183,2.0183,2.0151,2.0102,2.0102,0.0,0.0,0.0,0.0,0.0,0.0,0.0,0.0,0.0,0.0,0.0,0.0,0.0,0.0,1.865,1.8539,0.0,0.0,0.0,0.0,0.0,0.0,0.0,0.0,1.8131,1.8581,1.8785,0.0,2.0819,2.0819,2.0761,2.0615,0.0,2.001,1.9557,1.9152,1.9183,1.935,1.9507,2.0225,2.0861,2.101,2.1926,2.27,2.2878,2.3474,2.399,2.4214,2.392,2.3795,2.401,2.3836,2.3712,2.3628,2.3054,2.2501,2.2021,2.1496,2.1121,2.0899,2.0899,2.0899,2.0899,2.0899,2.0899,2.0899,2.0899,2.0899,2.0899,2.0899,2.0851,2.0772,2.0772,2.0599,2.029,2.0211,1.9869,1.9391,1.9304,1.9074,1.8804,1.8804,1.8804,1.8804,0.0,0.0,0.0,0.0,0.0,0.0,0.0,0.0,0.0,0.0,0.0,0.0,0.0,0.0,0.0,0.0,0.0,0.0,0.0,0.0,0.0,0.0,0.0,0.0,0.0,0.0,0.0,0.0,0.0,2.0102,0.0,0.0,0.0,0.0,0.0,0.0,0.0,0.0,0.0,0.0,0.0,0.0,0.0,0.0,0.0,0.0,1.8032,1.7913,0.0,1.7811,1.7657,1.7495,0.0,0.0,0.0,0.0,1.7579,1.8045,1.845,1.9419,2.038,2.0692,2.0518,2.0235,2.001,1.9627,1.9221,1.8803,1.9097,1.9462,1.9529,2.0352,2.1053,2.1206,2.1947,2.2588,2.2864,2.3542,2.4003,2.3994,2.3771,2.3596,2.3553,2.3304,2.3104,2.2979,2.2476,2.2047,2.1751,2.1351,2.1045,2.0899,2.0899,2.0899,2.0899,2.0899,2.0899,2.0899,2.0899,2.0899,2.0899,2.0899,2.0899,2.0899,2.0899,2.0813,2.0623,2.0456,2.0203,1.9829,1.9519,1.9272,1.9058,1.8868,1.8804,1.8804,0.0,0.0,0.0,0.0,0.0,0.0,0.0,0.0,0.0,0.0,0.0,0.0,0.0,0.0,0.0,0.0,0.0,0.0,0.0,0.0,0.0,0.0,0.0,0.0,0.0,0.0,0.0,0.0,0.0,0.0,0.0,0.0,1.9976,0.0,0.0,0.0,0.0,0.0,0.0,0.0,0.0,0.0,0.0,0.0,0.0,0.0,0.0,0.0,0.0,1.7028,1.689,1.6726,1.6726,0.0,0.0,0.0,0.0,0.0,1.8184,1.8789,1.9478,2.0246,2.0098,1.9706,1.951,1.9192,1.882,1.8492,1.9008,1.9517,1.9589,2.0372,2.1049,2.1253,2.1707,2.2276,2.2883,2.342,2.3671,2.3522,2.3372,2.3147,2.2878,2.2552,2.2274,2.2047,2.1573,2.13,2.13,2.1045,2.0899,2.0899,2.0899,2.0899,2.0899,2.0899,2.0899,2.0899,2.0899,2.0899,2.0899,2.0899,2.0899,2.0899,2.0899,2.0899,2.0875,2.0599,2.044,2.0337,1.9781,1.9487,1.936,1.9026,1.8852,1.8804,0.0,0.0,0.0,0.0,0.0,0.0,0.0,0.0,0.0,0.0,0.0,0.0,0.0,0.0,0.0,0.0,0.0,0.0,0.0,0.0,0.0,0.0,0.0,0.0,0.0,0.0,0.0,0.0,0.0,0.0,2.0102,1.9976,1.9736,0.0,0.0,0.0,0.0,0.0,0.0,0.0,0.0,0.0,0.0,0.0,0.0,0.0,0.0,0.0,0.0,1.6272,1.614,1.5974,1.5974,0.0,0.0,0.0,0.0,0.0,1.7696,1.7857,1.8139,1.943,1.9439,1.9082,1.8891,1.8663,1.851,1.8557,1.8802,1.9209,1.987,2.0276,2.0576,2.0773,2.138,2.2176,2.3116,2.3362,2.3596,2.396,2.3179,2.2627,2.2577,2.2097,2.1801,2.1751,2.1471,2.13,2.13,2.1045,2.0899,2.0899,2.0899,2.0899,2.0899,2.0899,2.0899,2.0899,2.0899,2.0899,2.0899,2.0899,2.0899,2.0899,2.0899,2.0899,2.0891,2.0836,2.0662,2.0384,2.0281,1.9908,1.9391,1.9336,1.909,1.8804,0.0,0.0,0.0,0.0,0.0,0.0,0.0,0.0,0.0,0.0,0.0,0.0,0.0,0.0,0.0,0.0,0.0,0.0,0.0,0.0,0.0,0.0,0.0,0.0,0.0,0.0,0.0,0.0,0.0,1.9312,1.9335,1.9215,1.9015,1.8741,0.0,0.0,0.0,0.0,0.0,0.0,0.0,0.0,0.0,0.0,0.0,0.0,0.0,0.0,0.0,0.0,1.5559,1.548,1.548,0.0,0.0,0.0,0.0,0.0,1.7105,1.7258,1.7403,1.834,1.8425,1.8325,1.8419,1.8389,1.841,1.8659,1.9161,1.9626,1.9829,2.0253,2.0534,2.0484,2.1104,2.1739,2.2215,2.2646,2.2937,2.3004,2.2577,2.2173,2.1878,2.1623,2.142,2.1275,2.1147,2.107,2.107,2.0976,2.0899,2.0899,2.0899,2.0899,2.0899,2.0899,2.0899,2.0899,2.0899,2.0899,2.0899,2.0899,2.0899,2.0899,2.0899,2.0899,2.0899,2.0899,2.0796,2.0662,2.0464,2.0202,1.99,1.9535,1.9145,1.8804,0.0,0.0,0.0,0.0,0.0,0.0,0.0,0.0,0.0,0.0,0.0,0.0,0.0,0.0,0.0,0.0,0.0,0.0,0.0,0.0,0.0,0.0,0.0,0.0,0.0,0.0,1.7922,1.8274,1.8563,1.8601,1.838,1.8291,1.8189,0.0,0.0,0.0,0.0,0.0,0.0,0.0,0.0,0.0,0.0,0.0,0.0,0.0,0.0,0.0,0.0,0.0,0.0,0.0,0.0,0.0,0.0,1.531,1.5497,1.5827,1.6563,1.6729,1.683,1.7414,1.7645,1.7807,1.8071,1.8225,1.8414,1.8777,1.9385,1.9814,1.9766,2.0171,2.0428,2.0187,2.0738,2.127,2.1318,2.1907,2.2249,2.2123,2.2004,2.1751,2.1351,2.13,2.1224,2.1002,2.1045,2.107,2.0994,2.0994,2.0968,2.0899,2.0899,2.0899,2.0899,2.0899,2.0899,2.0899,2.0899,2.0899,2.0899,2.0899,2.0899,2.0899,2.0899,2.0899,2.0899,2.0899,2.0899,2.0867,2.0623,2.0464,2.0321,1.9733,1.9312,1.9074,0.0,0.0,0.0,0.0,0.0,0.0,0.0,0.0,0.0,0.0,0.0,0.0,0.0,0.0,0.0,0.0,0.0,0.0,0.0,0.0,0.0,0.0,0.0,0.0,0.0,1.7174,1.7245,1.7575,1.7362,1.7323,1.7501,1.7478,1.7474,1.7459,0.0,0.0,0.0,0.0,0.0,0.0,0.0,0.0,0.0,0.0,0.0,0.0,0.0,0.0,0.0,0.0,0.0,0.0,0.0,0.0,1.4918,1.4935,1.5088,1.5397,1.6131,1.6215,1.6244,1.6952,1.7515,1.7883,1.7915,1.8171,1.8501,1.8902,1.9046,1.9237,1.9782,1.9934,1.9891,1.9671,2.0261,2.0829,2.1094,2.1495,2.1852,2.2072,2.1649,2.1351,2.13,2.13,2.1292,2.1267,2.1496,2.1522,2.1275,2.1267,2.1173,2.0899,2.0899,2.0899,2.0899,2.0899,2.0899,2.0899,2.0899,2.0899,2.0899,2.0899,2.0899,2.0899,2.0899,2.0899,2.0899,2.0899,2.0899,2.0891,2.0867,2.0661,2.0353,1.9996,1.9861,1.9813,0.0,0.0,0.0,0.0,0.0,0.0,0.0,0.0,0.0,0.0,0.0,0.0,0.0,0.0,0.0,0.0,0.0,0.0,0.0,0.0,0.0,0.0,0.0,1.6782,1.6864,1.6782,1.6711,1.6634,1.6435,1.6399,1.6533,1.6654,0.0,0.0,0.0,0.0,0.0,0.0,0.0,0.0,0.0,0.0,0.0,0.0,0.0,0.0,0.0,0.0,0.0,0.0,1.4605,1.4605,1.4605,1.4659,1.4713,1.4713,1.4766,1.4991,1.5726,1.5873,1.5984,1.6677,1.7348,0.0,0.0,1.8229,1.8683,1.9056,1.9251,1.9482,1.9834,2.0042,2.0027,1.9648,2.0015,2.034,2.0345,2.0653,2.0999,2.1319,2.1173,2.1045,2.1045,2.1198,2.13,2.13,2.1547,2.1573,2.1318,2.13,2.1173,2.0899,2.0899,2.0899,2.0899,2.0899,2.0899,2.0899,2.0899,2.0899,2.0899,2.0899,2.0899,2.0899,2.0899,2.0899,2.0899,2.0899,2.0899,2.0899,2.0899,2.071,2.0377,2.0266,2.0075,1.9892,0.0,0.0,0.0,0.0,0.0,0.0,0.0,0.0,0.0,0.0,0.0,0.0,0.0,0.0,0.0,0.0,0.0,0.0,0.0,0.0,0.0,0.0,0.0,1.6385,1.6285,1.6157,1.6028,1.5884,1.5544,1.5424,1.5503,0.0,0.0,0.0,0.0,0.0,0.0,0.0,0.0,0.0,0.0,0.0,0.0,0.0,0.0,0.0,0.0,0.0,0.0,0.0,1.4605,1.4605,1.4605,1.4605,1.4605,1.4605,1.4684,1.4917,1.5534,1.578,1.6015,1.673,1.7342,1.7824,1.7936,1.8358,1.8799,1.9032,1.9296,1.9525,1.9654,1.9905,1.9959,1.9533,1.976,1.9962,1.991,2.0269,2.0645,2.0979,2.1096,2.1121,2.1019,2.1351,2.1522,2.142,2.1776,2.1852,2.1573,2.1547,2.1428,2.1173,2.1147,2.1147,2.1147,2.1147,2.1147,2.1147,2.1147,2.107,2.0899,2.0899,2.0899,2.0899,2.0899,2.0899,2.0899,2.0899,2.0899,2.0899,2.0899,2.0774,2.0559,2.0559,2.0408,2.0226,0.0,0.0,0.0,0.0,0.0,0.0,0.0,0.0,0.0,0.0,0.0,0.0,0.0,0.0,0.0,0.0,0.0,0.0,0.0,0.0,0.0,0.0,0.0,1.5927,1.5594,1.5181,1.5123,1.5381,1.4652,1.4322,1.4404,1.4799,0.0,0.0,0.0,0.0,0.0,0.0,0.0,0.0,0.0,0.0,0.0,0.0,0.0,0.0,0.0,0.0,0.0,0.0,1.4605,1.4605,1.4605,1.4605,1.4605,1.4605,1.4877,1.5271,1.5605,1.5936,1.6381,1.7125,1.7546,1.7888,1.8216,1.855,1.8804,1.8804,1.9004,1.9211,1.9211,1.941,1.951,1.9234,1.9487,1.9725,1.9885,2.0409,2.0913,2.1252,2.1547,2.1598,2.1326,2.1801,2.2004,2.1725,2.2266,2.2443,2.2123,2.2097,2.1979,2.17,2.17,2.17,2.17,2.17,2.17,2.17,2.17,2.142,2.0899,2.0899,2.0899,2.0899,2.0899,2.0899,2.0899,2.0899,2.0899,2.0899,2.0899,2.0899,2.0899,2.0899,2.0899,2.0899,0.0,0.0,0.0,0.0,0.0,0.0,0.0,0.0,0.0,0.0,0.0,0.0,0.0,0.0,0.0,0.0,0.0,0.0,0.0,0.0,0.0,0.0,0.0,0.0,0.0,0.0,1.4052,1.427,1.3958,1.3756,0.0,0.0,0.0,1.4689,0.0,0.0,0.0,0.0,0.0,0.0,0.0,0.0,0.0,0.0,0.0,0.0,0.0,0.0,0.0,0.0,0.0,0.0,1.4605,1.4605,1.4605,1.4605,1.4877,1.5271,1.5605,1.5936,1.6381,1.7125,1.7546,1.7888,1.8216,1.855,1.8804,1.8804,1.9004,1.9211,1.9211,1.941,1.951,1.9234,1.9277,1.9537,2.0087,2.0338,2.0728,2.1499,2.1649,2.1674,2.1598,2.1903,2.208,2.2004,2.2367,2.2443,2.2123,2.2097,2.1979,2.17,2.17,2.17,2.17,2.17,2.17,2.17,2.17,2.1623,2.1445,2.1445,2.1445,2.1445,2.1249,2.1173,2.1173,2.0968,2.0899,2.0899,2.0899,2.0899,2.0899,2.0899,2.0899,2.0899,0.0,0.0,0.0,0.0,0.0,0.0,0.0,0.0,0.0,0.0,0.0,0.0,0.0,0.0,0.0,0.0,0.0,0.0,0.0,0.0,0.0,0.0,0.0,0.0,0.0,1.3541,1.3277,0.0,0.0,0.0,0.0,0.0,0.0,1.409,0.0,1.4337,0.0,0.0,0.0,0.0,0.0,1.4391,1.4415,0.0,0.0,0.0,0.0,0.0,0.0,0.0,0.0,0.0,1.4605,1.4605,1.4605,1.4605,1.4972,1.5438,1.5645,1.6162,1.679,1.7355,1.7753,1.8095,1.843,1.8654,1.8804,1.8804,1.892,1.9027,1.9027,1.9265,1.9387,1.9234,1.9288,1.9561,2.0149,2.0546,2.1046,2.1728,2.2148,2.2283,2.2047,2.2283,2.2358,2.2123,2.2417,2.2518,2.2308,2.2409,2.2384,2.2207,2.2308,2.2384,2.2384,2.2384,2.2384,2.2384,2.2257,2.2207,2.2207,2.1852,2.17,2.17,2.142,2.1249,2.1121,2.0976,2.0899,2.0899,2.0899,2.0899,2.0899,2.0899,2.0899,2.0899,0.0,0.0,0.0,0.0,0.0,0.0,0.0,0.0,0.0,0.0,0.0,0.0,0.0,0.0,0.0,0.0,0.0,0.0,0.0,0.0,0.0,0.0,0.0,0.0,0.0,0.0,0.0,0.0,0.0,0.0,0.0,0.0,1.3485,1.3786,0.0,1.395,0.0,0.0,0.0,0.0,1.3918,1.406,1.4131,1.4431,0.0,0.0,0.0,0.0,0.0,0.0,0.0,0.0,1.4605,1.4605,1.4605,1.4605,1.5115,1.5693,1.5693,1.648,1.7379,1.7713,1.8057,1.843,1.8733,1.8804,1.8804,1.8804,1.8804,1.8804,1.8804,1.9027,1.9211,1.9211,1.9433,1.9726,2.0096,2.0921,2.164,2.2002,2.2844,2.3172,2.2627,2.2862,2.282,2.2257,2.2485,2.2669,2.2669,2.2896,2.3046,2.3046,2.3272,2.3397,2.3397,2.3397,2.3397,2.3397,2.3122,2.2996,2.2971,2.2156,2.1776,2.1725,2.1471,2.1224,2.0968,2.0968,2.0968,2.0942,2.0942,2.0925,2.0899,2.0899,2.0899,2.0899,0.0,0.0,0.0,0.0,0.0,0.0,0.0,0.0,0.0,0.0,0.0,0.0,0.0,0.0,0.0,0.0,0.0,0.0,0.0,0.0,0.0,0.0,0.0,0.0,0.0,0.0,0.0,0.0,0.0,0.0,0.0,0.0,0.0,1.2876,0.0,1.2931,0.0,0.0,0.0,1.3243,1.3561,1.3862,1.4099,1.4179,1.4359,0.0,0.0,0.0,0.0,0.0,0.0,0.0,1.4605,1.4605,1.4605,1.4605,1.5115,1.5693,1.5693,1.648,1.7379,1.7713,1.8247,1.8709,1.8788,1.8804,1.8804,1.8804,1.8804,1.8804,1.8804,1.9027,1.9211,1.9211,1.9433,1.9795,2.0354,2.104,2.1688,2.2247,2.2968,2.3347,2.3222,2.3272,2.3247,2.3147,2.3197,2.3222,2.3222,2.3272,2.3322,2.3322,2.3381,2.3397,2.3397,2.3397,2.3397,2.3397,2.3122,2.2996,2.2996,2.2594,2.2257,2.1996,2.1945,2.1776,2.1522,2.1522,2.1394,2.1224,2.1224,2.1096,2.0899,2.0899,2.0899,2.0899,0.0,0.0,0.0,0.0,0.0,0.0,0.0,0.0,0.0,0.0,0.0,0.0,0.0,0.0,0.0,0.0,0.0,0.0,0.0,0.0,1.424,1.3653,0.0,0.0,0.0,0.0,0.0,0.0,0.0,0.0,0.0,0.0,0.0,1.259,0.0,1.259,0.0,0.0,1.2853,1.2885,1.3227,1.3553,1.3878,1.4045,1.4314,1.4605,1.4605,0.0,0.0,0.0,0.0,0.0,0.0,0.0,1.4605,1.4605,1.5115,1.5693,1.5693,1.66,1.7679,1.83,1.8731,1.9035,1.9158,1.9181,1.9181,1.9181,1.9081,1.8981,1.8981,1.9288,1.954,1.954,1.9868,2.0232,2.0549,2.1258,2.1934,2.2442,2.3052,2.3489,2.3578,2.3596,2.3546,2.3406,2.3397,2.3397,2.3397,2.3522,2.3596,2.3596,2.373,2.378,2.378,2.378,2.378,2.378,2.3497,2.3322,2.3172,2.277,2.2409,2.2097,2.2097,2.1954,2.17,2.17,2.1623,2.1496,2.1496,2.1402,2.1275,2.1275,2.1275,2.1275,0.0,0.0,0.0,0.0,0.0,0.0,0.0,0.0,0.0,0.0,0.0,0.0,0.0,0.0,0.0,0.0,0.0,0.0,0.0,1.4025,1.3543,1.2989,0.0,0.0,0.0,0.0,0.0,0.0,0.0,0.0,0.0,0.0,0.0,1.259,0.0,0.0,0.0,0.0,1.259,1.2622,1.2965,1.3307,1.3641,1.3974,1.4314,1.4605,1.4605,1.4605,1.4605,1.4605,0.0,0.0,0.0,0.0,1.4659,1.4659,1.5189,1.5797,1.5797,1.6849,1.8119,1.8959,1.9216,1.9333,1.9556,1.961,1.961,1.961,1.941,1.9265,1.9265,1.9608,1.9928,1.9951,2.0382,2.0722,2.0744,2.1466,2.2118,2.2467,2.3086,2.3578,2.3743,2.3809,2.378,2.3546,2.3546,2.3546,2.3546,2.3755,2.3879,2.3879,2.4078,2.4202,2.4202,2.4202,2.4202,2.4202,2.3929,2.3646,2.3372,2.2946,2.2594,2.2333,2.2333,2.2207,2.2004,2.1928,2.1903,2.1818,2.1801,2.1751,2.17,2.17,2.17,2.17,0.0,0.0,0.0,0.0,0.0,0.0,0.0,0.0,0.0,0.0,0.0,1.403,1.3781,1.4217,0.0,0.0,0.0,0.0,1.3435,0.0,0.0,0.0,0.0,0.0,0.0,0.0,0.0,0.0,0.0,0.0,0.0,0.0,0.0,1.259,0.0,0.0,0.0,0.0,1.259,1.2622,1.2965,1.3307,1.3641,1.3974,1.4314,1.4605,1.4605,1.4605,1.4605,1.4605,1.4605,0.0,0.0,0.0,1.4864,1.4864,1.552,1.6215,1.6215,1.7286,1.8507,1.8918,1.9294,1.9564,1.9587,1.961,1.961,1.961,1.9564,1.9556,1.9556,1.9731,1.9973,2.0201,2.0496,2.0758,2.093,2.1557,2.2019,2.2073,2.2913,2.3517,2.3548,2.3917,2.4127,2.4102,2.4102,2.4102,2.4102,2.4127,2.4152,2.4152,2.4177,2.4202,2.4202,2.4202,2.4202,2.4202,2.3929,2.3646,2.3397,2.3322,2.3272,2.3222,2.3222,2.3222,2.3147,2.2921,2.2661,2.2375,2.2148,2.1903,2.17,2.17,2.17,2.17,0.0,0.0,0.0,0.0,0.0,0.0,0.0,0.0,0.0,0.0,0.0,1.3338,1.2961,1.3224,0.0,0.0,0.0,0.0,1.2705,1.2693,0.0,0.0,0.0,0.0,0.0,0.0,0.0,0.0,0.0,0.0,0.0,1.2797,1.2877,0.0,0.0,0.0,0.0,0.0,0.0,1.2885,1.3044,1.341,1.3894,1.4036,1.4314,1.4605,1.4605,1.4605,1.4605,1.4605,1.4659,1.4774,1.4774,0.0,0.0,0.0,1.5493,1.6091,1.6709,1.7652,1.8629,1.9104,1.9614,2.0027,2.0187,2.0292,2.0374,2.0374,2.0374,2.0292,2.005,2.0187,2.0419,2.0645,2.0925,2.1114,2.1217,2.1572,2.1921,2.2149,2.2546,2.2995,2.3453,2.3678,2.3904,2.4183,2.4202,2.4202,2.4202,2.4202,2.4202,2.4202,2.4202,2.4202,2.4202,2.4202,2.4202,2.4202,2.4078,2.3954,2.3854,2.3854,2.3671,2.3397,2.3397,2.3397,2.3397,2.3272,2.3147,2.2987,2.2862,2.2761,2.2661,2.2661,2.2661,2.2661,0.0,0.0,0.0,0.0,0.0,0.0,0.0,0.0,0.0,0.0,0.0,0.0,1.22,0.0,0.0,0.0,0.0,0.0,1.2216,0.0,0.0,0.0,0.0,0.0,0.0,0.0,0.0,0.0,0.0,0.0,1.2606,1.2941,1.3156,0.0,1.3235,1.3235,0.0,0.0,0.0,0.0,1.3314,1.3656,1.4099,1.4195,1.4375,1.4605,1.4605,1.4623,1.4677,1.4677,1.481,1.4989,1.4989,1.5106,0.0,0.0,0.0,1.635,1.7253,1.8083,1.8802,1.9356,1.9917,2.0397,2.0718,2.0885,2.0997,2.0997,2.0997,2.0965,2.0776,2.076,2.0884,2.1198,2.1414,2.1604,2.1749,2.1916,2.2108,2.2424,2.2552,2.2854,2.3435,2.3614,2.3822,2.4183,2.4202,2.4202,2.4202,2.4202,2.4202,2.4202,2.4202,2.4202,2.4202,2.4202,2.4202,2.4202,2.4202,2.4202,2.4202,2.4202,2.3978,2.3596,2.3596,2.3596,2.3596,2.353,2.3497,2.3497,2.3431,2.3397,2.3397,2.3397,2.3397,2.3397,0.0,0.0,0.0,0.0,0.0,0.0,0.0,0.0,0.0,0.0,0.0,0.0,0.0,0.0,0.0,0.0,0.0,0.0,0.0,0.0,0.0,0.0,0.0,0.0,0.0,0.0,0.0,0.0,0.0,0.0,1.2606,1.2941,1.3275,1.3569,1.3569,1.3569,1.3569,0.0,0.0,0.0,0.0,1.406,1.4131,1.4447,1.4589,1.4605,1.4605,1.4721,1.489,1.489,1.5017,1.5187,1.5187,1.5311,1.5523,0.0,0.0,0.0,1.7951,1.8603,1.925,1.9676,2.0086,2.051,2.0886,2.0997,2.0997,2.0997,2.0997,2.118,2.1801,2.1391,2.1189,2.1833,2.1965,2.217,2.2747,2.2816,2.2849,2.2876,2.3206,2.3444,2.3489,2.3895,2.4183,2.4202,2.4202,2.4202,2.4202,2.4202,2.4202,2.4202,2.4202,2.4202,2.4202,2.4202,2.4202,2.4202,2.4202,2.4202,2.4202,2.4202,2.4177,2.4152,2.4152,2.4152,2.4152,2.3879,2.378,2.3746,2.3497,2.3397,2.3397,2.3397,2.3397,2.3397,0.0,0.0,0.0,0.0,0.0,0.0,0.0,0.0,0.0,0.0,0.0,0.0,0.0,0.0,0.0,0.0,0.0,0.0,0.0,0.0,0.0,0.0,0.0,0.0,0.0,0.0,0.0,0.0,0.0,1.259,1.2606,1.2941,1.3155,1.3291,1.3506,1.3728,1.391,1.3696,0.0,0.0,0.0,1.4234,1.4431,1.4557,1.4605,1.4605,1.4605,1.4739,1.4908,1.4908,1.5132,1.5426,1.5541,1.5718,1.5921,1.607,1.6598,1.7201,1.7619,1.8253,1.8955,1.9531,2.0164,2.0727,2.1003,2.126,2.1463,2.1463,2.1463,2.1604,2.2094,2.1898,2.1842,2.248,2.2567,2.2645,2.2862,2.2904,2.2904,2.2904,2.3032,2.3215,2.3471,2.3651,2.3868,2.4183,2.4202,2.4202,2.4202,2.4202,2.4202,2.4202,2.4202,2.4202,2.4202,2.4202,2.4202,2.4202,2.4202,2.4202,2.4202,2.4202,2.4202,2.4202,2.4202,2.4202,2.4202,2.4102,2.4053,2.4053,2.3954,2.3895,2.3895,2.3895,2.3895,2.3895,0.0,0.0,0.0,0.0,0.0,0.0,0.0,0.0,0.0,0.0,0.0,0.0,0.0,0.0,0.0,0.0,0.0,0.0,0.0,0.0,0.0,0.0,0.0,0.0,0.0,0.0,0.0,0.0,0.0,0.0,0.0,1.2837,1.2989,1.3116,1.3339,1.368,0.0,0.0,0.0,1.4274,0.0,1.4391,1.4621,1.4758,1.4805,1.4821,1.4932,1.5137,1.5357,1.5208,1.5474,1.5862,1.5884,1.607,1.6289,1.6377,1.6732,1.718,1.7601,1.8164,1.8831,1.9616,2.0194,2.0732,2.121,2.1477,2.1633,2.1802,2.1763,2.1815,2.2231,2.2308,2.2466,2.3017,2.3105,2.3151,2.3312,2.333,2.333,2.333,2.333,2.3431,2.3721,2.3724,2.3859,2.4183,2.4202,2.4137,2.3975,2.3975,2.3975,2.3975,2.4128,2.4202,2.4202,2.4202,2.4202,2.4202,2.4202,2.4202,2.4202,2.4202,2.4202,2.4202,2.4202,2.4202,2.4202,2.4202,2.4202,2.4202,2.4202,2.4202,2.4202,2.4202,2.4202,2.4202,0.0,0.0,0.0,0.0,0.0,0.0,0.0,0.0,0.0,0.0,0.0,0.0,0.0,0.0,0.0,0.0,0.0,0.0,0.0,0.0,0.0,0.0,0.0,0.0,0.0,0.0,0.0,0.0,0.0,0.0,0.0,0.0,1.2766,1.3092,1.3092,1.3449,1.4068,1.4083,1.429,1.4589,1.4597,1.4613,1.466,1.5046,1.5208,1.5263,1.5581,1.5958,1.6242,1.5852,1.6115,1.6557,1.6236,1.6342,1.6603,1.6603,1.7024,1.7568,0.0,0.0,0.0,1.9938,2.0192,2.0477,2.1523,2.157,2.1528,2.1994,2.1887,2.1815,2.2231,2.2611,2.3023,2.3425,2.3508,2.3678,2.4146,2.4202,2.4202,2.4202,2.4202,2.4202,2.4202,2.4202,2.4202,2.4202,2.4202,2.4002,2.3541,2.348,2.348,2.348,2.3947,2.4183,2.4183,2.4192,2.4202,2.4202,2.4202,2.4202,2.4202,2.4202,2.4202,2.4202,2.4202,2.4202,2.4202,2.4202,2.4202,2.4202,2.4202,2.4202,2.4202,2.4202,2.4202,2.4202,0.0,0.0,0.0,0.0,0.0,0.0,1.3975,1.3218,0.0,0.0,0.0,0.0,0.0,0.0,0.0,0.0,0.0,0.0,0.0,0.0,0.0,1.1949,1.2166,1.2336,0.0,0.0,0.0,0.0,0.0,0.0,0.0,0.0,0.0,1.2742,1.2742,1.2973,1.341,1.3885,1.4147,1.4258,1.4502,1.4764,1.5046,1.5168,1.5351,1.5593,1.5822,1.6073,1.6321,1.6338,1.6653,1.7022,1.6928,1.6856,1.6812,1.6812,1.6947,1.7229,1.7917,0.0,0.0,0.0,0.0,0.0,2.1002,2.1273,2.1445,2.1556,2.1649,2.1815,2.2231,2.2396,2.2675,2.338,2.3794,2.4048,2.4183,2.4202,2.4202,2.4202,2.4202,2.4202,2.4202,2.4202,2.4202,2.4202,2.4202,2.4002,2.3541,2.3224,2.3068,2.3068,2.3477,2.3688,2.3688,2.403,2.4202,2.4202,2.4202,2.4202,2.4202,2.4202,2.4202,2.4202,2.4202,2.4202,2.4202,2.4202,2.4202,2.4202,2.4202,2.4202,2.4202,2.4202,2.4202,2.4202,0.0,0.0,0.0,0.0,0.0,1.4267,1.3701,1.3079,1.2544,0.0,0.0,0.0,0.0,0.0,0.0,0.0,0.0,0.0,0.0,1.1732,1.184,1.1918,1.2166,1.2336,1.2413,0.0,0.0,0.0,0.0,0.0,0.0,0.0,0.0,1.259,1.259,1.271,1.2933,1.3617,1.3974,1.4123,1.4462,1.4837,1.5216,1.5359,1.5621,1.5959,1.6326,1.658,1.6779,1.6923,1.7182,1.7459,1.7541,1.7378,1.7156,1.7156,1.7156,1.7293,1.7926,1.8219,1.8579,1.9536,0.0,0.0,2.076,2.0996,2.1168,2.1493,2.1493,2.1572,2.1984,2.2195,2.2451,2.2927,2.3519,2.3984,2.4183,2.4202,2.4202,2.4202,2.4202,2.4202,2.4202,2.4202,2.4202,2.4202,2.4202,2.3929,2.3279,2.3032,2.2831,2.2648,2.3041,2.3325,2.3499,2.3776,2.4012,2.4202,2.4202,2.4202,2.4202,2.4202,2.4202,2.4202,2.4202,2.4202,2.4202,2.4202,2.4202,2.4202,2.4202,2.4202,2.4202,2.4202,2.4202,2.4202,0.0,0.0,1.4882,1.4656,1.4255,1.3767,1.3261,1.2795,1.2393,0.0,0.0,0.0,0.0,0.0,0.0,0.0,0.0,0.0,0.0,1.1747,1.1918,1.2104,1.2259,1.2413,1.259,1.259,0.0,0.0,0.0,0.0,0.0,0.0,0.0,0.0,1.259,1.2614,1.2694,1.3363,1.3825,1.4158,1.448,1.4861,1.5287,1.5581,1.5939,1.6321,1.6916,1.7241,1.7423,1.7567,1.774,1.7893,1.8089,1.7889,1.7568,1.7568,1.7568,0.0,1.8063,1.843,0.0,1.9455,1.9735,0.0,2.0646,2.0679,2.0764,2.1469,2.1333,2.1196,2.1572,2.1975,2.2249,2.2295,2.2909,2.3541,2.4048,2.4174,2.4202,2.4202,2.4202,2.4202,2.4202,2.4202,2.4202,2.4202,2.4156,2.3776,2.3014,2.2931,2.2712,2.2314,2.2684,2.305,2.3352,2.3407,2.366,2.4113,2.4113,2.4156,2.4202,2.4202,2.4202,2.4202,2.4202,2.4202,2.4202,2.4202,2.4202,2.4202,2.4202,2.4202,2.4202,2.4202,2.4202,2.4202,0.0,1.4799,1.4493,1.4181,1.3851,1.3478,1.3094,1.2729,1.2448,1.2265,0.0,0.0,0.0,0.0,0.0,0.0,0.0,0.0,0.0,0.0,1.2104,1.2259,1.2436,1.256,1.259,1.259,1.259,0.0,0.0,0.0,0.0,0.0,0.0,0.0,1.259,1.275,1.3044,1.3598,1.4035,1.4356,1.4533,1.5004,1.5605,1.5677,1.6071,1.6663,1.7164,1.7371,1.7505,1.8224,1.8378,1.8318,1.8519,1.8302,1.7981,1.7981,1.7981,1.8073,1.8466,1.8631,1.8845,1.9455,1.9626,0.0,2.0026,2.018,2.0329,2.0467,2.0828,2.1114,2.1196,2.1544,2.1906,2.2249,2.2433,2.2799,2.3532,2.3975,2.4202,2.4202,2.4202,2.4202,2.4202,2.4202,2.4202,2.4202,2.3849,2.3569,2.3389,2.3078,2.2712,2.2314,2.2684,2.2785,2.2543,2.2849,2.3224,2.3633,2.3633,2.3831,2.4202,2.4202,2.4202,2.4202,2.4202,2.4202,2.4202,2.4202,2.4202,2.4202,2.4202,2.4202,2.4202,2.4202,2.4202,2.4202,0.0,1.4285,1.3902,1.3558,1.317,1.285,1.2674,1.2444,1.2243,0.0,0.0,0.0,0.0,0.0,0.0,0.0,0.0,0.0,0.0,1.1996,1.2151,1.229,1.2483,1.259,1.259,1.259,1.259,1.259,0.0,0.0,0.0,0.0,0.0,0.0,1.2766,1.2941,1.3156,1.3857,1.4256,1.4433,1.4764,1.5275,1.5854,1.5854,1.6197,1.6751,1.7229,1.7676,1.8129,1.856,1.8777,1.8881,1.8969,1.8714,1.8402,1.8402,1.8402,1.8439,1.864,1.8861,1.9073,1.9364,1.9537,0.0,0.0,1.9834,1.9959,2.0155,2.0518,2.0848,2.1071,2.1434,2.1782,2.1975,2.2176,2.2442,2.2854,2.3464,2.3947,2.4183,2.4202,2.4202,2.4202,2.4202,2.4202,2.4202,2.3984,2.3758,2.3508,2.3306,2.2913,2.2323,2.2506,2.2492,2.2304,2.2492,2.2794,2.3206,2.3398,2.3623,2.3859,2.4085,2.4202,2.4202,2.4202,2.4202,2.4202,2.4202,2.4202,2.4202,2.4202,2.4202,2.4202,2.4202,2.4202,2.4202,1.4106,1.3685,1.3277,1.2965,1.2521,1.2197,1.2197,1.2089,1.1956,0.0,0.0,0.0,0.0,0.0,0.0,0.0,0.0,0.0,0.0,1.2209,1.2366,1.2547,1.2632,1.2694,1.2694,1.263,1.259,1.259,0.0,0.0,0.0,1.259,1.263,1.271,1.2981,1.3196,1.3395,1.4141,1.451,1.4652,1.5199,1.5653,1.6005,1.6069,1.634,1.6751,1.7229,1.7968,1.87,1.87,1.8962,1.9301,1.9301,1.9081,1.8825,1.8825,1.8825,1.8825,1.8825,1.9063,1.9301,1.9301,1.9429,1.9537,0.0,0.0,0.0,1.9955,2.0221,2.05,2.0924,2.1315,2.1617,2.17,2.1984,2.2213,2.2295,2.2872,2.3468,2.4002,2.4058,2.4085,2.4192,2.4202,2.4202,2.4202,2.4202,2.403,2.3651,2.3633,2.3303,2.2561,2.2469,2.2387,2.2304,2.2222,2.2396,2.2794,2.3105,2.3343,2.3508,2.3886,2.4103,2.4202,2.4202,2.4202,2.4202,2.4202,2.4202,2.4202,2.4202,2.4202,2.4202,2.4202,2.4202,2.4202,1.3526,1.3201,1.2836,1.2667,1.2212,1.1856,1.1856,1.1747,1.1725,0.0,0.0,0.0,1.2363,1.2399,1.2399,1.2399,1.2399,1.2567,1.2925,1.2975,1.3133,1.3432,1.3187,1.3044,1.3044,1.275,1.259,1.259,0.0,0.0,0.0,1.259,1.2766,1.3036,1.3076,1.3532,1.427,1.4548,1.4935,1.5418,1.596,1.6098,1.6029,1.6333,1.6557,1.6751,1.7229,1.7968,1.87,1.87,1.8962,1.9301,1.9301,1.9265,1.9237,1.9237,1.9237,1.9237,1.9237,1.9265,1.9301,1.9301,1.9321,1.9321,1.9321,0.0,1.9359,1.9386,0.0,2.0097,2.0491,0.0,0.0,2.1632,2.1733,2.1901,2.2249,2.2378,2.2726,2.3495,2.3587,2.3724,2.4165,2.4202,2.4202,2.4202,2.4202,2.4183,2.4113,2.4113,2.3901,2.337,2.3014,2.2657,2.2304,2.1956,2.1984,2.2378,2.2414,2.2817,2.3499,2.3569,2.3813,2.4202,2.4202,2.4202,2.4202,2.4202,2.4202,2.4202,2.4202,2.4202,2.4202,2.4202,2.4202,2.4202,1.2896,1.2636,1.2344,1.2166,1.1887,1.1685,1.1685,1.1761,1.1939,1.2261,1.2288,1.2332,1.2487,1.2502,1.2502,1.2502,1.2502,1.2678,1.308,1.3097,0.0,1.3584,1.3466,1.3394,1.3394,1.306,1.2885,1.2885,1.2694,0.0,0.0,0.0,1.2844,1.3276,1.3485,1.3948,1.4598,1.4994,1.5417,1.5885,1.6312,1.6476,1.6488,1.6624,1.685,1.7127,1.7331,1.7878,1.8543,1.8652,1.8882,1.9152,1.9262,1.9467,1.9593,1.9375,1.9476,1.9593,1.9366,1.9301,1.9301,1.9301,1.9301,1.9301,1.9301,1.9301,1.9301,1.9301,0.0,0.0,0.0,0.0,0.0,0.0,2.1696,2.1751,2.1938,2.1956,2.2236,2.3059,2.3151,2.3306,2.3758,2.3794,2.3895,2.4183,2.4202,2.4202,2.4202,2.4202,2.3984,2.3508,2.3334,2.294,2.2304,2.214,2.202,2.1943,2.2195,2.2607,2.316,2.3389,2.3767,2.4202,2.4202,2.4202,2.4202,2.4202,2.4202,2.4202,2.4202,2.4202,2.4202,2.4202,2.4202,2.4202,1.2336,0.0,1.1965,1.1833,1.1685,1.1621,1.1693,1.1946,1.2251,1.2597,1.2714,1.2801,1.2896,1.2984,1.306,1.306,1.3106,1.3281,1.363,1.3608,1.3727,1.4021,1.3848,1.3744,1.3744,1.3418,1.3195,1.3108,1.2869,1.2694,0.0,0.0,1.3011,1.355,1.3883,1.4367,1.4944,1.5452,1.5852,1.6184,1.6592,1.6813,1.688,1.68,1.6992,1.731,1.7371,1.7777,1.8359,1.8735,1.9004,1.9223,1.9544,1.9822,2.0014,1.9703,1.9831,2.0005,1.9714,1.9632,1.9604,1.9483,1.9456,1.9439,1.9329,1.9301,1.9329,1.9448,1.9923,0.0,0.0,0.0,0.0,0.0,0.0,2.1696,2.1696,2.1696,2.1952,2.2648,2.284,2.3023,2.3306,2.3435,2.3642,2.3984,2.4137,2.4202,2.4202,2.4202,2.4039,2.3697,2.3578,2.316,2.2478,2.2359,2.2103,2.1696,2.2002,2.2359,2.2748,2.3151,2.3578,2.4021,2.4156,2.4202,2.4202,2.4202,2.4202,2.4202,2.4202,2.4202,2.4202,2.4202,2.4202,2.4202,1.1856,1.1817,1.1809,1.1802,1.1685,1.1694,1.1954,1.2275,1.2604,1.2933,1.3265,1.3587,1.392,1.4235,1.4445,1.4445,1.4605,1.481,1.503,1.4913,1.4921,1.5133,1.4466,1.4075,1.4075,1.3768,1.3426,1.3108,1.3092,1.2917,0.0,0.0,0.0,1.3891,1.424,1.4788,1.5487,1.591,1.6162,1.6341,1.6936,1.7153,1.7054,1.6796,1.6866,1.7139,1.7331,1.7656,1.8132,1.8994,1.9406,1.9674,2.0272,2.0463,2.0472,2.0463,2.0463,2.0472,2.0463,2.0463,2.0363,1.9987,1.9886,1.9785,1.9393,1.9301,1.9421,1.9804,1.9914,2.0161,0.0,0.0,0.0,0.0,0.0,0.0,0.0,2.1696,2.1842,2.2277,2.2657,2.2913,2.2922,2.327,2.3499,2.3508,2.3932,2.4202,2.4202,2.4202,2.4192,2.4183,2.3749,2.3297,2.2895,2.2483,2.2103,2.1696,2.1705,2.1938,2.2341,2.2739,2.3142,2.3535,2.4002,2.4202,2.4202,2.4202,2.4202,2.4202,2.4202,2.4202,2.4202,2.4202,2.4202,2.4202,1.2011,1.1825,1.1669,1.1669,1.1783,1.2034,1.2575,1.2757,1.3038,1.3598,1.3766,1.3964,1.4286,1.4426,1.4511,1.4511,1.4684,1.489,1.5091,1.5184,1.5324,1.5526,1.5088,1.4824,1.4824,1.4236,1.3878,1.3767,1.3529,1.337,1.3259,0.0,0.0,0.0,1.4541,1.5155,1.6093,1.6046,1.6365,1.6911,1.7072,1.7013,1.6833,1.673,1.6874,1.7139,1.7331,1.7733,1.8289,1.8852,1.927,1.9616,2.0147,2.0479,2.0677,2.0531,2.0683,2.0851,2.0564,2.05,2.0463,2.0335,2.0298,2.0262,2.0136,2.0088,2.0124,2.0271,2.0509,2.0775,0.0,0.0,0.0,0.0,0.0,0.0,0.0,2.1696,2.1742,2.1901,2.2016,2.2208,2.2488,2.2634,2.2936,2.3453,2.3651,2.3868,2.4183,2.4202,2.4202,2.4202,2.4048,2.3629,2.2913,2.2767,2.2355,2.1696,2.1696,2.1897,2.2314,2.2712,2.3123,2.3541,2.4002,2.4202,2.4202,2.4202,2.4202,2.4202,2.4202,2.4202,2.4202,2.4202,2.4202,2.4202,1.2155,1.1934,1.1744,1.1744,1.2078,1.2502,1.2925,1.3206,1.3506,1.3942,1.4179,1.4406,1.4611,1.4743,1.4849,1.4921,1.5133,1.5351,1.5542,1.5631,1.5744,1.5864,1.5558,1.5383,1.5383,1.4792,1.4426,1.4282,1.3942,1.372,1.3601,0.0,0.0,0.0,1.4721,1.5275,1.6152,1.6129,1.6474,1.7057,1.7094,1.6935,1.6726,1.686,1.6932,1.7012,1.7466,1.7863,1.8305,1.9061,1.9504,1.9795,2.0325,2.0722,2.0994,2.0862,2.1049,2.1251,2.1004,2.093,2.0894,2.0747,2.0701,2.0674,2.0527,2.05,2.0537,2.0674,2.0934,2.1132,0.0,0.0,0.0,0.0,0.0,0.0,0.0,2.1696,2.1696,2.1696,2.1696,2.1797,2.2066,2.2222,2.2515,2.3023,2.3334,2.3633,2.3923,2.4103,2.4202,2.4202,2.4202,2.3791,2.2913,2.2904,2.2501,2.1696,2.1696,2.1846,2.2112,2.2648,2.305,2.3316,2.3938,2.4202,2.4202,2.4202,2.4202,2.4202,2.4202,2.4293,2.4413,2.4257,2.4202,2.4202,1.2265,1.2177,1.2054,1.2069,1.2604,1.3038,1.3053,1.3594,1.403,1.4045,1.454,1.4907,1.4922,1.5199,1.5486,1.5671,1.5955,1.6183,1.6394,1.6292,1.621,1.621,1.5888,1.5725,1.5725,1.5399,1.503,1.4629,1.4314,1.3982,1.3665,0.0,0.0,0.0,1.4788,1.5227,1.5762,1.6159,1.6522,1.6829,1.7013,1.6943,1.6773,1.7143,1.7072,1.6854,1.7708,1.8028,1.8233,1.9583,2.0061,2.0183,2.077,2.115,2.1369,2.1369,2.1517,2.1664,2.1674,2.1696,2.1595,2.1214,2.1135,2.1022,2.0647,2.0555,2.0665,2.1062,2.1135,2.1264,0.0,0.0,0.0,0.0,0.0,0.0,0.0,2.1696,2.1696,2.1696,2.1696,2.1696,2.1696,2.2048,2.2277,2.2304,2.3037,2.3471,2.3499,2.3957,2.4202,2.4202,2.4202,2.3791,2.2913,2.2904,2.2501,2.1696,2.1696,2.1696,2.1723,2.2538,2.2904,2.295,2.3828,2.4202,2.4202,2.4202,2.4202,2.4202,2.422,2.4471,2.4783,2.4385,2.4238,2.4229,1.2654,1.2718,1.2816,1.3075,1.3258,1.3448,1.3715,1.4096,1.4448,1.4643,1.4798,1.4995,1.5236,1.5359,1.5486,1.5671,1.5955,1.6183,1.6394,1.65,1.6575,1.6575,1.6261,1.6071,1.6071,1.5748,1.5406,1.5046,1.4959,1.472,1.4353,0.0,0.0,0.0,1.517,1.5723,1.6386,1.658,1.6806,1.7029,1.7078,1.7116,1.7172,1.7268,1.7395,1.756,1.7943,1.8262,1.8611,1.9115,1.958,2.0005,2.0371,2.0654,2.0902,2.1051,2.1141,2.123,2.1428,2.1482,2.1499,2.1536,2.1553,2.1526,2.1425,2.1376,2.1425,2.1526,2.1553,2.159,2.1668,0.0,0.0,0.0,0.0,0.0,0.0,2.1696,2.1696,2.1696,2.1696,2.1696,2.1696,2.1778,2.1984,2.2277,2.2767,2.3187,2.348,2.3957,2.4202,2.4202,2.4202,2.3791,2.2913,2.2904,2.2501,2.1696,2.1696,2.1696,2.1723,2.2538,2.2904,2.295,2.3828,2.4202,2.4202,2.4202,2.4202,2.4238,2.4526,2.4893,2.5196,2.4792,2.4645,2.4599,1.288,1.3182,1.3536,1.3884,1.4033,1.4143,1.4206,1.4492,1.4723,1.4878,1.5024,1.5256,1.5585,1.572,1.594,1.6279,1.6565,1.6798,1.6993,1.712,1.7119,1.6976,1.6778,1.6595,1.6416,1.6087,1.5836,1.5634,1.5332,1.5078,1.4861,0.0,0.0,0.0,1.5282,1.5806,1.6373,1.6855,1.7163,1.7326,1.7326,1.7406,0.0,1.7689,1.7856,1.8047,1.8318,1.8525,1.8755,1.9148,1.9496,1.9799,2.0042,2.0314,2.0564,2.0803,2.093,2.1042,2.1195,2.1217,2.1239,2.1374,2.1387,2.1387,2.1387,2.1486,2.1571,2.1571,2.1651,2.1696,2.1696,0.0,0.0,0.0,0.0,0.0,0.0,2.1696,2.1696,2.1696,2.1696,2.1696,2.1696,2.1696,2.1778,2.203,2.24,2.2812,2.3215,2.3642,2.3993,2.4192,2.4202,2.3791,2.2913,2.2904,2.2501,2.1696,2.1696,2.1696,2.1723,2.2538,2.2904,2.295,2.3828,2.4202,2.4202,2.4202,2.4202,2.4266,2.4838,2.5306,2.5609,2.5214,2.4957,2.4746,1.3247,1.3726,1.42,1.455,1.4794,1.4906,1.4711,1.484,1.498,1.5024,1.5272,1.5621,1.5986,1.623,1.6572,1.7114,1.7372,1.759,1.7793,1.7793,1.7665,1.7379,1.7363,1.7175,1.6789,1.648,1.6301,1.6206,1.561,1.5295,0.0,0.0,0.0,0.0,1.5299,1.581,1.6271,1.7169,1.7577,1.7642,1.7704,1.779,1.7896,1.8184,1.8327,1.8406,1.8693,1.8751,1.8799,1.932,1.9519,1.9579,1.9754,1.9996,2.0246,2.0496,2.069,2.0862,2.0907,2.093,2.0975,2.0988,2.0997,2.0997,2.0997,2.1195,2.1347,2.1347,2.1495,2.162,2.1651,2.1674,2.1696,0.0,0.0,2.1696,2.1696,2.1696,2.1696,2.1696,2.1696,0.0,2.1696,2.1696,2.1696,2.1696,2.2075,2.2437,2.2803,2.3251,2.3678,2.4085,2.4174,2.3791,2.2913,2.2904,2.2501,2.1696,2.1696,2.1696,2.1723,2.2538,2.2904,2.295,2.3828,2.4202,2.4202,2.4202,2.4266,2.4431,2.5122,2.5636,2.5939,2.5544,2.515,2.4746,1.4721,1.4686,1.4777,1.5105,1.5246,1.5395,1.5628,1.5461,1.5417,1.5687,1.5775,1.6015,1.6579,1.6675,1.6924,1.7394,1.7467,1.759,1.7793,1.7793,1.7769,1.7705,1.7705,1.7546,1.7191,1.714,1.6802,1.6206,1.6087,1.5737,1.5208,0.0,0.0,1.512,1.567,1.6469,1.7451,1.8121,1.8183,1.7885,1.8216,1.8284,1.8216,1.8279,1.8478,1.8717,1.8781,1.8788,1.8794,1.8904,1.9081,1.9288,1.9302,1.9502,1.9725,1.9785,1.9936,2.0133,2.0351,2.0578,2.0781,2.0952,2.0997,2.0997,2.0997,2.1042,2.1064,2.1064,2.1109,2.1186,2.1414,2.1584,2.1696,2.1696,2.1696,2.1696,2.1696,2.1696,2.1696,2.1696,2.1696,2.1696,2.1696,2.1696,2.1696,2.1696,2.2075,2.2332,2.2405,2.3096,2.3526,2.3623,2.4002,2.3791,2.2913,2.2904,2.2501,2.1696,2.1696,2.1696,2.1723,2.2538,2.2904,2.295,2.3828,2.4202,2.4202,2.4202,2.4597,2.5196,2.5333,2.5636,2.5939,2.5544,2.515,2.4746,1.5321,1.5417,1.5584,1.5918,1.6145,1.633,1.6495,1.6383,1.6295,1.6358,1.646,1.671,1.7152,1.7332,1.7587,1.799,1.811,1.8215,1.8319,1.8319,1.824,1.8079,1.8063,1.7904,1.7562,1.7387,1.7132,1.6762,1.6389,1.6039,1.5705,1.555,1.5462,1.5497,1.6176,1.7098,1.8179,1.8324,1.8418,1.8471,1.8543,1.8554,1.855,1.855,1.8654,1.8804,1.8804,1.8804,1.8804,1.8804,1.8897,1.9027,1.9165,1.9288,1.941,1.9564,1.9671,1.9762,1.9899,2.0027,2.0141,2.0246,2.0269,2.0292,2.0419,2.0532,2.069,2.0826,2.093,2.1042,2.1172,2.1383,2.154,2.154,2.1629,2.1696,2.1696,2.1696,2.1696,2.1696,2.1696,2.1696,2.1696,2.1696,2.1696,2.1696,2.1892,2.2085,2.2295,2.2858,2.3279,2.3489,2.3966,2.3791,2.2913,2.2904,2.2501,2.1696,2.1696,2.1797,2.2039,2.2629,2.3023,2.3242,2.392,2.4202,2.4202,2.4202,2.4663,2.5379,2.5168,2.5453,2.5938,2.5315,2.4966,2.4746,1.5905,1.6196,1.6469,1.6745,1.7008,1.72,1.72,1.7306,1.7292,1.701,1.712,1.7353,1.7742,1.7978,1.8231,1.8542,1.872,1.8804,1.8804,1.8804,1.8677,1.8422,1.8414,1.8247,1.7912,1.7649,1.7443,1.7299,1.6714,1.6357,1.6198,1.5939,1.5831,1.5905,1.6694,1.7575,1.8451,1.8381,1.8576,1.8892,1.8773,1.8763,1.8804,1.8804,1.8804,1.8804,1.8804,1.8804,1.8804,1.8804,1.8804,1.885,1.9058,1.9119,1.9173,1.9373,1.9464,1.951,1.951,1.9564,1.961,1.961,1.961,1.9633,1.9799,2.0005,2.0209,2.0428,2.0668,2.0862,2.093,2.115,2.1316,2.1316,2.1441,2.1553,2.1553,2.1597,2.1651,2.1651,2.1674,2.1696,2.1696,2.1696,2.1696,2.1696,2.1696,2.1846,2.2167,2.2547,2.2959,2.3352,2.3813,2.3675,2.2913,2.2904,2.2501,2.1696,2.1801,2.198,2.2323,2.2803,2.3197,2.3541,2.4002,2.4202,2.4202,2.4202,2.4608,2.5242,2.4929,2.5186,2.5664,2.504,2.4755,2.4627,1.7133,1.7268,1.7381,1.7413,1.7494,1.7552,1.7552,1.801,1.8171,1.7598,1.7529,1.778,1.8349,1.8434,1.8535,1.8758,1.8781,1.8804,1.8804,1.8804,1.8788,1.8757,1.8757,1.859,1.8255,1.8216,1.7898,1.7299,1.7236,1.6841,1.6206,1.6174,1.6237,1.6455,1.7195,1.7703,1.8007,1.8638,1.8805,1.8671,1.9009,1.9003,1.8804,1.8804,1.8804,1.8804,1.8804,1.8804,1.8804,1.8804,1.8804,1.8804,1.8827,1.885,1.885,1.8874,1.9058,1.9234,1.9234,1.941,1.961,1.961,1.961,1.961,1.9633,1.9656,1.9679,1.9702,2.005,2.045,2.0668,2.0893,2.1042,2.1042,2.1042,2.1064,2.1064,2.1262,2.1437,2.1437,2.1584,2.1696,2.1696,2.1696,2.1696,2.1696,2.1696,2.1727,2.1742,2.2149,2.2529,2.295,2.3343,2.3343,2.2913,2.2904,2.2501,2.1696,2.2075,2.2268,2.2332,2.3087,2.3453,2.3541,2.4002,2.4202,2.4202,2.4202,2.4468,2.4856,2.4819,2.4856,2.4911,2.4838,2.4562,2.4257,1.7594,1.7814,1.7986,1.7986,1.8157,1.8316,1.8316,1.8533,1.8596,1.8362,1.8316,1.8417,1.8658,1.8674,1.872,1.8781,1.8804,1.8804,1.8804,1.8804,1.8804,1.8804,1.8804,1.8741,1.8598,1.8406,1.8168,1.789,1.7705,1.7451,1.7164,1.7164,1.7277,1.7461,1.7773,1.8145,1.857,1.8703,1.8836,1.897,1.8956,1.8897,1.8804,1.8804,1.8804,1.8804,1.8804,1.8804,1.8804,1.8804,1.8804,1.8804,1.8804,1.8804,1.8804,1.8804,1.8874,1.8966,1.8966,1.9035,1.9112,1.9112,1.9112,1.9158,1.9319,1.9365,1.941,1.9564,1.9739,1.9936,2.0178,2.0419,2.0623,2.0803,2.093,2.0997,2.0997,2.1096,2.1172,2.1172,2.136,2.1526,2.1526,2.1629,2.1696,2.1696,2.1696,2.1696,2.1696,2.2085,2.2474,2.2895,2.3059,2.3068,2.2904,2.2657,2.2387,2.2066,2.2222,2.2552,2.3023,2.3343,2.3651,2.3923,2.4128,2.4202,2.4202,2.4202,2.445,2.4783,2.4526,2.4581,2.4773,2.4526,2.4349,2.4202,1.8171,1.8483,1.8725,1.859,1.8752,1.8897,1.8804,1.8804,1.8804,1.8804,1.8804,1.8804,1.8804,1.8804,1.8804,1.8804,1.8804,1.8804,1.8804,1.8804,1.8804,1.8804,1.8804,1.8804,1.8804,1.8558,1.8406,1.8295,1.8071,1.7896,1.7793,1.7793,1.788,1.8026,1.8109,1.8404,1.8781,1.8707,1.8825,1.9081,1.8874,1.8804,1.8804,1.8804,1.8804,1.8804,1.8804,1.8804,1.8804,1.8804,1.8804,1.8804,1.8804,1.8804,1.8804,1.8804,1.8804,1.8804,1.8804,1.8804,1.8804,1.8804,1.8804,1.885,1.9027,1.9073,1.9173,1.9442,1.9487,1.9548,1.9777,1.9959,2.0164,2.0346,2.0496,2.0623,2.0659,2.0749,2.0817,2.0907,2.1127,2.1316,2.1392,2.1517,2.1651,2.1696,2.1696,2.1696,2.1696,2.1975,2.2323,2.2712,2.2721,2.2785,2.2904,2.2611,2.2488,2.2488,2.2607,2.294,2.3499,2.3642,2.3877,2.4202,2.4202,2.4202,2.4202,2.4202,2.4376,2.459,2.4321,2.436,2.459,2.4312,2.4202,2.4202,1.9032,1.9465,1.9737,1.9271,1.9188,1.9104,1.885,1.8804,1.8804,1.8804,1.8804,1.8804,1.8804,1.8804,1.8804,1.8804,1.8804,1.8804,1.8804,1.8804,1.8804,1.8804,1.8804,1.8804,1.8804,1.8804,1.863,1.8295,1.8295,1.8112,1.7793,1.7793,1.7793,1.783,1.8158,1.8295,1.8319,1.8654,1.8804,1.8804,1.8804,1.8804,1.8804,1.8804,1.8804,1.8804,1.8804,1.8804,1.8804,1.8804,1.8804,1.8804,1.8804,1.8804,1.8804,1.8804,1.8804,1.8804,1.8804,1.8804,1.8804,1.8804,1.8804,1.8804,1.8804,1.8804,1.8874,1.9142,1.9211,1.9288,1.9556,1.961,1.961,1.961,1.961,1.9693,1.9891,2.0133,2.0405,2.0677,2.0893,2.1118,2.1369,2.1392,2.1482,2.1696,2.1696,2.1696,2.1696,2.1696,2.1901,2.2295,2.2304,2.2492,2.2904,2.2904,2.2904,2.2904,2.3297,2.348,2.3532,2.3984,2.4192,2.4202,2.4202,2.4202,2.4202,2.4202,2.4211,2.4211,2.4202,2.4211,2.4211,2.4202,2.4202,2.4202,1.9669,1.9784,1.9822,1.9525,1.9594,1.9608,1.9373,1.9456,1.9448,1.9104,1.9073,1.9012,1.8827,1.8804,1.8804,1.8804,1.8804,1.8804,1.8804,1.8804,1.8804,1.8804,1.8804,1.8804,1.8804,1.8804,1.8749,1.8638,1.8638,1.8582,1.8471,1.8471,1.8471,1.8494,1.8582,1.8638,1.8646,1.8757,1.8804,1.8804,1.8804,1.8804,1.8804,1.8804,1.8804,1.8804,1.8804,1.8804,1.8804,1.8804,1.8804,1.8804,1.8804,1.8804,1.8804,1.8804,1.8804,1.8804,1.8804,1.8804,1.8804,1.8804,1.8804,1.8804,1.8804,1.8804,1.8827,1.892,1.892,1.9012,1.9288,1.9333,1.9387,1.9564,1.961,1.961,1.9693,1.9762,1.9914,2.0133,2.0374,2.069,2.1096,2.1293,2.1482,2.1674,2.1696,2.1696,2.1696,2.1696,2.2007,2.2684,2.2428,2.2611,2.3297,2.3041,2.3041,2.3306,2.3435,2.366,2.3984,2.4137,2.4202,2.4202,2.4202,2.4202,2.4202,2.4202,2.4202,2.4202,2.4202,2.4202,2.4202,2.4202,2.4202,2.4202,2.0527,2.0518,2.0428,1.9936,2.005,2.0073,1.9648,1.9762,1.9723,1.9256,1.9211,1.9096,1.8827,1.8804,1.8804,1.8804,1.8804,1.8804,1.8804,1.8804,1.8804,1.8804,1.8804,1.8804,1.8804,1.8804,1.8804,1.8804,1.8897,1.8958,1.8958,1.9043,1.9089,1.9089,1.9089,1.9089,1.9089,1.9089,1.9089,1.9089,1.8989,1.8958,1.8943,1.885,1.8804,1.8804,1.8804,1.8804,1.8804,1.8804,1.8804,1.8804,1.8804,1.8804,1.8804,1.8804,1.8804,1.8804,1.8804,1.8804,1.8804,1.8804,1.8804,1.8804,1.8804,1.8804,1.8804,1.8804,1.8804,1.885,1.9027,1.9058,1.9104,1.9281,1.9304,1.9327,1.9433,1.9442,1.9548,1.986,2.0042,2.0374,2.0952,2.1141,2.1374,2.1674,2.1696,2.1696,2.1696,2.1696,2.1998,2.2648,2.2442,2.2698,2.348,2.3251,2.3349,2.3767,2.3767,2.3929,2.4202,2.4202,2.4202,2.4202,2.4202,2.4202,2.4202,2.4202,2.4202,2.4202,2.4202,2.4202,2.4202,2.4202,2.4202,2.422,2.1504,2.1549,2.1396,2.045,2.0541,2.0473,1.9785,1.9868,1.9837,1.9371,1.9302,1.9188,1.892,1.8874,1.885,1.8827,1.8804,1.8804,1.8804,1.8804,1.8804,1.8804,1.8804,1.8804,1.8804,1.8804,1.8804,1.8827,1.9104,1.9234,1.9234,1.9487,1.961,1.961,1.961,1.9604,1.962,1.962,1.9637,1.9639,1.9407,1.9307,1.9269,1.9015,1.8899,1.8899,1.8876,1.8876,1.8876,1.8876,1.886,1.8844,1.8844,1.882,1.8804,1.8804,1.8804,1.8804,1.8804,1.8804,1.8804,1.8804,1.8804,1.8804,1.8804,1.8804,1.8804,1.8804,1.8804,1.8804,1.8804,1.8804,1.8804,1.8804,1.8804,1.8897,1.9142,1.9165,1.9356,1.9814,1.9882,2.017,2.093,2.0997,2.1177,2.1674,2.1696,2.1705,2.1733,2.1733,2.1938,2.2332,2.2369,2.2762,2.3526,2.3535,2.3776,2.4202,2.4202,2.4202,2.4202,2.4202,2.4202,2.4202,2.4202,2.4202,2.4202,2.4202,2.4202,2.4202,2.4202,2.4202,2.4202,2.4202,2.422,2.4303,2.1549,2.1437,2.1226,2.0428,2.0645,2.0826,2.0496,2.0776,2.0888,2.0405,2.0337,2.0155,1.97,1.9631,1.9494,1.9142,1.892,1.8804,1.8804,1.8804,1.8804,1.8804,1.8804,1.8804,1.8804,1.8804,1.8897,1.9104,1.9365,1.951,1.951,1.9564,1.961,1.961,1.961,1.9728,1.9975,1.9975,2.0164,2.0437,2.0381,2.0333,2.0333,2.0046,1.9926,1.9926,1.9718,1.9646,1.9646,1.9646,1.9479,1.9272,1.9272,1.905,1.8804,1.8804,1.8804,1.8804,1.8804,1.8804,1.8804,1.8804,1.8804,1.8804,1.8804,1.8804,1.8804,1.8804,1.8804,1.8804,1.8804,1.8804,1.8804,1.8804,1.8804,1.8827,1.8897,1.8897,1.9081,1.9602,1.9671,2.0027,2.0907,2.0997,2.1177,2.1674,2.1696,2.1824,2.2149,2.2167,2.2327,2.2748,2.305,2.3477,2.403,2.403,2.4085,2.4202,2.4202,2.4202,2.4202,2.4202,2.4202,2.4202,2.4202,2.4202,2.4202,2.4202,2.4202,2.4202,2.4202,2.4202,2.4202,2.4202,2.4379,2.4672,2.1861,2.1616,2.1316,2.0609,2.088,2.1082,2.0744,2.1091,2.1235,2.0767,2.0699,2.0496,1.9951,1.9905,1.97,1.9234,1.9081,1.8935,1.8804,1.8804,1.8804,1.8804,1.8804,1.8945,1.9252,1.926,1.945,1.9902,2.0145,2.0356,2.0473,2.0566,2.0674,2.0791,2.0791,2.0902,2.1049,2.1049,2.113,2.1182,2.1094,2.0998,2.0853,2.0572,2.0475,2.0451,2.0176,2.0071,2.0071,1.9941,1.9765,1.9622,1.9622,1.9487,1.9272,1.9121,1.8939,1.8804,1.8804,1.8804,1.8804,1.8804,1.8804,1.8804,1.8804,1.8804,1.8804,1.8804,1.8804,1.8804,1.8804,1.8804,1.8804,1.8804,1.8804,1.8804,1.8804,1.8804,1.8997,1.9541,1.961,1.9959,2.0907,2.0997,2.1177,2.1674,2.1696,2.1883,2.2277,2.2465,2.2748,2.316,2.338,2.3739,2.4202,2.4202,2.4202,2.4202,2.4202,2.4202,2.4202,2.4202,2.4202,2.4202,2.4202,2.4202,2.4202,2.4202,2.4202,2.4202,2.4202,2.4321,2.4461,2.4461,2.4728,2.5104,2.2207,2.1919,2.1553,2.0925,2.1159,2.1325,2.097,2.1248,2.136,2.1006,2.0969,2.0832,2.0377,2.036,2.0157,1.965,1.9558,1.9348,1.8915,1.8939,1.8986,1.901,1.9033,1.9317,1.9914,1.9993,2.026,2.0805,2.107,2.1326,2.1613,2.1772,2.1977,2.2191,2.2191,2.2227,2.2289,2.2289,2.2196,2.2042,2.1858,2.1626,2.136,2.1069,2.0947,2.0874,2.0606,2.0492,2.0419,2.0199,2.0061,1.9972,1.9972,1.9932,1.9837,1.955,1.9225,1.8939,1.8828,1.8804,1.8804,1.8804,1.8804,1.8804,1.8804,1.8804,1.8804,1.8804,1.8804,1.8804,1.8804,1.8804,1.8804,1.8804,1.8804,1.8804,1.8804,1.8827,1.9035,1.9541,1.9633,2.0005,2.0907,2.0997,2.1177,2.1674,2.1696,2.1888,2.2378,2.2712,2.3114,2.3596,2.3614,2.3804,2.4202,2.4202,2.4202,2.4202,2.4202,2.4202,2.4202,2.4202,2.4202,2.4202,2.4202,2.4202,2.4202,2.4202,2.4238,2.4293,2.4293,2.4535,2.4902,2.4902,2.515,2.5535,2.2274,2.2074,2.1874,2.1369,2.1495,2.1718,2.1852,2.1941,2.203,2.2122,2.2273,2.2372,2.2281,2.2423,2.2234,2.1535,2.1274,2.0616,1.9375,1.9574,1.983,2.0063,2.0071,2.0208,2.0554,2.077,2.1059,2.1383,2.1589,2.1843,2.2081,2.212,2.2167,2.2191,2.2191,2.2386,2.2706,2.2706,2.2877,2.3145,2.312,2.2946,2.2672,2.233,2.2088,2.1862,2.1585,2.1341,2.113,2.1113,2.0727,2.0313,2.0313,2.0131,1.9877,1.9853,1.9773,1.9598,1.8963,1.8804,1.8804,1.8804,1.8804,1.8804,1.8804,1.8804,1.8804,1.8804,1.8804,1.8804,1.8804,1.8804,1.8804,1.8804,1.8804,1.8804,1.8804,1.9012,1.9242,1.9564,1.9762,2.0155,2.093,2.0997,2.1177,2.1674,2.1696,2.2016,2.2776,2.2876,2.3266,2.4058,2.4085,2.4137,2.4202,2.4202,2.4202,2.4202,2.4202,2.4202,2.4202,2.4202,2.4202,2.4202,2.4202,2.4202,2.4202,2.4202,2.4388,2.4709,2.4709,2.4957,2.5306,2.5306,2.5554,2.5929,2.2375,2.2163,2.1985,2.1607,2.1763,2.2037,2.2363,2.2558,2.2755,2.3053,2.3183,2.3213,2.3098,2.3033,2.2697,2.1947,2.1812,2.1362,2.0435,2.0354,2.0386,2.0523,2.0523,2.08,2.1397,2.1878,2.2251,2.2521,2.261,2.2806,2.305,2.305,2.3147,2.3268,2.3268,2.3377,2.3558,2.3558,2.3592,2.3621,2.3621,2.3447,2.3197,2.3038,2.2812,2.2535,2.2232,2.1954,2.17,2.1394,2.1111,2.0848,2.0704,2.0567,2.04,2.0226,2.0036,1.9781,1.9256,1.9121,1.9074,1.8852,1.8804,1.8804,1.8804,1.8804,1.8804,1.8804,1.8804,1.8804,1.8804,1.8804,1.8804,1.8804,1.8804,1.8804,1.8804,1.9027,1.9288,1.9564,1.9914,2.0351,2.0952,2.1118,2.1351,2.1674,2.1888,2.2272,2.2876,2.3114,2.3523,2.4183,2.4202,2.4202,2.4202,2.4202,2.4202,2.4211,2.4406,2.4516,2.4526,2.4737,2.4863,2.4863,2.4863,2.4863,2.4863,2.4863,2.4948,2.5122,2.5122,2.5361,2.571,2.571,2.5976,2.6325,2.2706,2.253,2.2391,2.2307,2.2459,2.2712,2.3119,2.3322,2.3538,2.382,2.3898,2.3894,2.381,2.3636,2.3264,2.2556,2.2491,2.2264,2.1752,2.1474,2.1225,2.103,2.1161,2.1571,2.2312,2.2839,2.3222,2.3497,2.3497,2.3621,2.3895,2.3895,2.4003,2.4202,2.4202,2.4202,2.4202,2.4202,2.4078,2.3895,2.3895,2.3721,2.3497,2.3497,2.3297,2.2971,2.2711,2.2375,2.203,2.1547,2.1343,2.1249,2.0968,2.0899,2.0843,2.0599,2.0321,2.0044,1.9622,1.9511,1.9447,1.9137,1.8987,1.8931,1.8931,1.8868,1.8804,1.8804,1.8804,1.8804,1.8804,1.8804,1.8804,1.8804,1.8804,1.8804,1.8804,1.9081,1.9365,1.9587,2.0073,2.0555,2.0952,2.1248,2.1518,2.1824,2.213,2.2524,2.3014,2.3325,2.373,2.4192,2.4202,2.4202,2.4202,2.4202,2.4248,2.4333,2.4654,2.4856,2.4957,2.526,2.5398,2.5398,2.5398,2.5398,2.5398,2.5398,2.5453,2.5535,2.5535,2.5783,2.6132,2.6132,2.6334,2.6591,2.3416,2.3416,2.3523,2.395,2.4019,2.4167,2.4569,2.45,2.4404,2.4345,2.4498,2.4726,2.4949,2.5068,2.492,2.4371,2.4103,2.3741,2.3277,2.3201,2.2834,2.2022,2.2533,2.2976,2.3302,2.3363,2.3497,2.3771,2.3771,2.3904,2.4177,2.4177,2.4177,2.4202,2.4202,2.4202,2.4202,2.4202,2.4177,2.4177,2.4177,2.4003,2.3771,2.3771,2.3456,2.2996,2.2971,2.2585,2.2047,2.1776,2.1496,2.1249,2.0968,2.0899,2.0891,2.0867,2.0836,2.0694,2.0036,1.9853,1.9869,1.9821,1.9582,1.936,1.936,1.9074,1.8804,1.8804,1.8804,1.8804,1.8804,1.8804,1.8804,1.8804,1.8804,1.8804,1.8804,1.9227,1.9587,1.961,2.0232,2.0758,2.0975,2.1248,2.1635,2.2208,2.2286,2.2643,2.3407,2.348,2.373,2.4192,2.4202,2.4202,2.4202,2.4202,2.4395,2.4764,2.4792,2.5003,2.5352,2.5388,2.5398,2.5398,2.5398,2.5398,2.5398,2.5398,2.5609,2.5966,2.5966,2.6196,2.6572,2.6572,2.6564,2.6591,2.4467,2.455,2.4671,2.5017,2.5075,2.5159,2.5371,2.5372,2.5401,2.567,2.5777,2.5853,2.5958,2.5712,2.5411,2.5035,2.4603,2.4208,2.3861,2.3687,2.3388,2.2946,2.3122,2.3372,2.3646,2.3655,2.378,2.4053,2.4053,2.4102,2.4202,2.4202,2.4202,2.4202,2.4202,2.4202,2.4202,2.4202,2.4202,2.4202,2.4202,2.4152,2.4053,2.4053,2.373,2.3247,2.3247,2.2896,2.2342,2.1852,2.1623,2.1471,2.1045,2.0899,2.0899,2.0899,2.0899,2.0836,2.0591,2.0361,2.0163,1.994,1.9797,1.9702,1.9702,1.9431,1.9161,1.9161,1.8963,1.8804,1.8804,1.8804,1.8804,1.8804,1.8804,1.885,1.9027,1.9365,1.9656,1.9762,2.0442,2.1004,2.1343,2.1744,2.2167,2.2638,2.2895,2.3193,2.348,2.3785,2.4021,2.4192,2.4202,2.4202,2.4202,2.4459,2.4654,2.481,2.5306,2.5618,2.5774,2.6031,2.6123,2.6123,2.6123,2.6123,2.6123,2.6123,2.6242,2.6371,2.6371,2.6472,2.6591,2.6591,2.6591,2.6591,2.5315,2.5559,2.5754,2.6078,2.6138,2.6202,2.6339,2.6364,2.6428,2.659,2.664,2.6592,2.652,2.6173,2.5849,2.5562,2.5206,2.4849,2.4504,2.4158,2.3811,2.3546,2.353,2.3646,2.3929,2.3929,2.4028,2.4202,2.4202,2.4202,2.4202,2.4202,2.4275,2.4404,2.4404,2.4468,2.4587,2.4587,2.4587,2.4587,2.4587,2.4587,2.4587,2.4587,2.4226,2.3736,2.3736,2.3405,2.2869,2.2373,2.2066,2.1804,2.1367,2.1063,2.0899,2.0899,2.0899,2.0899,2.0899,2.0717,2.0496,2.0282,2.0131,2.0059,2.0059,1.9797,1.955,1.955,1.9328,1.9153,1.9153,1.9153,1.9153,1.9153,1.9231,1.9349,1.9513,1.9848,2.015,2.0374,2.098,2.1522,2.1867,2.2265,2.2671,2.3059,2.3343,2.3544,2.3706,2.403,2.4202,2.4202,2.4202,2.4266,2.4395,2.4663,2.4929,2.5186,2.5728,2.6085,2.6196,2.6481,2.6591,2.6591,2.6591,2.6591,2.6591,2.6591,2.6591,2.6591,2.6591,2.6591,2.6591,2.6591,2.6591,2.6591,2.588,2.6339,2.683,2.7233,2.7308,2.7386,2.7558,2.7607,2.7441,2.6979,2.6907,2.6812,2.6544,2.652,2.64,2.6115,2.6115,2.5883,2.5333,2.4809,2.4291,2.3829,2.3805,2.3929,2.4202,2.4202,2.4202,2.4211,2.4211,2.4211,2.4211,2.4211,2.4406,2.481,2.481,2.503,2.5398,2.5398,2.5398,2.5398,2.5398,2.5398,2.5398,2.5398,2.5024,2.4508,2.4508,2.4167,2.3665,2.34,2.2847,2.2269,2.1989,2.1452,2.0907,2.0899,2.0899,2.0899,2.0899,2.0899,2.0899,2.0899,2.0655,2.04,2.04,2.0147,1.9892,1.9892,1.9892,1.9892,1.9892,1.9892,1.9892,1.9892,2.0127,2.0305,2.0305,2.0765,2.1191,2.1478,2.1915,2.2319,2.2579,2.2786,2.3068,2.3471,2.3499,2.3706,2.4183,2.4202,2.4202,2.4202,2.4211,2.4388,2.481,2.481,2.5214,2.6012,2.5994,2.6215,2.6591,2.6591,2.6591,2.6591,2.6591,2.6591,2.6591,2.6591,2.6591,2.6591,2.6591,2.6591,2.6591,2.6591,2.6591,2.6591,2.7189,2.7506,2.772,2.8023,2.8075,2.8036,2.7906,2.788,2.7833,2.7691,2.7657,2.7634,2.7573,2.7394,2.7228,2.7156,2.6979,2.6596,2.5907,2.5348,2.4966,2.4713,2.4324,2.4127,2.4202,2.4202,2.4349,2.4617,2.4617,2.4764,2.503,2.503,2.5104,2.5223,2.5223,2.5287,2.5398,2.5398,2.5398,2.5398,2.5398,2.5398,2.5398,2.5398,2.5154,2.4805,2.4587,2.4272,2.3903,2.3453,2.3006,2.257,2.21,2.1841,2.1626,2.1335,2.1238,2.1216,2.0962,2.0899,2.0899,2.0899,2.082,2.074,2.074,2.0488,2.0258,2.0258,2.0059,1.9892,1.9892,1.9892,1.9965,2.0152,2.0257,2.0427,2.0814,2.1166,2.1446,2.1676,2.2176,2.2625,2.2985,2.3205,2.3514,2.3966,2.3993,2.4048,2.4192,2.4202,2.4202,2.4202,2.4461,2.481,2.5214,2.5223,2.548,2.5994,2.6288,2.6463,2.6591,2.6591,2.6591,2.6591,2.6591,2.6591,2.6591,2.6591,2.6591,2.6591,2.6591,2.6591,2.6591,2.6591,2.6793,2.7031,2.7859,2.8166,2.8372,2.8527,2.8558,2.8501,2.835,2.8326,2.8279,2.8162,2.8173,2.8115,2.8011,2.7857,2.7773,2.7773,2.7489,2.7028,2.6373,2.5901,2.5538,2.5224,2.4859,2.4663,2.4663,2.4663,2.4783,2.504,2.504,2.5159,2.5398,2.5398,2.548,2.5636,2.5636,2.5719,2.5875,2.5875,2.5875,2.5875,2.5875,2.5875,2.5875,2.5875,2.5689,2.5414,2.5219,2.4889,2.4478,2.4164,2.3685,2.3077,2.2374,2.2172,2.2097,2.1738,2.1629,2.155,2.1201,2.1105,2.1074,2.0931,2.0899,2.0899,2.0899,2.0724,2.0599,2.0599,2.0432,2.0331,2.043,2.0455,2.0529,2.0818,2.0941,2.1131,2.145,2.1843,2.2184,2.2419,2.2807,2.3196,2.3547,2.3712,2.3886,2.4183,2.4202,2.4202,2.4202,2.4358,2.445,2.445,2.4829,2.5232,2.5627,2.5636,2.5838,2.6242,2.6463,2.6591,2.6591,2.6591,2.6591,2.6591,2.6591,2.6591,2.6591,2.6591,2.6591,2.6591,2.6591,2.6591,2.6609,2.6793,2.7004,2.7224,2.8056,2.8451,2.8803,2.8803,2.8803,2.8803,2.8803,2.8803,2.871,2.8465,2.8441,2.8337,2.8092,2.81,2.8122,2.8122,2.7824,2.7408,2.6844,2.6438,2.601,2.5496,2.5479,2.5462,2.5508,2.5434,2.5416,2.5453,2.5453,2.5471,2.5508,2.5508,2.5691,2.604,2.604,2.6251,2.6591,2.6591,2.6591,2.6591,2.6591,2.6591,2.6591,2.6591,2.6418,2.6154,2.6099,2.5761,2.5276,2.5193,2.4592,2.3706,2.2797,2.253,2.2468,2.2175,2.2086,2.1987,2.1565,2.1444,2.1357,2.1034,2.0947,2.0939,2.0907,2.0899,2.0899,2.0899,2.0899,2.0968,2.1249,2.13,2.1394,2.17,2.1954,2.2106,2.2148,2.2661,2.3122,2.3372,2.3646,2.3929,2.4177,2.4202,2.4202,2.4202,2.4202,2.422,2.4257,2.4599,2.4829,2.4856,2.5242,2.5618,2.6012,2.6048,2.6233,2.6591,2.6591,2.6591,2.6591,2.6591,2.6591,2.6591,2.6591,2.6591,2.6591,2.6591,2.6591,2.6591,2.6591,2.6609,2.671,2.7068,2.7252,2.7371,2.8551,2.8727,2.8803,2.8803,2.8803,2.8803,2.8803,2.8803,2.878,2.871,2.871,2.8687,2.864,2.8943,2.9182,2.9182,2.8879,2.8353,2.7613,2.6892,2.6401,2.6191,2.5962,2.6013,2.6316,2.5728,2.5544,2.5857,2.5857,2.6022,2.6352,2.6352,2.6398,2.6481,2.6481,2.6536,2.6591,2.6591,2.6591,2.6591,2.6591,2.6591,2.6591,2.6591,2.6555,2.6473,2.6181,2.6017,2.5789,2.5119,2.4605,2.4186,2.3734,2.3562,2.3458,2.2889,2.2691,2.2591,2.2022,2.1873,2.1793,2.1399,2.1285,2.1206,2.0955,2.0899,2.0899,2.0899,2.0899,2.0968,2.1249,2.13,2.1445,2.1954,2.2047,2.2182,2.2443,2.2971,2.3322,2.3397,2.3829,2.4152,2.4202,2.4202,2.4202,2.4202,2.4202,2.4349,2.4654,2.4755,2.4948,2.526,2.5655,2.5902,2.6012,2.6315,2.6499,2.6591,2.6591,2.6591,2.6591,2.6591,2.6591,2.6591,2.6591,2.6591,2.6591,2.6591,2.6591,2.6591,2.6591,2.6802,2.7086,2.7169,2.761,2.8187,2.8749,2.8803,2.8803,2.8803,2.8803,2.8803,2.8803,2.8803,2.8891,2.9097,2.9119,2.9217,2.9447,2.9698,2.9731,2.9464,2.9008,2.8411,2.7706,2.71,2.6687,2.6494,2.6369,2.6389,2.6609,2.6196,2.6086,2.6288,2.6288,2.6398,2.6591,2.6591,2.6591,2.6591,2.6591,2.6591,2.6591,2.6591,2.6591,2.6591,2.6591,2.6591,2.6591,2.6591,2.6591,2.6591,2.6391,2.6245,2.6017,2.5431,2.5045,2.4712,2.4406,2.4248,2.4055,2.3515,2.3375,2.3265,2.2798,2.2673,2.2592,2.2209,2.2006,2.1711,2.1036,2.0899,2.0899,2.0899,2.0899,2.1019,2.142,2.1496,2.1674,2.2257,2.2333,2.2384,2.2569,2.3046,2.3397,2.3397,2.387,2.4202,2.4202,2.4202,2.4284,2.4461,2.448,2.4654,2.5067,2.5269,2.5462,2.5673,2.6077,2.6288,2.6288,2.6481,2.6591,2.6591,2.6591,2.6591,2.6591,2.6591,2.6591,2.6591,2.6591,2.6591,2.6591,2.6591,2.6591,2.6637,2.6793,2.7022,2.7252,2.7646,2.815,2.87,2.8803,2.8803,2.8803,2.8803,2.8803,2.8825,2.8913,2.8924,2.9099,2.9567,2.9609,2.9762,3.0093,3.0103,2.9919,2.9387,2.8804,2.8179,2.7524,2.717,2.689,2.6618,2.6591,2.6591,2.6591,2.6591,2.6591,2.6591,2.6591,2.6591,2.6591,2.6591,2.6591,2.6591,2.6591,2.6591,2.6591,2.6591,2.6591,2.6591,2.6591,2.6591,2.6591,2.6591,2.6591,2.6591,2.6591,2.6391,2.6072,2.5852,2.556,2.5257,2.5036,2.4768,2.4479,2.4136,2.4024,2.3911,2.3577,2.3494,2.3403,2.3058,2.2718,2.2244,2.1372,2.1078,2.0986,2.0986,2.0939,2.1045,2.1547,2.1674,2.1878,2.2443,2.2594,2.2669,2.2669,2.3122,2.3481,2.3481,2.3904,2.4229,2.4303,2.4312,2.4486,2.4874,2.4911,2.5086,2.548,2.5811,2.6013,2.6095,2.6435,2.6591,2.6591,2.6591,2.6591,2.6591,2.6591,2.6591,2.6591,2.6591,2.6591,2.6591,2.6591,2.6591,2.6618,2.6664,2.6692,2.6729,2.7151,2.7343,2.75,2.8223,2.87,2.8955,2.8803,2.8803,2.8803,2.8803,2.8803,2.8946,2.9338,2.9414,2.9565,3.0046,3.0111,3.0046,2.9877,2.9799,2.9608,2.9183,2.8843,2.8317,2.7471,2.7141,2.689,2.6618,2.6591,2.6591,2.6591,2.6591,2.6591,2.6591,2.6591,2.6591,2.6591,2.6591,2.6591,2.6591,2.6591,2.6591,2.6591,2.6591,2.6591,2.6591,2.6591,2.6591,2.6591,2.6591,2.6591,2.6591,2.6591,2.6391,2.6099,2.6072,2.5852,2.5624,2.5596,2.534,2.5036,2.4759,2.4526,2.4256,2.3919,2.3819,2.3756,2.3412,2.3067,2.2716,2.2277,2.1743,2.1325,2.1325,2.1105,2.0994,2.13,2.1547,2.1801,2.2131,2.2619,2.2946,2.2946,2.3406,2.3755,2.3755,2.4003,2.4349,2.4691,2.4728,2.4893,2.5287,2.5315,2.5489,2.5911,2.5958,2.615,2.6517,2.6554,2.6591,2.6591,2.6591,2.6591,2.6591,2.6591,2.6591,2.6591,2.6591,2.6591,2.6591,2.6591,2.6591,2.6646,2.6986,2.7123,2.716,2.7555,2.794,2.8287,2.8737,2.8968,2.8955,2.835,2.8477,2.8581,2.8581,2.8916,2.9214,2.9265,2.9512,2.9775,3.0102,3.0131,3.0138,3.0153,2.9678,2.9172,2.8688,2.8254,2.7745,2.7206,2.6917,2.6718,2.6618,2.6591,2.6591,2.6591,2.6591,2.6591,2.6591,2.6591,2.6591,2.6591,2.6591,2.6591,2.6591,2.6591,2.6591,2.6591,2.6591,2.6591,2.6591,2.6591,2.6591,2.6591,2.6591,2.6591,2.6591,2.6591,2.65,2.6391,2.6391,2.619,2.5935,2.5935,2.5587,2.5165,2.5055,2.4823,2.4599,2.4451,2.4395,2.4362,2.4221,2.3812,2.3466,2.3503,2.2847,2.2135,2.1801,2.174,2.1812,2.2092,2.238,2.2608,2.2664,2.3212,2.3538,2.3363,2.3998,2.4524,2.4678,2.4805,2.4929,2.5122,2.5141,2.5297,2.5691,2.5754,2.5902,2.6315,2.6343,2.6426,2.6582,2.6591,2.6591,2.6591,2.6591,2.6591,2.6591,2.6591,2.6591,2.6591,2.6591,2.6591,2.66,2.6848,2.694,2.6976,2.7371,2.7536,2.7573,2.7986,2.837,2.8775,2.892,2.9014,2.8925]},{"header":{"parameterUnit":"m.s-1","parameterCategory":1,"la1":30.6,"la2":28.766,"lo1":-90.7593,"lo2":-88.6598,"dy":0.0162,"dx":0.0183,"nx":116,"ny":114,"refTime":"2024-06-12T00:00:00:Z","depth":0,"parameterNumber":3,"parameterNumberName":"V-component_of_WINDS"},"data":[0.0,0.0,0.0,0.0,0.0,0.0,0.0,0.0,0.0,0.0,0.0,0.0,0.0,0.0,0.0,0.0,0.0,0.0,0.0,0.0,0.0,0.0,0.0,0.0,0.0,0.0,0.0,0.0,0.0,0.0,0.0,0.0,0.0,0.0,0.0,0.0,0.0,0.0,0.0,0.0,0.0,0.0,0.0,0.0,0.0,0.0,0.0,0.0,0.0,0.0,0.0,0.0,0.0,0.0,0.0,0.0,0.0,0.0,0.0,0.0,0.0,0.0,0.0,0.0,0.0,0.0,0.0,0.0,0.0,0.0,0.0,0.0,0.0,0.0,0.0,0.0,0.0,0.0,0.0,0.0,0.0,0.0,0.0,0.0,0.0,0.0,0.0,0.0,0.0,0.0,0.0,0.0,0.0,0.0,0.0,0.0,0.0,0.0,0.0,0.0,0.0,0.0,0.0,0.0,0.0,0.0,0.0,0.0,0.0,0.0,0.0,0.0,0.0,0.0,0.0,0.0,0.0,0.0,0.0,0.0,0.0,0.0,0.0,0.0,0.0,0.0,0.0,0.0,0.0,0.0,0.0,0.0,0.0,0.0,0.0,0.0,0.0,0.0,0.0,0.0,0.0,0.0,0.0,0.0,0.0,0.0,0.0,0.0,0.0,0.0,0.0,0.0,0.0,0.0,0.0,0.0,0.0,0.0,0.0,0.0,0.0,0.0,0.0,0.0,0.0,0.0,0.0,0.0,0.0,0.0,0.0,0.0,0.0,0.0,0.0,0.0,0.0,0.0,0.0,0.0,0.0,0.0,0.0,0.0,0.0,0.0,0.0,0.0,0.0,0.0,0.0,0.0,0.0,0.0,0.0,0.0,0.0,0.0,0.0,0.0,0.0,0.0,0.0,0.0,0.0,0.0,0.0,0.0,0.0,0.0,0.0,0.0,0.0,0.0,0.0,0.0,0.0,0.0,0.0,0.0,0.0,0.0,0.0,0.0,0.0,0.0,0.0,0.0,0.0,0.0,0.0,0.0,0.0,0.0,0.0,0.0,0.0,0.0,0.0,0.0,0.0,0.0,0.0,0.0,0.0,0.0,0.0,0.0,0.0,0.0,0.0,0.0,0.0,0.0,0.0,0.0,0.0,0.0,0.0,0.0,0.0,0.0,0.0,0.0,0.0,0.0,0.0,0.0,0.0,0.0,0.0,0.0,0.0,0.0,0.0,0.0,0.0,0.0,0.0,0.0,0.0,0.0,0.0,0.0,0.0,0.0,0.0,0.0,0.0,0.0,0.0,0.0,0.0,0.0,0.0,0.0,0.0,0.0,0.0,0.0,0.0,0.0,0.0,0.0,0.0,0.0,0.0,0.0,0.0,0.0,0.0,0.0,0.0,0.0,0.0,0.0,0.0,0.0,0.0,0.0,0.0,0.0,0.0,0.0,0.0,0.0,0.0,0.0,0.0,0.0,0.0,0.0,0.0,0.0,0.0,0.0,0.0,0.0,0.0,0.0,0.0,0.0,0.0,0.0,0.0,0.0,0.0,0.0,0.0,0.0,0.0,0.0,0.0,0.0,0.0,0.0,0.0,0.0,0.0,0.0,0.0,0.0,0.0,0.0,0.0,0.0,0.0,0.0,0.0,0.0,0.0,0.0,0.0,0.0,0.0,0.0,0.0,0.0,0.0,0.0,0.0,0.0,0.0,0.0,0.0,0.0,0.0,0.0,0.0,0.0,0.0,0.0,0.0,0.0,0.0,0.0,0.0,0.0,0.0,0.0,0.0,0.0,0.0,0.0,0.0,0.0,0.0,0.0,0.0,0.0,0.0,0.0,0.0,0.0,0.0,0.0,0.0,0.0,0.0,0.0,0.0,0.0,0.0,0.0,0.0,0.0,0.0,0.0,0.0,0.0,0.0,0.0,0.0,0.0,0.0,0.0,0.0,0.0,0.0,0.0,0.0,0.0,0.0,0.0,0.0,0.0,0.0,0.0,0.0,0.0,0.0,0.0,0.0,0.0,0.0,0.0,0.0,0.0,0.0,0.0,0.0,0.0,0.0,0.0,0.0,0.0,0.0,0.0,0.0,0.0,0.0,0.0,0.0,0.0,0.0,0.0,0.0,0.0,0.0,0.0,0.0,0.0,0.0,0.0,0.0,0.0,0.0,0.0,0.0,0.0,0.0,0.0,0.0,0.0,0.0,0.0,0.0,0.0,0.0,0.0,0.0,0.0,0.0,0.0,0.0,0.0,0.0,0.0,0.0,0.0,0.0,0.0,0.0,0.0,0.0,0.0,0.0,0.0,0.0,0.0,0.0,0.0,0.0,0.0,0.0,0.0,0.0,0.0,0.0,0.0,0.0,0.0,0.0,0.0,0.0,0.0,0.0,0.0,0.0,0.0,0.0,0.0,0.0,0.0,0.0,0.0,0.0,0.0,0.0,0.0,0.0,0.0,0.0,0.0,0.0,0.0,0.0,0.0,0.0,0.0,0.0,0.0,0.0,0.0,0.0,0.0,0.0,0.0,0.0,0.0,0.0,0.0,0.0,0.0,0.0,0.0,0.0,0.0,0.0,0.0,0.0,0.0,0.0,0.0,0.0,0.0,0.0,0.0,0.0,0.0,0.0,0.0,0.0,0.0,0.0,0.0,0.0,0.0,0.0,0.0,0.0,0.0,0.0,0.0,0.0,0.0,0.0,0.0,0.0,0.0,0.0,0.0,0.0,0.0,0.0,0.0,0.0,0.0,0.0,0.0,0.0,0.0,0.0,0.0,0.0,0.0,0.0,0.0,0.0,0.0,0.0,0.0,0.0,0.0,0.0,0.0,0.0,0.0,0.0,0.0,0.0,0.0,0.0,0.0,0.0,0.0,0.0,0.0,0.0,0.0,0.0,0.0,0.0,0.0,0.0,0.0,0.0,0.0,0.0,0.0,0.0,0.0,0.0,0.0,0.0,0.0,0.0,0.0,0.0,0.0,0.0,0.0,0.0,0.0,0.0,0.0,0.0,0.0,0.0,0.0,0.0,0.0,0.0,0.0,0.0,0.0,0.0,0.0,0.0,0.0,0.0,0.0,0.0,0.0,0.0,0.0,0.0,0.0,0.0,0.0,0.0,0.0,0.0,0.0,0.0,0.0,0.0,0.0,0.0,0.0,0.0,0.0,0.0,0.0,0.0,0.0,0.0,0.0,0.0,0.0,0.0,0.0,0.0,0.0,0.0,0.0,0.0,0.0,0.0,0.0,0.0,0.0,0.0,0.0,0.0,0.0,0.0,0.0,0.0,0.0,0.0,0.0,0.0,0.0,0.0,0.0,0.0,0.0,0.0,0.0,0.0,0.0,0.0,0.0,0.0,0.0,0.0,0.0,0.0,0.0,0.0,0.0,0.0,0.0,0.0,0.0,0.0,0.0,0.0,0.0,0.0,0.0,0.0,0.0,0.0,0.0,0.0,0.0,0.0,0.0,0.0,0.0,0.0,0.0,0.0,0.0,0.0,0.0,0.0,0.0,0.0,0.0,0.0,0.0,0.0,0.0,0.0,0.0,0.0,0.0,0.0,0.0,0.0,0.0,0.0,0.0,0.0,0.0,0.0,0.0,0.0,0.0,0.0,0.0,0.0,0.0,0.0,0.0,0.0,0.0,0.0,0.0,0.0,0.0,0.0,0.0,0.0,0.0,0.0,0.0,0.0,0.0,0.0,0.0,0.0,0.0,0.0,0.0,0.0,0.0,0.0,0.0,0.0,0.0,0.0,0.0,0.0,0.0,0.0,0.0,0.0,0.0,0.0,0.0,0.0,0.0,0.0,0.0,0.0,0.0,0.0,0.0,0.0,0.0,0.0,0.0,0.0,0.0,0.0,0.0,0.0,0.0,0.0,0.0,0.0,0.0,0.0,0.0,0.0,0.0,0.0,0.0,0.0,0.0,0.0,0.0,0.0,0.0,0.0,0.0,0.0,0.0,0.0,0.0,0.0,0.0,0.0,0.0,0.0,0.0,0.0,0.0,0.0,0.0,0.0,0.0,0.0,0.0,0.0,0.0,0.0,0.0,0.0,0.0,0.0,0.0,0.0,0.0,0.0,0.0,0.0,0.0,0.0,0.0,0.0,0.0,0.0,0.0,0.0,0.0,0.0,0.0,0.0,0.0,0.0,0.0,0.0,0.0,0.0,0.0,0.0,0.0,0.0,0.0,0.0,0.0,0.0,0.0,0.0,0.0,0.0,0.0,0.0,0.0,0.0,0.0,0.0,0.0,0.0,0.0,0.0,0.0,0.0,0.0,0.0,0.0,0.0,0.0,0.0,0.0,0.0,0.0,0.0,0.0,0.0,0.0,0.0,0.0,0.0,0.0,0.0,0.0,0.0,0.0,0.0,0.0,0.0,0.0,0.0,0.0,0.0,0.0,0.0,0.0,0.0,0.0,0.0,0.0,0.0,0.0,0.0,0.0,0.0,0.0,0.0,0.0,0.0,0.0,0.0,0.0,0.0,0.0,0.0,0.0,0.0,0.0,0.0,0.0,0.0,0.0,0.0,0.0,0.0,0.0,0.0,0.0,0.0,0.0,0.0,0.0,0.0,0.0,0.0,0.0,0.0,0.0,0.0,0.0,0.0,0.0,0.0,0.0,0.0,0.0,0.0,0.0,0.0,0.0,0.0,0.0,0.0,0.0,0.0,0.0,0.0,0.0,0.0,0.0,0.0,0.0,0.0,0.0,0.0,0.0,0.0,0.0,0.0,0.0,0.0,0.0,0.0,0.0,0.0,0.0,0.0,0.0,0.0,0.0,0.0,0.0,0.0,0.0,0.0,0.0,0.0,0.0,0.0,0.0,0.0,0.0,0.0,0.0,0.0,0.0,0.0,0.0,0.0,0.0,0.0,0.0,0.0,0.0,0.0,0.0,0.0,0.0,0.0,0.0,0.0,0.0,0.0,0.0,0.0,0.0,0.0,0.0,0.0,0.0,0.0,0.0,0.0,0.0,0.0,0.0,0.0,0.0,0.0,0.0,0.0,0.0,0.0,0.0,0.0,0.0,0.0,0.0,0.0,0.0,0.0,0.0,0.0,0.0,0.0,0.0,0.0,0.0,0.0,0.0,0.0,0.0,0.0,0.0,0.0,0.0,0.0,0.0,0.0,0.0,0.0,0.0,0.0,0.0,0.0,0.0,0.0,0.0,0.0,0.0,0.0,0.0,0.0,0.0,0.0,0.0,0.0,0.0,0.0,0.0,0.0,0.0,0.0,0.0,0.0,0.0,0.0,0.0,0.0,0.0,0.0,0.0,0.0,0.0,0.0,0.0,0.0,0.0,0.0,0.0,0.0,0.0,0.0,0.0,0.0,0.0,0.0,0.0,0.0,0.0,0.0,0.0,0.0,0.0,0.0,0.0,0.0,0.0,0.0,0.0,0.0,0.0,0.0,0.0,0.0,0.0,0.0,0.0,0.0,0.0,0.0,0.0,0.0,0.0,0.0,0.0,0.0,0.0,0.0,0.0,0.0,0.0,0.0,0.0,0.0,0.0,0.0,0.0,0.0,0.0,0.0,0.0,0.0,0.0,0.0,0.0,0.0,0.0,0.0,0.0,0.0,0.0,0.0,0.0,0.0,0.0,0.0,0.0,0.0,0.0,0.0,0.0,0.0,0.0,0.0,0.0,0.0,0.0,0.0,0.0,0.0,0.0,0.0,0.0,0.0,0.0,0.0,0.0,0.0,0.0,0.0,0.0,0.0,0.0,0.0,0.0,0.0,0.0,0.0,0.0,0.0,0.0,0.0,0.0,0.0,0.0,0.0,0.0,0.0,0.0,0.0,0.0,0.0,0.0,0.0,0.0,0.0,0.0,0.0,0.0,0.0,0.0,0.0,0.0,0.0,0.0,0.0,0.0,0.0,0.0,0.0,0.0,0.0,0.0,0.0,0.0,0.0,0.0,0.0,0.0,0.0,0.0,0.0,0.0,0.0,0.0,0.0,0.0,0.0,0.0,0.0,0.0,0.0,0.0,0.0,0.0,0.0,0.0,0.0,0.0,0.0,0.0,0.0,0.0,0.0,0.0,0.0,0.0,0.0,0.0,0.0,0.0,0.0,0.0,0.0,0.0,0.0,0.0,0.0,0.0,0.0,0.0,2.8055,2.7494,0.0,0.0,0.0,0.0,0.0,0.0,0.0,0.0,0.0,0.0,0.0,0.0,0.0,0.0,0.0,0.0,0.0,0.0,0.0,0.0,0.0,0.0,0.0,1.6517,1.7409,1.7451,1.7451,1.7476,1.7537,0.0,0.0,0.0,0.0,0.0,1.7164,1.6906,1.6744,1.6744,1.6823,1.6869,1.6899,1.6802,1.6537,1.6194,0.0,0.0,0.0,0.0,0.0,0.0,0.0,0.0,0.0,0.0,0.0,0.0,0.0,0.0,0.0,0.0,0.0,0.0,0.0,0.0,0.0,0.0,0.0,0.0,0.0,0.0,0.0,0.0,0.0,0.0,0.0,0.0,0.0,0.0,0.0,0.0,0.0,0.0,0.0,0.0,0.0,0.0,0.0,0.0,0.0,0.0,0.0,0.0,0.0,0.0,0.0,0.0,0.0,0.0,0.0,0.0,0.0,0.0,0.0,0.0,0.0,0.0,0.0,0.0,0.0,0.0,0.0,0.0,0.0,0.0,2.9374,2.8654,0.0,0.0,0.0,0.0,0.0,0.0,0.0,0.0,0.0,0.0,0.0,0.0,0.0,0.0,0.0,0.0,0.0,0.0,0.0,0.0,0.0,1.5352,1.549,1.6691,1.7493,1.7518,1.7518,1.7553,1.7618,1.7618,0.0,0.0,0.0,1.785,1.7922,1.7988,1.8016,1.8016,1.8163,1.8339,1.853,1.853,1.817,1.7564,1.7894,0.0,0.0,0.0,0.0,0.0,0.0,0.0,0.0,0.0,0.0,0.0,0.0,0.0,0.0,0.0,0.0,0.0,0.0,0.0,0.0,0.0,0.0,0.0,0.0,0.0,0.0,0.0,0.0,0.0,0.0,0.0,0.0,0.0,0.0,0.0,0.0,0.0,0.0,0.0,0.0,0.0,0.0,0.0,0.0,0.0,0.0,0.0,0.0,0.0,0.0,0.0,0.0,0.0,0.0,0.0,0.0,0.0,0.0,0.0,0.0,0.0,0.0,0.0,3.2402,3.2402,3.2402,3.2402,3.2402,3.2326,3.0939,3.0332,3.0276,2.948,0.0,0.0,0.0,0.0,0.0,0.0,0.0,0.0,0.0,0.0,0.0,0.0,0.0,0.0,0.0,0.0,0.0,0.0,0.0,1.5562,1.6265,1.7024,1.7524,1.7577,1.7583,1.7618,1.7676,1.7681,0.0,0.0,1.7878,1.7922,1.7988,1.8054,1.8091,1.8091,1.8794,1.9481,2.0189,2.0189,2.0166,2.0061,1.875,1.811,1.8029,0.0,0.0,0.0,0.0,0.0,0.0,0.0,0.0,0.0,0.0,0.0,0.0,0.0,0.0,0.0,0.0,0.0,0.0,0.0,0.0,0.0,0.0,0.0,0.0,0.0,0.0,0.0,0.0,0.0,0.0,0.0,0.0,0.0,0.0,0.0,0.0,0.0,0.0,0.0,0.0,0.0,2.584,2.6889,0.0,0.0,0.0,0.0,0.0,0.0,0.0,0.0,0.0,0.0,0.0,0.0,0.0,3.2307,3.2259,3.2354,3.2406,3.2402,3.2402,3.2402,3.2402,3.2402,3.2402,3.2383,3.2174,0.0,3.2004,3.1208,0.0,0.0,0.0,0.0,0.0,0.0,0.0,0.0,0.0,0.0,0.0,0.0,0.0,0.0,0.0,0.0,0.0,0.0,0.0,0.0,0.0,1.7126,1.7583,1.7641,1.7664,1.7687,1.7749,1.7794,1.7839,1.7894,1.837,1.8636,1.867,1.9161,1.939,1.939,1.9774,2.016,2.0558,2.0599,2.0673,2.0738,2.0023,1.9645,1.9518,1.9108,0.0,0.0,0.0,0.0,0.0,0.0,0.0,0.0,0.0,0.0,0.0,0.0,0.0,0.0,0.0,0.0,0.0,0.0,0.0,0.0,0.0,0.0,0.0,0.0,0.0,0.0,0.0,0.0,0.0,0.0,0.0,0.0,0.0,0.0,0.0,0.0,0.0,0.0,0.0,2.5732,2.6862,2.7776,2.7972,2.8212,0.0,0.0,0.0,0.0,0.0,0.0,0.0,0.0,0.0,3.2433,3.293,3.3376,3.3809,3.4282,3.4756,3.5211,3.5211,3.5211,3.5192,3.4737,3.4548,3.451,3.4017,3.3809,3.369,3.2402,3.1871,3.1833,0.0,0.0,0.0,0.0,3.1318,3.1318,0.0,0.0,0.0,0.0,0.0,0.0,0.0,0.0,0.0,0.0,0.0,0.0,1.6786,1.73,1.7641,1.771,1.7738,1.7749,1.78,1.8042,1.8189,1.8206,1.9041,1.9516,1.951,2.009,2.0504,2.071,2.0765,2.0934,2.1196,2.1261,2.1364,2.1488,2.1505,2.1215,2.07,2.015,1.9915,0.0,0.0,0.0,0.0,0.0,0.0,0.0,0.0,0.0,0.0,0.0,0.0,0.0,0.0,0.0,0.0,0.0,0.0,0.0,0.0,0.0,0.0,0.0,0.0,0.0,0.0,0.0,0.0,0.0,0.0,0.0,0.0,0.0,0.0,0.0,0.0,0.0,0.0,2.7167,2.8035,2.8914,2.9333,2.9774,0.0,0.0,0.0,0.0,0.0,0.0,3.3027,3.3255,3.3468,3.3671,3.4301,3.4927,3.5533,3.6182,3.6808,3.7395,3.7395,3.7395,3.7377,3.677,3.6505,3.6467,3.5822,3.5533,3.5382,3.3505,3.2724,3.2705,3.2497,3.2402,3.2402,3.2402,3.2402,3.2402,0.0,0.0,0.0,0.0,0.0,0.0,0.0,0.0,0.0,0.0,0.0,1.6791,1.7552,1.7676,1.771,1.7794,1.7794,1.78,0.0,1.8523,1.8978,1.9035,1.9876,2.033,2.0337,2.0377,2.0779,2.1533,2.1618,2.2027,2.2784,2.2854,2.2953,2.3087,2.3147,2.2403,2.1064,2.1046,2.1064,2.1039,0.0,0.0,0.0,0.0,0.0,0.0,0.0,0.0,0.0,0.0,0.0,0.0,0.0,0.0,0.0,0.0,0.0,0.0,0.0,0.0,0.0,0.0,0.0,0.0,0.0,0.0,0.0,0.0,0.0,0.0,0.0,0.0,0.0,0.0,0.0,0.0,0.0,0.0,0.0,3.0581,3.1525,0.0,0.0,0.0,0.0,3.2345,3.3145,3.396,3.4737,3.5557,3.6353,3.7111,3.7187,3.7225,3.7263,3.732,3.7358,3.7395,3.7395,3.7395,3.7395,3.7358,3.7339,3.7339,3.7282,3.7263,3.7092,3.4643,3.3638,3.3543,3.2724,3.2402,3.2402,3.2402,3.2402,3.2402,0.0,0.0,0.0,0.0,0.0,1.3911,1.4257,1.5109,1.5921,1.6488,1.7014,1.7451,1.7727,1.7755,1.7766,1.78,1.78,1.8008,1.8488,1.8864,1.9286,1.9792,2.0678,2.1393,2.1865,2.1888,2.2026,2.2302,2.2418,2.2626,2.2906,2.3003,2.3144,2.3265,2.333,2.3173,2.2792,2.2192,2.1977,2.1967,2.1227,2.0941,0.0,0.0,0.0,0.0,0.0,0.0,0.0,0.0,0.0,0.0,0.0,0.0,0.0,0.0,0.0,0.0,0.0,0.0,0.0,0.0,0.0,0.0,0.0,0.0,0.0,0.0,0.0,0.0,0.0,0.0,0.0,0.0,0.0,0.0,0.0,0.0,0.0,3.1536,3.1954,0.0,3.3024,3.3644,3.425,3.4794,3.5614,3.6201,3.6486,3.6808,3.7092,3.7395,3.7395,3.7661,3.8235,3.8235,3.8495,3.9015,3.9015,3.9015,3.8996,3.8476,3.8235,3.8216,3.7642,3.7395,3.7339,3.6448,3.6088,3.5993,3.5178,3.4851,3.4775,3.4226,3.4017,3.4017,0.0,0.0,0.0,0.0,1.3887,1.4392,1.4964,1.5867,1.6613,1.6936,1.7445,1.78,1.78,1.78,1.78,1.78,1.8025,1.838,1.8866,1.9487,2.0071,2.0573,2.1481,2.2199,2.2681,2.2699,2.2699,2.2699,2.2836,2.2906,2.2895,2.3045,2.3162,2.3271,2.333,2.3499,2.3691,2.309,2.2921,2.298,2.2257,2.199,2.199,0.0,0.0,0.0,0.0,0.0,0.0,0.0,0.0,0.0,0.0,0.0,0.0,0.0,0.0,0.0,0.0,0.0,0.0,0.0,0.0,0.0,0.0,0.0,0.0,0.0,0.0,0.0,0.0,0.0,0.0,0.0,0.0,0.0,0.0,3.169,3.2771,3.2817,3.3428,3.4083,3.4696,3.5337,3.5941,3.6527,3.7346,3.7919,3.8224,3.8527,3.8812,3.9077,3.9096,3.9361,3.9935,3.9689,3.9816,4.0336,4.0033,3.99,3.9881,3.9342,3.9101,3.9063,3.849,3.8243,3.8243,3.8243,3.8243,3.813,3.7035,3.6599,3.6524,3.5955,3.5742,3.5742,0.0,0.0,0.0,1.4064,1.4235,1.4768,1.6265,1.6525,1.6802,1.7586,1.7755,1.78,1.78,1.78,1.7817,1.7834,1.8488,1.8916,1.8967,2.0431,2.1335,2.1424,2.2243,2.2692,2.2692,2.2699,2.2699,2.2699,2.2836,2.29,2.2906,2.3021,2.312,2.3205,2.3271,2.3418,2.3599,2.3667,2.386,2.4016,2.3248,2.2983,2.2953,0.0,0.0,0.0,0.0,0.0,0.0,0.0,0.0,0.0,0.0,0.0,0.0,0.0,0.0,0.0,0.0,0.0,0.0,0.0,0.0,0.0,0.0,0.0,0.0,0.0,0.0,0.0,0.0,0.0,0.0,0.0,0.0,0.0,3.1979,3.329,3.4378,3.4455,3.6023,3.7129,3.7222,3.7316,3.7389,3.74,3.8223,3.9083,3.9927,4.0772,4.1586,4.2363,4.2407,4.2407,4.2407,4.163,4.1232,4.1232,4.0374,3.9957,3.9932,3.9932,3.9914,3.9895,3.9895,3.9895,3.9895,3.9895,3.9895,3.9724,3.8073,3.7433,3.7433,3.7414,3.739,3.739,0.0,0.0,1.3894,1.4159,1.5073,1.5944,1.6437,1.6903,1.7315,1.7584,1.7692,1.7738,1.7738,1.7766,1.8025,1.8555,1.8775,1.9373,2.0496,2.1025,2.1567,2.2166,2.2476,2.2636,2.2636,2.2672,2.2699,2.2699,2.279,2.2829,2.2836,2.2952,2.3052,2.312,2.3253,2.3383,2.3527,2.3599,2.3723,2.3883,2.3856,2.3841,2.3865,0.0,0.0,0.0,0.0,0.0,0.0,0.0,0.0,0.0,0.0,0.0,0.0,0.0,0.0,0.0,0.0,0.0,0.0,0.0,0.0,0.0,0.0,0.0,0.0,0.0,0.0,0.0,0.0,0.0,0.0,0.0,3.3441,3.3794,3.3571,3.4518,3.5478,3.6068,3.6664,3.729,3.7924,3.8628,3.9294,3.9931,4.0743,4.1309,4.1554,4.1834,4.2103,4.2312,4.2359,4.2407,4.2407,4.2179,4.2066,4.2066,4.1838,4.138,4.0772,4.0772,4.0403,3.9747,3.9747,3.9747,3.9747,3.9747,3.9747,3.9664,3.8704,3.8317,3.8199,3.755,3.734,3.7327,0.0,1.3785,1.4315,1.4972,1.5807,1.6514,1.6869,1.7257,1.7518,1.7548,1.7618,1.7653,1.7653,1.7972,1.8355,1.8812,1.9419,2.0181,2.114,2.1545,2.1966,2.2436,2.2521,2.2569,2.2569,2.2609,2.2626,2.2659,2.2725,2.2771,2.2803,2.2919,2.2989,2.3026,2.3107,2.3193,2.3295,2.336,2.3474,2.3647,2.3831,2.4016,2.4177,2.4275,2.4053,2.3699,2.3707,2.3417,2.3052,2.3052,0.0,0.0,0.0,0.0,0.0,0.0,0.0,0.0,0.0,0.0,0.0,0.0,0.0,0.0,0.0,0.0,0.0,0.0,0.0,0.0,0.0,0.0,0.0,0.0,3.4798,3.5355,3.5702,3.6223,3.6757,3.7229,3.799,3.8676,3.922,4.0096,4.0842,4.1387,4.1889,4.2322,4.2731,4.2787,4.2963,4.3284,4.3346,4.3365,4.3365,4.3024,4.2854,4.2854,4.2489,4.2055,4.1553,4.1553,4.1264,4.0732,4.0398,4.0248,4.021,3.9852,3.9695,3.9669,0.0,0.0,0.0,0.0,3.8314,3.8311,0.0,1.4178,1.4739,1.606,1.6402,1.6735,1.7392,1.751,1.7528,1.7594,1.7676,1.7739,1.7823,1.8425,1.8884,1.9019,2.0236,2.1059,0.0,0.0,2.2387,2.2387,2.2446,2.2494,2.2494,2.2501,2.2535,2.2585,2.2646,2.2712,2.2771,2.2836,2.2874,2.2874,2.2863,2.2902,2.2989,2.3045,2.3187,2.336,2.3435,2.3705,2.4078,2.4131,2.4252,2.4381,2.4385,2.4425,2.4482,2.4482,0.0,0.0,0.0,0.0,0.0,0.0,0.0,0.0,0.0,0.0,0.0,0.0,0.0,0.0,0.0,0.0,0.0,0.0,0.0,0.0,0.0,0.0,0.0,0.0,3.5875,3.7157,3.8049,3.8179,3.8199,3.8253,3.9662,4.0666,4.0723,4.1501,4.2049,4.2103,4.2269,4.271,4.3554,4.3617,0.0,0.0,0.0,4.4705,4.4705,4.3988,4.3649,4.3624,4.2844,4.2423,4.2341,4.2341,4.2278,4.214,4.1417,4.1116,4.1034,4.0161,3.9754,3.9678,3.9683,3.9683,3.9677,3.969,3.966,3.9678,0.0,1.4886,1.5812,1.6168,1.6762,1.7242,1.7397,1.7473,1.7691,1.8236,1.8365,1.8631,1.9224,1.9473,1.9829,2.0441,2.075,2.1175,0.0,0.0,2.2233,2.2233,2.2342,2.2419,2.2419,2.2467,2.2508,2.2521,2.2535,2.2555,2.2569,2.2636,2.2659,2.2659,2.2712,2.2777,2.2842,2.2844,2.2933,2.3095,2.3217,2.3503,2.3868,2.3924,2.407,2.4237,2.4238,2.428,2.4344,2.4344,2.4371,2.4421,2.4421,0.0,0.0,0.0,0.0,0.0,0.0,0.0,0.0,0.0,0.0,0.0,0.0,0.0,0.0,0.0,0.0,0.0,0.0,0.0,0.0,3.6971,3.7454,3.8198,3.9702,3.9925,3.9914,3.9921,4.0844,4.1476,4.149,4.2288,4.2786,4.2819,4.3465,4.3982,4.421,4.4277,4.4401,4.4619,4.4679,4.4705,4.4705,4.4554,4.4479,4.4479,4.4309,0.0,4.3163,4.3163,4.2748,4.2025,4.1875,4.1773,4.1652,4.0834,4.0089,3.9476,3.9632,3.9625,3.9532,3.9533,3.9502,3.9457,1.4972,1.5542,1.6224,1.6622,1.7058,1.7461,1.78,1.7912,1.8203,1.891,1.9058,1.9236,1.9618,2.001,2.041,2.0811,2.1217,0.0,0.0,2.2051,2.2106,2.2106,2.2161,2.2203,2.2203,2.2663,2.2923,2.2942,2.3354,2.3577,2.3596,2.3632,2.3653,2.3653,2.3689,2.3724,2.3759,2.3759,2.3626,2.341,2.3465,2.3503,2.3531,2.3753,2.3996,2.4199,2.4205,2.4234,2.4294,2.4294,2.4326,2.4348,2.4348,2.4649,2.5083,0.0,0.0,0.0,0.0,0.0,0.0,0.0,0.0,0.0,0.0,0.0,0.0,0.0,0.0,3.45,3.5299,0.0,3.7101,3.8309,3.8866,3.9572,4.0836,4.1356,4.1449,4.1059,4.1731,4.2255,4.2255,4.3074,4.361,4.361,4.4027,4.4314,4.4351,4.4387,4.4423,4.444,4.4482,4.4496,4.4496,4.4496,4.4496,4.4496,4.4496,4.4275,4.3847,4.3847,4.3594,4.3121,4.2684,4.2476,4.2392,4.1576,4.0758,4.0009,4.0107,3.9864,3.9445,3.9444,3.9431,3.9405,1.6118,1.621,1.6482,1.7083,1.7334,1.7662,1.8205,1.8467,1.8858,1.9604,1.9741,1.9831,1.998,2.053,2.0896,0.0,0.0,0.0,0.0,2.2165,2.2246,2.2389,2.2404,2.2419,2.2434,2.3121,2.35,2.3568,2.4205,2.4555,2.4599,2.4599,2.4599,2.4599,2.4632,2.4654,2.4662,2.4677,2.4416,2.3977,2.4029,2.3854,2.3645,2.4024,2.4148,2.4123,2.4158,2.4215,2.4284,2.4284,2.4271,2.4317,2.4483,2.4972,2.5554,2.5881,2.6443,0.0,0.0,0.0,0.0,0.0,0.0,0.0,0.0,3.2973,3.3864,3.4507,3.533,3.6127,3.6758,3.7686,3.854,3.9189,4.0006,4.0859,4.1649,4.2317,4.2566,4.2084,4.2615,4.302,4.302,4.3721,4.4169,4.4169,4.4211,4.4255,4.427,4.427,4.4285,4.43,4.43,4.43,4.43,4.43,4.43,4.43,4.43,4.43,4.43,4.43,4.43,4.4262,4.3535,4.3147,4.2923,4.2263,4.1509,4.0789,4.0789,4.0404,3.9794,3.9484,3.9353,3.934,0.0,1.6938,1.701,1.7108,1.7665,1.8114,1.8195,1.8823,1.9555,2.0293,2.0399,2.0652,2.1292,2.1447,2.1526,2.1585,0.0,0.0,2.2664,2.2767,2.3088,2.3743,2.3832,2.3896,2.395,2.4042,2.41,2.4108,2.4207,2.4241,2.4257,2.4257,2.4257,2.4257,2.4369,2.4464,2.4534,2.4595,2.4611,2.4616,2.4795,2.4944,2.511,2.5379,2.4801,2.3853,2.3973,2.4108,2.4209,2.4209,2.4214,2.4358,2.5122,2.5432,2.5789,2.7279,2.7772,2.8036,2.8843,2.9595,3.0347,3.1258,3.2619,3.3758,0.0,3.4983,3.6135,3.6228,3.6893,3.7472,3.7565,3.8821,3.9882,3.9974,4.0661,4.1485,4.2279,4.2482,4.2786,4.3478,4.3743,4.3875,4.3875,4.3957,4.402,4.402,4.4028,4.4085,4.4199,4.4207,4.4244,4.4292,4.43,4.43,4.43,4.43,4.43,4.43,4.43,4.43,4.43,4.43,4.43,4.4292,4.4125,4.3629,4.2895,4.2746,4.2214,4.1489,4.1489,4.1434,4.1181,3.9749,3.9176,3.9129,0.0,1.7036,1.7225,1.7607,1.7935,1.8289,1.8717,1.9463,2.0223,2.0925,2.1084,2.126,2.1572,2.1957,2.2195,2.2226,2.2628,0.0,2.3301,2.335,2.3498,2.3811,2.3844,2.3877,2.391,2.4365,2.4605,2.4605,2.5129,2.5354,2.5354,2.5405,2.543,2.543,2.5556,2.5639,2.5664,2.5681,2.5518,2.5239,2.5317,2.5204,2.5029,2.5254,2.5087,2.4771,2.5184,2.5421,0.0,0.0,2.5569,2.5665,2.6019,2.6457,2.6975,2.7674,2.822,2.8772,2.9602,3.0798,3.1997,3.2798,3.3886,3.4883,3.5345,3.6367,3.7204,3.7204,3.7832,3.8541,3.9021,3.9649,4.0406,4.134,4.1775,4.2284,4.3141,4.326,4.339,4.3759,4.3843,4.3897,4.3945,4.3974,4.3981,4.3934,4.3945,4.3945,4.3966,4.3966,4.3982,4.4003,4.4003,4.4026,4.4073,4.4073,4.4085,4.4131,4.4131,4.4131,4.4113,4.4096,4.405,4.4021,4.3982,4.3762,4.3421,4.3389,4.2884,4.2125,4.2125,4.1847,4.1307,4.029,3.9872,3.9777,0.0,1.6956,1.7274,1.7963,1.8258,1.8644,1.9396,2.0146,2.0826,2.1306,2.1465,2.1593,2.1805,2.2442,2.2867,2.2867,2.3366,2.3758,2.3937,2.3954,2.4044,2.4249,2.4249,2.4266,2.4308,2.4877,2.5265,2.5446,2.6079,2.6504,2.6702,2.675,2.6768,2.6777,2.691,2.6864,2.6707,2.6742,2.6403,2.5856,2.5873,2.5648,2.535,2.5565,2.579,2.5973,2.6128,2.6285,0.0,0.0,2.6508,2.6604,2.6837,2.7312,2.7848,2.8062,2.8699,2.9567,3.0637,3.1986,3.327,3.4068,3.5107,3.6053,3.6643,3.7399,3.797,3.797,3.8623,3.9342,3.9932,4.0411,4.1093,4.2265,4.2625,4.3002,4.3637,4.3711,4.3711,4.3711,4.3728,4.3769,4.3808,4.3897,4.3929,4.3883,4.3875,4.3843,4.3804,4.3796,4.3796,4.3796,4.3796,4.3829,4.3875,4.3875,4.3907,4.3934,4.3934,4.3934,4.3945,4.3889,4.3861,4.3796,4.3796,4.3796,4.3796,4.3796,4.3426,4.2865,4.2865,4.2495,4.192,4.1237,4.0837,4.0559,0.0,0.0,1.7216,1.7892,1.8651,1.942,2.0143,2.0832,2.1277,2.1301,2.1317,2.1584,2.2305,2.3026,2.3499,2.3559,2.3592,2.3876,2.4532,2.4572,2.4892,2.5612,2.5645,2.5707,2.5824,2.5857,2.6192,2.6838,2.688,2.724,2.7955,2.7955,2.7955,2.7955,2.8086,2.7778,2.7186,2.7323,2.7024,2.6478,2.6546,2.6598,2.6674,2.6936,2.7158,2.7208,2.6261,0.0,0.0,2.6279,2.6392,2.6642,2.7412,2.7737,0.0,2.873,2.9537,3.0516,3.2094,3.3146,3.3954,3.4766,3.6211,3.7445,3.7463,3.8091,3.867,3.867,3.9302,3.9879,3.9898,4.1175,4.2258,4.2294,4.2955,4.3478,4.3515,4.3515,4.3515,4.3515,4.3575,4.3607,4.3607,4.3736,4.3804,4.3804,4.3804,4.3804,4.3796,4.3796,4.3796,4.3796,4.3796,4.3796,4.3804,4.3804,4.3804,4.3804,4.3804,4.3804,4.3804,4.3804,4.3804,4.3796,4.3796,4.3796,4.3796,4.3796,4.3777,4.3759,4.3759,4.374,4.3611,4.2754,4.1942,4.1277,0.0,0.0,0.0,1.8607,1.9404,2.0159,2.0864,2.1164,2.1293,2.1293,2.1641,0.0,0.0,0.0,0.0,0.0,2.445,2.4839,2.5111,2.5127,2.5278,2.5621,2.5549,2.552,2.5574,2.5967,2.6322,2.6636,2.7076,2.7472,2.7806,2.7893,2.7923,2.795,2.8027,2.7938,2.7738,2.7861,2.7841,2.7703,2.7814,2.789,2.7923,2.7621,2.7598,2.7653,0.0,0.0,0.0,2.7717,2.7846,2.802,2.8323,2.8815,2.9424,3.0215,3.1031,3.1889,3.2981,3.3881,3.4857,3.619,3.7018,3.7639,3.8182,3.8505,3.8699,3.8699,3.9331,4.0065,4.0589,4.157,4.247,4.301,4.3322,4.3506,4.3506,4.3506,4.3506,4.3506,4.3513,4.3522,4.3522,4.3694,4.3753,4.3667,4.3667,4.3642,4.36,4.36,4.36,4.36,4.36,4.3617,4.3667,4.3667,4.3711,4.3796,4.3796,4.3744,4.3667,4.3667,4.3642,4.36,4.36,4.36,4.36,4.36,4.36,4.36,4.36,4.36,4.3573,4.3279,4.2995,4.2625,0.0,0.0,0.0,0.0,0.0,0.0,0.0,0.0,0.0,0.0,0.0,0.0,0.0,0.0,0.0,0.0,0.0,2.5323,2.5365,0.0,2.5394,2.5493,2.5419,2.5365,2.5365,2.5992,2.6472,2.682,2.7547,2.8066,2.8419,2.855,2.8603,2.8619,2.8659,2.8547,2.8333,2.841,2.8372,2.8269,2.8357,2.8443,2.8489,2.8117,2.806,0.0,0.0,0.0,2.8661,2.842,2.8453,2.8655,2.9033,2.9732,3.0597,3.1386,3.2206,3.3008,3.3817,3.4863,3.5966,3.7011,3.7558,3.7952,3.8475,3.8585,3.8585,3.8585,3.9268,4.0109,4.0916,4.1747,4.2561,4.3378,4.3506,4.3506,4.3506,4.3506,4.3506,4.3506,4.3506,4.3506,4.3506,4.3627,4.3669,4.3565,4.3556,4.3558,4.3496,4.3506,4.3506,4.3506,4.3506,4.3513,4.3556,4.3556,4.3609,4.3694,4.3694,4.3661,4.3556,4.3556,4.3531,4.3506,4.3506,4.3506,4.3506,4.3506,4.3506,4.3506,4.3506,4.3506,4.3506,4.3506,4.3506,4.3358,0.0,0.0,0.0,0.0,0.0,0.0,0.0,0.0,0.0,0.0,0.0,0.0,0.0,0.0,0.0,0.0,0.0,0.0,2.5294,0.0,0.0,2.5304,2.5294,2.5294,2.5294,2.5943,2.6646,2.7396,2.8196,2.8967,2.9697,2.983,2.9885,2.9896,2.9896,2.9535,2.8949,2.8959,2.8709,2.8293,2.8313,2.8392,2.8518,2.8536,0.0,0.0,0.0,0.0,2.9256,2.8425,2.8319,2.8682,2.961,3.0546,3.1464,3.2277,3.3085,3.3883,3.4696,3.6026,3.72,3.7255,3.7835,3.8399,3.8399,3.8399,3.8399,3.8399,3.9149,4.002,4.0796,4.1669,4.2526,4.3296,4.3461,4.347,4.347,4.347,4.347,4.347,4.347,4.347,4.347,4.347,4.347,4.347,4.3479,4.3506,4.3506,4.3506,4.3506,4.3506,4.3506,4.3506,4.3506,4.3506,4.3506,4.3506,4.3506,4.3506,4.3506,4.3506,4.3506,4.3506,4.3506,4.3506,4.3506,4.3506,4.3506,4.3506,4.3497,4.3479,4.3479,4.3497,4.347,4.347,0.0,0.0,0.0,0.0,0.0,0.0,0.0,0.0,0.0,0.0,0.0,0.0,0.0,0.0,0.0,0.0,0.0,0.0,0.0,0.0,0.0,0.0,0.0,2.5146,2.5146,2.5756,2.6455,0.0,2.8003,2.8775,2.9552,2.9586,2.9653,2.9753,2.9753,2.9706,2.9648,2.9697,2.9653,2.9564,0.0,2.9857,2.9838,0.0,0.0,0.0,0.0,0.0,2.9058,2.8788,2.9281,3.0188,3.1027,3.196,3.2922,3.3736,3.457,3.5403,3.6209,3.6791,3.7267,3.7867,3.8207,3.8399,3.8399,3.8399,3.8399,3.8399,3.9063,3.971,3.9919,4.1123,4.2144,4.2345,4.2893,4.3286,4.3286,4.3286,4.3286,4.3286,4.3286,4.3286,4.3286,4.3286,4.3286,4.3286,4.3428,4.3506,4.3506,4.3506,4.3506,4.3506,4.3506,4.3506,4.3506,4.3506,4.3506,4.3506,4.3506,4.3506,4.3506,4.3506,4.3506,4.3506,4.3506,4.3506,4.3506,4.3506,4.3506,4.3497,4.3446,4.342,4.3411,4.3313,4.3286,4.3286,0.0,0.0,0.0,0.0,0.0,0.0,0.0,0.0,0.0,0.0,0.0,0.0,0.0,0.0,0.0,0.0,0.0,0.0,0.0,0.0,0.0,0.0,2.492,2.489,2.489,2.5533,2.6257,0.0,0.0,0.0,2.9412,2.9473,2.9392,2.9165,2.9209,2.9097,2.8919,2.9313,0.0,0.0,0.0,0.0,0.0,0.0,0.0,0.0,0.0,0.0,2.9501,2.9894,3.0643,3.1483,3.2014,3.311,3.4275,3.4791,3.5558,3.6345,3.6795,3.7249,3.7695,3.8148,3.8272,3.8313,3.8313,3.8313,3.8313,3.8313,3.8684,3.9145,3.95,4.06,4.1592,4.1947,4.2686,4.3205,4.3205,4.3205,4.3205,4.3205,4.3205,4.3205,4.3205,4.3205,4.3205,4.3205,4.3295,4.3375,4.3375,4.3375,4.3375,4.3375,4.3375,4.3375,4.3375,4.3375,4.3375,4.3375,4.3375,4.3375,4.3375,4.3375,4.3375,4.3375,4.3375,4.3375,4.3375,4.3375,4.3375,4.3357,4.334,4.3314,4.3295,4.3233,4.3205,4.3205,0.0,0.0,0.0,0.0,0.0,0.0,0.0,0.0,0.0,0.0,0.0,0.0,0.0,0.0,0.0,0.0,0.0,0.0,0.0,0.0,0.0,0.0,2.4599,2.4599,2.4599,2.5233,2.5941,2.6742,0.0,0.0,0.0,0.0,0.0,0.0,0.0,0.0,0.0,0.0,0.0,0.0,0.0,0.0,0.0,0.0,0.0,0.0,0.0,0.0,3.0258,3.1249,3.1978,3.2518,3.2738,3.3995,3.5449,3.5577,3.626,3.6956,3.6956,3.7582,3.82,3.82,3.82,3.82,3.82,3.82,3.82,3.82,3.8259,3.849,3.9197,4.0113,4.0984,4.1667,4.2541,4.3133,4.3133,4.3242,4.3306,4.3315,4.3406,4.3479,4.3479,4.3479,4.3479,4.3479,4.3479,4.3397,4.3205,4.3297,4.3351,4.3351,4.326,4.3205,4.3205,4.3205,4.3205,4.3205,4.3205,4.3205,4.3205,4.3205,4.3205,4.3205,4.3205,4.3205,4.3205,4.3205,4.3205,4.3205,4.3196,4.3187,4.3187,4.3178,4.3151,4.3151,0.0,0.0,0.0,0.0,0.0,0.0,0.0,0.0,0.0,0.0,2.414,0.0,0.0,0.0,0.0,0.0,0.0,0.0,0.0,0.0,0.0,0.0,2.4599,2.4599,2.4599,2.4734,2.516,2.591,0.0,0.0,0.0,0.0,0.0,0.0,0.0,0.0,0.0,0.0,0.0,0.0,0.0,0.0,0.0,0.0,0.0,0.0,0.0,0.0,0.0,0.0,3.2391,3.2942,3.3203,3.4544,3.607,3.6202,3.6984,3.7794,3.7794,3.7988,3.82,3.82,3.82,3.82,3.82,3.82,3.82,3.82,3.8217,3.8262,3.8389,3.9551,4.051,4.0637,4.1827,4.2746,4.286,4.3449,4.3876,4.3944,4.4525,4.4942,4.4942,4.4942,4.4942,4.4942,4.4942,4.4439,4.3251,4.3825,4.4181,4.4181,4.3552,4.3205,4.3205,4.3205,4.3205,4.3205,4.3205,4.3205,4.3205,4.3205,4.3205,4.3205,4.3205,4.3205,4.3205,4.3205,4.3205,4.3178,4.3142,4.3123,4.3095,4.2985,4.2939,4.2939,0.0,0.0,0.0,0.0,0.0,0.0,0.0,0.0,0.0,2.2943,2.4106,2.4946,0.0,0.0,0.0,0.0,0.0,0.0,0.0,0.0,0.0,0.0,0.0,2.4436,2.4436,2.4436,2.502,2.6227,0.0,0.0,0.0,2.7583,2.7258,0.0,0.0,0.0,0.0,0.0,0.0,0.0,0.0,0.0,0.0,0.0,0.0,0.0,0.0,0.0,0.0,0.0,3.2124,3.3195,3.3985,3.5231,3.6423,3.6573,3.7109,3.7631,3.7676,3.7819,3.7959,3.8021,3.8072,3.8097,3.8097,3.8149,3.8174,3.8114,3.8097,3.808,3.8046,3.8968,3.9842,4.0238,4.1244,4.2134,4.2624,4.339,4.3935,4.4044,4.4722,4.5231,4.5291,4.5291,4.5291,4.5291,4.5291,4.5004,4.4321,4.4648,4.4866,4.4866,4.4485,4.4094,4.3677,4.3658,4.3458,4.305,4.305,4.305,4.305,4.305,4.305,4.305,4.305,4.305,4.305,4.305,4.305,4.3041,4.3012,4.2994,4.2984,4.2929,4.2892,4.2892,0.0,0.0,0.0,0.0,0.0,0.0,0.0,2.2195,2.297,2.2902,2.4013,2.4792,2.4762,2.4666,2.4599,0.0,0.0,0.0,0.0,0.0,0.0,0.0,0.0,2.4292,2.4292,0.0,0.0,2.6433,2.6633,0.0,0.0,0.0,0.0,0.0,2.6264,2.596,0.0,0.0,0.0,0.0,0.0,2.9264,0.0,0.0,0.0,0.0,0.0,0.0,3.0543,3.0802,3.1871,3.3258,3.4413,3.5576,3.6523,3.6693,3.6972,3.7287,3.7373,3.7541,3.7721,3.7872,3.7942,3.7984,3.7984,3.8054,3.8098,3.7949,3.7932,3.7924,3.7855,3.8465,3.9245,4.0018,4.0769,4.1576,4.2452,4.3386,4.4055,4.4205,4.5037,4.5665,4.5747,4.5796,4.5816,4.5816,4.5816,4.5743,4.5562,4.5399,4.5381,4.5544,4.5399,4.5001,4.4349,4.4186,4.3779,4.3163,4.2982,4.2892,4.2892,4.2892,4.2892,4.2892,4.2892,4.2892,4.2892,4.2892,4.2892,4.2892,4.2892,4.2892,4.2892,4.2892,4.2892,4.2892,0.0,0.0,0.0,0.0,0.0,0.0,0.0,2.2141,2.2907,2.2889,2.4017,2.4762,2.463,2.4609,2.4599,0.0,0.0,0.0,0.0,0.0,0.0,0.0,0.0,0.0,0.0,0.0,0.0,2.561,2.6457,0.0,0.0,0.0,0.0,0.0,0.0,2.6072,2.5461,2.6328,0.0,0.0,0.0,0.0,0.0,0.0,0.0,0.0,0.0,3.0506,3.0605,3.1294,3.2148,3.3061,3.384,3.504,3.6199,3.6454,3.6821,3.7156,3.7346,3.7541,3.7721,3.7872,3.7899,3.7908,3.7908,3.7916,3.7899,3.7766,3.773,3.7703,3.7631,3.819,3.8936,3.9789,4.0453,4.1243,4.2348,4.3741,4.4693,4.4882,4.6311,4.7266,4.7305,4.7419,4.7471,4.7471,4.7471,4.7164,4.6432,4.5707,4.5635,4.6377,4.5689,4.5254,4.5182,4.4467,4.4069,4.3978,4.3254,4.2892,4.2892,4.2892,4.2892,4.2892,4.2892,4.2892,4.2892,4.2892,4.2892,4.2892,4.2892,4.2892,4.2892,4.2892,4.2892,4.2892,0.0,0.0,0.0,0.0,0.0,0.0,0.0,2.216,2.2918,2.2801,2.3953,2.4762,2.4609,2.4599,2.4549,0.0,0.0,0.0,0.0,0.0,0.0,0.0,0.0,0.0,0.0,0.0,0.0,2.6942,2.741,0.0,0.0,0.0,0.0,0.0,0.0,2.6997,2.6756,0.0,0.0,0.0,0.0,0.0,0.0,0.0,0.0,0.0,0.0,0.0,3.0539,3.0837,3.1459,3.2259,3.2984,3.3963,3.4969,3.5636,3.6114,3.6489,3.6676,3.6885,3.7091,3.7307,3.7447,3.753,3.753,3.7631,3.7676,3.7503,3.7457,3.7411,3.726,3.7488,3.8138,3.9505,3.9924,4.0559,4.1943,4.3414,4.4407,4.4566,4.6061,4.7149,4.7312,4.7403,4.7468,4.7468,4.7432,4.7277,4.6999,4.6819,4.6892,4.72,4.683,4.6401,4.5913,4.5544,4.5147,4.4684,4.3889,4.3549,4.3616,4.3127,4.2892,4.2892,4.2892,4.2892,4.2892,4.2892,4.2892,4.2892,4.2892,4.2892,4.2892,4.2892,4.2892,4.2892,0.0,0.0,0.0,0.0,0.0,2.1183,2.1135,2.2228,2.3008,2.2873,2.4049,2.4846,2.4721,2.4686,2.4595,2.4405,0.0,0.0,0.0,0.0,0.0,0.0,0.0,0.0,0.0,0.0,0.0,2.7951,2.8284,2.8545,0.0,0.0,2.8479,2.7815,0.0,0.0,0.0,0.0,0.0,0.0,0.0,0.0,0.0,0.0,0.0,0.0,0.0,0.0,0.0,0.0,0.0,3.1697,3.2216,3.3095,0.0,3.5115,3.565,3.5997,3.6269,3.6457,3.6622,3.6881,3.7019,3.7087,3.7087,3.7241,3.7299,3.7126,3.7116,3.7114,3.6968,3.7165,3.7844,3.9335,3.9691,4.0366,4.1983,4.3227,4.4137,4.4521,4.5863,4.6819,4.6991,4.7064,4.7102,4.7154,4.7156,4.7178,4.7283,4.7468,4.7593,4.7593,4.749,4.7169,4.66,4.6338,4.5942,4.5421,4.4609,4.4271,4.4351,4.3773,4.3393,4.3158,4.3158,4.3032,4.2815,4.2815,4.2815,4.2815,4.2815,4.2815,4.2815,4.2815,4.2815,4.2815,0.0,0.0,0.0,0.0,0.0,0.0,0.0,2.233,2.32,2.32,2.4314,2.5068,2.5005,2.4882,2.4736,2.4609,0.0,0.0,0.0,0.0,0.0,0.0,0.0,0.0,0.0,0.0,0.0,0.0,0.0,2.9414,2.9681,2.9681,2.9361,2.8784,0.0,0.0,0.0,0.0,0.0,0.0,0.0,0.0,0.0,0.0,0.0,0.0,0.0,0.0,0.0,0.0,0.0,0.0,0.0,3.2619,0.0,0.0,3.56,3.5905,3.6377,3.6502,3.6547,3.6746,3.6696,3.6622,3.6622,3.6706,3.6766,3.6652,3.6703,3.6791,3.6809,3.7458,3.832,3.9344,3.9961,4.0902,4.2634,4.336,4.4073,4.5064,4.6024,4.6602,4.6602,4.6602,4.6661,4.6807,4.6922,4.7066,4.7178,4.7272,4.7302,4.7302,4.7302,4.7302,4.7291,4.6564,4.6205,4.6169,4.536,4.4982,4.4982,4.4982,4.4533,4.3796,4.3796,4.3346,4.2609,4.2609,4.2609,4.2609,4.2609,4.2609,4.2609,4.2609,4.2609,4.2609,0.0,0.0,0.0,0.0,0.0,0.0,0.0,2.2381,2.3255,2.3209,2.438,2.522,2.5217,2.5178,2.5113,2.5084,0.0,0.0,0.0,0.0,0.0,0.0,0.0,0.0,0.0,0.0,0.0,0.0,0.0,0.0,0.0,0.0,2.9734,2.954,2.954,2.9426,0.0,0.0,0.0,0.0,0.0,0.0,0.0,0.0,0.0,0.0,0.0,0.0,0.0,0.0,0.0,0.0,0.0,0.0,0.0,3.361,3.4639,3.5515,3.5811,3.5871,3.5915,3.6084,3.6142,3.6184,3.6184,3.6332,3.6457,3.6388,3.6426,3.6447,3.6447,3.7144,3.8031,3.9003,3.9652,4.0612,4.2317,4.2983,4.365,4.4617,4.5577,4.6186,4.6186,4.6112,4.6112,4.6247,4.6296,4.6459,4.6766,4.6893,4.7064,4.728,4.7261,4.7216,4.7216,4.6905,4.678,4.6869,4.6068,4.5735,4.5791,4.5252,4.4857,4.4623,4.4623,4.4155,4.3418,4.3418,4.3103,4.2599,4.2599,4.2599,4.2599,4.2599,4.2599,4.2599,0.0,0.0,0.0,0.0,0.0,0.0,0.0,2.2456,2.336,2.3315,2.4498,2.5336,2.5336,2.5323,2.5304,2.5304,0.0,0.0,0.0,0.0,0.0,0.0,0.0,0.0,0.0,0.0,0.0,0.0,0.0,0.0,0.0,0.0,0.0,0.0,2.9907,0.0,0.0,0.0,0.0,0.0,0.0,0.0,0.0,0.0,0.0,0.0,0.0,0.0,0.0,0.0,0.0,0.0,0.0,0.0,0.0,0.0,3.3876,3.5054,3.5271,3.5475,3.5622,3.57,3.5773,3.5817,3.5844,3.6013,3.6206,3.628,3.6301,3.6419,3.6803,3.7461,3.8282,3.9183,3.9812,4.0781,4.2434,4.2931,4.3597,4.4847,4.5533,4.5905,4.5854,4.5778,4.5778,4.5917,4.6062,4.6272,4.659,4.6784,4.698,4.7176,4.7156,4.7122,4.7122,4.7043,4.7043,4.7122,4.661,4.6422,4.647,4.5986,4.5592,4.5305,4.5305,4.4846,0.0,4.3788,4.3394,4.291,4.2615,4.249,4.249,4.249,4.249,4.249,0.0,0.0,0.0,0.0,0.0,0.0,0.0,0.0,0.0,2.348,2.4562,2.5358,2.5406,2.5355,2.5323,0.0,0.0,0.0,0.0,0.0,0.0,0.0,0.0,0.0,0.0,0.0,0.0,2.972,2.972,2.9786,2.9907,0.0,0.0,0.0,0.0,0.0,0.0,0.0,0.0,0.0,0.0,0.0,0.0,0.0,0.0,0.0,0.0,0.0,0.0,0.0,0.0,0.0,0.0,0.0,0.0,0.0,0.0,0.0,0.0,3.5205,3.5588,3.5588,3.5554,3.5537,3.5588,3.5822,0.0,3.6269,3.6311,3.6588,3.7596,3.822,3.887,3.9732,4.0341,4.1236,4.2876,4.3258,4.3938,4.5575,4.577,4.5731,4.5607,4.5589,4.5641,4.577,4.6154,4.6429,4.6578,4.6842,4.6998,4.7009,4.7009,4.7009,4.7009,4.7009,4.7009,4.7009,4.7009,4.7009,4.7009,4.7009,4.6587,4.5891,4.5891,4.5434,4.4631,4.3954,4.3597,4.3436,4.268,4.2351,4.2297,4.2297,4.2297,4.2297,0.0,0.0,0.0,0.0,0.0,0.0,0.0,0.0,0.0,0.0,2.4214,2.4931,2.5488,2.554,2.554,0.0,0.0,0.0,0.0,0.0,0.0,0.0,0.0,0.0,0.0,0.0,0.0,2.9852,2.9852,2.9874,2.9907,2.9907,0.0,0.0,0.0,0.0,0.0,0.0,0.0,0.0,0.0,0.0,0.0,0.0,0.0,0.0,3.081,3.0855,0.0,0.0,0.0,0.0,0.0,0.0,0.0,0.0,3.2334,3.3179,3.3803,0.0,3.552,3.552,3.5554,3.5616,0.0,3.596,3.6208,3.6402,3.6364,3.6585,3.7473,3.8088,3.8723,3.9618,4.0122,4.1057,4.2915,4.4147,4.5001,4.5302,4.5524,4.5589,4.5455,4.5546,4.5611,4.5632,4.5925,4.6198,4.6429,4.6696,4.6888,4.7009,4.7009,4.7009,4.7009,4.7009,4.7009,4.7009,4.7009,4.7009,4.7009,4.7009,4.6902,4.6723,4.6723,4.6266,4.5506,4.5327,4.456,4.349,4.3294,4.284,4.2297,4.2297,4.2297,4.2297,0.0,0.0,0.0,0.0,0.0,0.0,0.0,0.0,0.0,0.0,0.0,0.0,0.0,0.0,0.0,0.0,0.0,0.0,0.0,0.0,0.0,0.0,0.0,0.0,0.0,0.0,0.0,0.0,0.0,2.9907,0.0,0.0,0.0,0.0,0.0,0.0,0.0,0.0,0.0,0.0,0.0,0.0,0.0,0.0,0.0,0.0,3.1154,3.1222,0.0,3.1281,3.1368,3.1481,0.0,0.0,0.0,0.0,3.2126,3.2806,3.3586,3.4455,3.5211,3.5481,3.5673,3.5811,3.5915,3.6148,3.6388,3.6606,3.6783,3.7188,3.8121,3.8684,3.9284,4.0199,4.0422,4.1118,4.2945,4.4509,4.5502,4.5485,4.5602,4.5693,4.5671,4.5799,4.59,4.5963,4.6211,4.6417,4.6578,4.6784,4.6922,4.7009,4.7009,4.7009,4.7009,4.7009,4.7009,4.7009,4.7009,4.7009,4.7009,4.7009,4.7009,4.7009,4.7009,4.6748,4.632,4.5945,4.5309,4.4471,4.3775,4.3222,4.2804,4.244,4.2297,4.2297,0.0,0.0,0.0,0.0,0.0,0.0,0.0,0.0,0.0,0.0,0.0,0.0,0.0,0.0,0.0,0.0,0.0,0.0,0.0,0.0,0.0,0.0,0.0,0.0,0.0,0.0,0.0,0.0,0.0,0.0,0.0,0.0,2.9968,0.0,0.0,0.0,0.0,0.0,0.0,0.0,0.0,0.0,0.0,0.0,0.0,0.0,0.0,0.0,0.0,3.1691,3.1765,3.1874,3.1874,0.0,0.0,0.0,0.0,0.0,3.3709,3.4292,3.4825,3.5513,3.5888,3.6105,3.6167,3.6381,3.664,3.6938,3.7356,3.7995,3.9076,3.9554,4.0061,4.099,4.1149,4.1621,4.2979,4.4573,4.5654,4.5731,4.5808,4.5922,4.6013,4.6174,4.6308,4.6417,4.6661,4.6807,4.6807,4.6922,4.7009,4.7009,4.7009,4.7009,4.7009,4.7009,4.7009,4.7009,4.7009,4.7009,4.7009,4.7009,4.7009,4.7009,4.7009,4.7009,4.6955,4.6266,4.5909,4.5677,4.4364,4.3704,4.3418,4.2733,4.2404,4.2297,0.0,0.0,0.0,0.0,0.0,0.0,0.0,0.0,0.0,0.0,0.0,0.0,0.0,0.0,0.0,0.0,0.0,0.0,0.0,0.0,0.0,0.0,0.0,0.0,0.0,0.0,0.0,0.0,0.0,0.0,2.9907,2.9968,3.0103,0.0,0.0,0.0,0.0,0.0,0.0,0.0,0.0,0.0,0.0,0.0,0.0,0.0,0.0,0.0,0.0,3.2108,3.2153,3.2214,3.2214,0.0,0.0,0.0,0.0,0.0,3.3769,3.4302,3.4706,3.5833,3.6272,3.6461,3.6582,3.6677,3.6973,3.7734,3.7918,3.837,3.9852,4.0064,4.0328,4.1213,4.2416,4.3173,4.2965,4.4581,4.5693,4.5481,4.5862,4.6137,4.6161,4.6393,4.6554,4.6578,4.6708,4.6807,4.6807,4.6922,4.7009,4.7009,4.7009,4.7009,4.7009,4.7009,4.7009,4.7009,4.7009,4.7009,4.7009,4.7009,4.7009,4.7009,4.7009,4.7009,4.6991,4.6866,4.6409,4.5784,4.5552,4.4649,4.349,4.3365,4.2876,4.2297,0.0,0.0,0.0,0.0,0.0,0.0,0.0,0.0,0.0,0.0,0.0,0.0,0.0,0.0,0.0,0.0,0.0,0.0,0.0,0.0,0.0,0.0,0.0,0.0,0.0,0.0,0.0,0.0,0.0,2.9143,2.9596,3.0161,3.0541,3.0733,0.0,0.0,0.0,0.0,0.0,0.0,0.0,0.0,0.0,0.0,0.0,0.0,0.0,0.0,0.0,0.0,3.2438,3.2454,3.2454,0.0,0.0,0.0,0.0,0.0,3.4029,3.452,3.4906,3.6337,3.6753,3.6956,3.7454,3.7599,3.785,3.8684,3.907,3.9472,4.0265,4.0622,4.0961,4.1423,4.2794,4.3722,4.3482,4.4928,4.6005,4.595,4.6161,4.6357,4.6518,4.6637,4.6731,4.6819,4.6876,4.6911,4.6911,4.6975,4.7009,4.7009,4.7009,4.7009,4.7009,4.7009,4.7009,4.7009,4.7009,4.7009,4.7009,4.7009,4.7009,4.7009,4.7009,4.7009,4.7009,4.7009,4.6777,4.6409,4.5963,4.5374,4.4631,4.3811,4.3001,4.2297,0.0,0.0,0.0,0.0,0.0,0.0,0.0,0.0,0.0,0.0,0.0,0.0,0.0,0.0,0.0,0.0,0.0,0.0,0.0,0.0,0.0,0.0,0.0,0.0,0.0,0.0,2.6854,2.7675,2.828,2.8884,2.9486,3.048,3.0995,0.0,0.0,0.0,0.0,0.0,0.0,0.0,0.0,0.0,0.0,0.0,0.0,0.0,0.0,0.0,0.0,0.0,0.0,0.0,0.0,0.0,0.0,3.26,3.2489,3.2721,3.4339,3.478,3.5186,3.6768,3.7307,3.7598,3.8208,3.848,3.8823,3.9645,4.0134,4.0512,4.0752,4.1185,4.1538,4.1677,4.2994,4.3974,4.395,4.5292,4.632,4.6381,4.6459,4.6578,4.6784,4.6807,4.6842,4.6963,4.6922,4.6911,4.6945,4.6945,4.6957,4.7009,4.7009,4.7009,4.7009,4.7009,4.7009,4.7009,4.7009,4.7009,4.7009,4.7009,4.7009,4.7009,4.7009,4.7009,4.7009,4.7009,4.7009,4.6938,4.632,4.5963,4.5641,4.4257,4.3375,4.284,0.0,0.0,0.0,0.0,0.0,0.0,0.0,0.0,0.0,0.0,0.0,0.0,0.0,0.0,0.0,0.0,0.0,0.0,0.0,0.0,0.0,0.0,0.0,0.0,0.0,2.5733,2.6178,2.6966,2.7219,2.8234,2.9972,3.0931,3.1403,3.1456,0.0,0.0,0.0,0.0,0.0,0.0,0.0,0.0,0.0,0.0,0.0,0.0,0.0,0.0,0.0,0.0,0.0,0.0,0.0,0.0,3.2781,3.2773,3.2681,3.2925,3.4544,3.5022,3.5439,3.6984,3.7885,3.8404,3.8475,3.9024,3.9732,4.0536,4.0728,4.0962,4.159,4.1734,4.1819,4.1945,4.3264,4.4227,4.4101,4.5511,4.653,4.6405,4.6625,4.6784,4.6807,4.6807,4.6789,4.6801,4.6696,4.6684,4.6819,4.6801,4.6865,4.7009,4.7009,4.7009,4.7009,4.7009,4.7009,4.7009,4.7009,4.7009,4.7009,4.7009,4.7009,4.7009,4.7009,4.7009,4.7009,4.7009,4.7009,4.6991,4.6938,4.6474,4.5713,4.4846,4.4478,4.4435,0.0,0.0,0.0,0.0,0.0,0.0,0.0,0.0,0.0,0.0,0.0,0.0,0.0,0.0,0.0,0.0,0.0,0.0,0.0,0.0,0.0,0.0,0.0,2.5874,2.5844,2.5874,2.6105,2.6524,2.7902,2.9207,3.045,3.1404,0.0,0.0,0.0,0.0,0.0,0.0,0.0,0.0,0.0,0.0,0.0,0.0,0.0,0.0,0.0,0.0,0.0,0.0,3.29,3.29,3.29,3.2876,3.2852,3.2852,3.2828,3.3134,3.4709,3.5135,3.5535,3.713,3.8455,0.0,0.0,3.9943,4.0702,4.1455,4.158,4.1602,4.1759,4.1725,4.1754,4.1955,4.2862,4.3744,4.4323,4.5385,4.6279,4.6713,4.6865,4.6922,4.6922,4.6853,4.6807,4.6807,4.6672,4.6661,4.6778,4.6807,4.6865,4.7009,4.7009,4.7009,4.7009,4.7009,4.7009,4.7009,4.7009,4.7009,4.7009,4.7009,4.7009,4.7009,4.7009,4.7009,4.7009,4.7009,4.7009,4.7009,4.7009,4.6516,4.5766,4.5452,4.5024,4.4614,0.0,0.0,0.0,0.0,0.0,0.0,0.0,0.0,0.0,0.0,0.0,0.0,0.0,0.0,0.0,0.0,0.0,0.0,0.0,0.0,0.0,0.0,0.0,2.6127,2.6189,2.6269,2.6348,2.6435,2.8297,2.9668,3.0549,0.0,0.0,0.0,0.0,0.0,0.0,0.0,0.0,0.0,0.0,0.0,0.0,0.0,0.0,0.0,0.0,0.0,0.0,0.0,3.29,3.29,3.29,3.29,3.29,3.29,3.3078,3.3552,3.4838,3.5391,3.5971,3.7577,3.895,3.9976,4.0225,4.0871,4.1551,4.2067,4.2097,4.1991,4.1909,4.1791,4.1786,4.2009,4.2679,4.3489,4.4456,4.5258,4.6031,4.6845,4.6899,4.6888,4.6934,4.6784,4.6684,4.6731,4.6566,4.653,4.6661,4.6672,4.6749,4.6865,4.6876,4.6876,4.6876,4.6876,4.6876,4.6876,4.6876,4.6911,4.7009,4.7009,4.7009,4.7009,4.7009,4.7009,4.7009,4.7009,4.7009,4.7009,4.7009,4.6659,4.6177,4.6177,4.5838,4.5363,0.0,0.0,0.0,0.0,0.0,0.0,0.0,0.0,0.0,0.0,0.0,0.0,0.0,0.0,0.0,0.0,0.0,0.0,0.0,0.0,0.0,0.0,0.0,2.6409,2.6607,2.6867,2.69,2.6708,2.8109,2.9283,3.0198,3.094,0.0,0.0,0.0,0.0,0.0,0.0,0.0,0.0,0.0,0.0,0.0,0.0,0.0,0.0,0.0,0.0,0.0,0.0,3.29,3.29,3.29,3.29,3.29,3.29,3.3463,3.425,3.4999,3.5792,3.6792,3.8406,3.9351,4.0118,4.0913,4.1726,4.2297,4.2297,4.2187,4.2093,4.2093,4.2044,4.2019,4.2082,4.2761,4.3597,4.4467,4.5174,4.5889,4.67,4.6672,4.6649,4.6795,4.6554,4.6459,4.659,4.6355,4.627,4.6381,4.6393,4.6471,4.6602,4.6602,4.6602,4.6602,4.6602,4.6602,4.6602,4.6602,4.6731,4.7009,4.7009,4.7009,4.7009,4.7009,4.7009,4.7009,4.7009,4.7009,4.7009,4.7009,4.7009,4.7009,4.7009,4.7009,4.7009,0.0,0.0,0.0,0.0,0.0,0.0,0.0,0.0,0.0,0.0,0.0,0.0,0.0,0.0,0.0,0.0,0.0,0.0,0.0,0.0,0.0,0.0,0.0,0.0,0.0,0.0,2.743,2.734,2.8461,2.9208,0.0,0.0,0.0,3.0927,0.0,0.0,0.0,0.0,0.0,0.0,0.0,0.0,0.0,0.0,0.0,0.0,0.0,0.0,0.0,0.0,0.0,0.0,3.29,3.29,3.29,3.29,3.3463,3.425,3.4999,3.5792,3.6792,3.8406,3.9351,4.0118,4.0913,4.1726,4.2297,4.2297,4.2187,4.2093,4.2093,4.2044,4.2019,4.2082,4.2299,4.2932,4.4333,4.4692,4.5286,4.6501,4.6625,4.6613,4.6649,4.6506,4.6423,4.6459,4.6307,4.627,4.6381,4.6393,4.6471,4.6602,4.6602,4.6602,4.6602,4.6602,4.6602,4.6602,4.6602,4.6637,4.6719,4.6719,4.6719,4.6719,4.683,4.6865,4.6865,4.6957,4.7009,4.7009,4.7009,4.7009,4.7009,4.7009,4.7009,4.7009,0.0,0.0,0.0,0.0,0.0,0.0,0.0,0.0,0.0,0.0,0.0,0.0,0.0,0.0,0.0,0.0,0.0,0.0,0.0,0.0,0.0,0.0,0.0,0.0,0.0,2.7686,2.7836,0.0,0.0,0.0,0.0,0.0,0.0,3.0345,0.0,3.0186,0.0,0.0,0.0,0.0,0.0,3.2418,3.2472,0.0,0.0,0.0,0.0,0.0,0.0,0.0,0.0,0.0,3.29,3.29,3.29,3.29,3.3677,3.4624,3.5088,3.6247,3.7657,3.8923,3.9815,4.0582,4.1395,4.1958,4.2297,4.2297,4.2246,4.2176,4.2176,4.209,4.2055,4.2082,4.2079,4.2491,4.3768,4.4123,4.4687,4.5876,4.6174,4.6326,4.6417,4.6326,4.6289,4.6381,4.6282,4.6233,4.6314,4.6265,4.6277,4.6362,4.6314,4.6277,4.6277,4.6277,4.6277,4.6277,4.6338,4.6362,4.6362,4.653,4.6602,4.6602,4.6731,4.683,4.6888,4.6975,4.7009,4.7009,4.7009,4.7009,4.7009,4.7009,4.7009,4.7009,0.0,0.0,0.0,0.0,0.0,0.0,0.0,0.0,0.0,0.0,0.0,0.0,0.0,0.0,0.0,0.0,0.0,0.0,0.0,0.0,0.0,0.0,0.0,0.0,0.0,0.0,0.0,0.0,0.0,0.0,0.0,0.0,2.9506,3.0206,0.0,3.013,0.0,0.0,0.0,0.0,3.126,3.1625,3.1785,3.2507,0.0,0.0,0.0,0.0,0.0,0.0,0.0,0.0,3.29,3.29,3.29,3.29,3.3998,3.5195,3.5195,3.6961,3.8977,3.9726,4.0556,4.1395,4.2137,4.2297,4.2297,4.2297,4.2297,4.2297,4.2297,4.2176,4.2093,4.2093,4.2034,4.2242,4.2975,4.3556,4.4185,4.4986,4.5506,4.5909,4.6137,4.6043,4.6085,4.6338,4.6228,4.6159,4.6159,4.6048,4.5972,4.5972,4.5859,4.5795,4.5795,4.5795,4.5795,4.5795,4.5935,4.5998,4.601,4.6386,4.6566,4.659,4.6708,4.6842,4.6957,4.6957,4.6957,4.6968,4.6968,4.6998,4.7009,4.7009,4.7009,4.7009,0.0,0.0,0.0,0.0,0.0,0.0,0.0,0.0,0.0,0.0,0.0,0.0,0.0,0.0,0.0,0.0,0.0,0.0,0.0,0.0,0.0,0.0,0.0,0.0,0.0,0.0,0.0,0.0,0.0,0.0,0.0,0.0,0.0,2.8667,0.0,2.8664,0.0,0.0,0.0,2.9701,3.0457,3.1135,3.1714,3.1893,3.2347,0.0,0.0,0.0,0.0,0.0,0.0,0.0,3.29,3.29,3.29,3.29,3.3998,3.5195,3.5195,3.6961,3.8977,3.9726,4.0985,4.2083,4.2262,4.2297,4.2297,4.2297,4.2297,4.2297,4.2297,4.2176,4.2093,4.2093,4.2034,4.221,4.2853,4.3499,4.4161,4.4865,4.5444,4.5821,4.5884,4.5859,4.5871,4.5922,4.5897,4.5884,4.5884,4.5859,4.5833,4.5833,4.5825,4.5795,4.5795,4.5795,4.5795,4.5795,4.5935,4.5998,4.5998,4.6196,4.6338,4.6441,4.6465,4.6566,4.6684,4.6684,4.6743,4.6842,4.6842,4.6899,4.7009,4.7009,4.7009,4.7009,0.0,0.0,0.0,0.0,0.0,0.0,0.0,0.0,0.0,0.0,0.0,0.0,0.0,0.0,0.0,0.0,0.0,0.0,0.0,0.0,2.7355,2.7609,0.0,0.0,0.0,0.0,0.0,0.0,0.0,0.0,0.0,0.0,0.0,2.8196,0.0,2.8196,0.0,0.0,2.8827,2.8898,2.9665,3.044,3.1171,3.1546,3.2196,3.29,3.29,0.0,0.0,0.0,0.0,0.0,0.0,0.0,3.29,3.29,3.3998,3.5195,3.5195,3.7229,3.9591,4.0683,4.1581,4.2194,4.216,4.2149,4.2149,4.2149,4.2173,4.2197,4.2197,4.2079,4.1963,4.1963,4.183,4.1829,4.2131,4.2696,4.334,4.4046,4.4699,4.5242,4.5658,4.5693,4.5718,4.5812,4.5795,4.5795,4.5795,4.5731,4.5693,4.5693,4.5645,4.5619,4.5619,4.5619,4.5619,4.5619,4.5744,4.5833,4.5909,4.611,4.6265,4.6393,4.6393,4.6483,4.6602,4.6602,4.6637,4.6696,4.6696,4.676,4.6819,4.6819,4.6819,4.6819,0.0,0.0,0.0,0.0,0.0,0.0,0.0,0.0,0.0,0.0,0.0,0.0,0.0,0.0,0.0,0.0,0.0,0.0,0.0,2.7378,2.7729,2.8014,0.0,0.0,0.0,0.0,0.0,0.0,0.0,0.0,0.0,0.0,0.0,2.8196,0.0,0.0,0.0,0.0,2.8196,2.8267,2.9076,2.9843,3.0593,3.1385,3.2196,3.29,3.29,3.29,3.29,3.29,0.0,0.0,0.0,0.0,3.2876,3.2876,3.3965,3.517,3.517,3.7459,4.0165,4.1542,4.1983,4.2058,4.1998,4.1994,4.1994,4.1994,4.2044,4.209,4.209,4.1931,4.178,4.1769,4.156,4.1392,4.138,4.1847,4.2433,4.3044,4.3822,4.4578,4.5308,4.5494,4.5619,4.5718,4.5718,4.5718,4.5718,4.5632,4.5567,4.5567,4.5463,4.5397,4.5397,4.5397,4.5397,4.5397,4.5541,4.5667,4.5808,4.6023,4.6196,4.6301,4.6301,4.6362,4.6459,4.6495,4.6506,4.6525,4.6554,4.6578,4.6602,4.6602,4.6602,4.6602,0.0,0.0,0.0,0.0,0.0,0.0,0.0,0.0,0.0,0.0,0.0,2.3036,2.3164,2.3927,0.0,0.0,0.0,0.0,2.6474,0.0,0.0,0.0,0.0,0.0,0.0,0.0,0.0,0.0,0.0,0.0,0.0,0.0,0.0,2.8196,0.0,0.0,0.0,0.0,2.8196,2.8267,2.9076,2.9843,3.0593,3.1385,3.2196,3.29,3.29,3.29,3.29,3.29,3.29,0.0,0.0,0.0,3.2805,3.2805,3.3859,3.5022,3.5022,3.7281,3.9858,4.0744,4.1495,4.2016,4.2005,4.1994,4.1994,4.1994,4.2016,4.1998,4.1998,4.1895,4.1758,4.1648,4.1504,4.1352,4.1243,4.18,4.2242,4.2346,4.3494,4.4345,4.4462,4.504,4.5437,4.545,4.545,4.545,4.545,4.5437,4.5423,4.5423,4.541,4.5397,4.5397,4.5397,4.5397,4.5397,4.5541,4.5667,4.5795,4.5833,4.5859,4.5884,4.5884,4.5884,4.5922,4.6035,4.6142,4.6259,4.6369,4.6506,4.6602,4.6602,4.6602,4.6602,0.0,0.0,0.0,0.0,0.0,0.0,0.0,0.0,0.0,0.0,0.0,2.2586,2.285,2.3553,0.0,0.0,0.0,0.0,2.6637,2.7613,0.0,0.0,0.0,0.0,0.0,0.0,0.0,0.0,0.0,0.0,0.0,2.8659,2.888,0.0,0.0,0.0,0.0,0.0,0.0,2.8898,2.9255,3.0118,3.1207,3.1571,3.2196,3.29,3.29,3.29,3.29,3.29,3.2876,3.2846,3.2846,0.0,0.0,0.0,3.3462,3.4606,3.5934,3.7908,3.978,4.0506,4.1237,4.1754,4.1677,4.1604,4.1542,4.1542,4.1542,4.1604,4.1743,4.1677,4.152,4.1408,4.129,4.1215,4.114,4.133,4.161,4.2042,4.2627,4.3362,4.4225,4.4591,4.4958,4.5363,4.5397,4.5397,4.5397,4.5397,4.5397,4.5397,4.5397,4.5397,4.5397,4.5397,4.5397,4.5397,4.5463,4.5528,4.5581,4.5581,4.5654,4.5795,4.5795,4.5795,4.5795,4.5859,4.5922,4.598,4.6043,4.6092,4.6142,4.6142,4.6142,4.6142,0.0,0.0,0.0,0.0,0.0,0.0,0.0,0.0,0.0,0.0,0.0,0.0,2.2646,0.0,0.0,0.0,0.0,0.0,2.6843,0.0,0.0,0.0,0.0,0.0,0.0,0.0,0.0,0.0,0.0,0.0,2.8231,2.9023,2.9505,0.0,2.9683,2.9683,0.0,0.0,0.0,0.0,2.9904,3.0672,3.1714,3.1928,3.2382,3.29,3.29,3.2892,3.2868,3.2868,3.283,3.2748,3.2748,3.2673,0.0,0.0,0.0,3.4376,3.6326,3.7964,3.9309,4.0018,4.0722,4.1248,4.1328,4.1266,4.1209,4.1209,4.1209,4.1313,4.167,4.1525,4.1376,4.1435,4.1412,4.1445,4.1612,4.1546,4.1688,4.2228,4.247,4.3039,4.419,4.4471,4.4803,4.5363,4.5397,4.5397,4.5397,4.5397,4.5397,4.5397,4.5397,4.5397,4.5397,4.5397,4.5397,4.5397,4.5397,4.5397,4.5397,4.5397,4.5515,4.5693,4.5693,4.5693,4.5693,4.5749,4.5744,4.5744,4.58,4.5795,4.5795,4.5795,4.5795,4.5795,0.0,0.0,0.0,0.0,0.0,0.0,0.0,0.0,0.0,0.0,0.0,0.0,0.0,0.0,0.0,0.0,0.0,0.0,0.0,0.0,0.0,0.0,0.0,0.0,0.0,0.0,0.0,0.0,0.0,0.0,2.8231,2.9023,2.9772,3.0432,3.0432,3.0432,3.0432,0.0,0.0,0.0,0.0,3.1625,3.1785,3.2543,3.2864,3.29,3.29,3.287,3.2815,3.2815,3.2714,3.2614,3.2614,3.2556,3.2499,0.0,0.0,0.0,3.5374,3.6708,3.8088,3.8879,3.9634,4.0361,4.1046,4.1209,4.1209,4.1209,4.1209,4.1401,4.2047,4.1644,4.1418,4.2053,4.2138,4.2362,4.3007,4.3081,4.3086,4.3138,4.3759,4.4207,4.4294,4.4941,4.5363,4.5397,4.5397,4.5397,4.5397,4.5397,4.5397,4.5397,4.5397,4.5397,4.5397,4.5397,4.5397,4.5397,4.5397,4.5397,4.5397,4.5397,4.541,4.5423,4.5423,4.5423,4.5423,4.5567,4.5619,4.5615,4.5744,4.5795,4.5795,4.5795,4.5795,4.5795,0.0,0.0,0.0,0.0,0.0,0.0,0.0,0.0,0.0,0.0,0.0,0.0,0.0,0.0,0.0,0.0,0.0,0.0,0.0,0.0,0.0,0.0,0.0,0.0,0.0,0.0,0.0,0.0,0.0,2.8196,2.8231,2.9023,2.9547,2.9808,3.0289,3.0789,3.1242,3.0718,0.0,0.0,0.0,3.2017,3.2507,3.2793,3.29,3.29,3.29,3.2862,3.2807,3.2807,3.2683,3.2523,3.249,3.2405,3.2284,3.2232,3.2885,3.3805,3.4579,3.5921,3.7252,3.7922,3.9046,4.003,4.0239,4.0678,4.1012,4.1012,4.1012,4.1225,4.1938,4.1953,4.207,4.2728,4.2837,4.2928,4.3167,4.3189,4.3189,4.3189,4.3431,4.3776,4.4259,4.454,4.4889,4.5363,4.5397,4.5397,4.5397,4.5397,4.5397,4.5397,4.5397,4.5397,4.5397,4.5397,4.5397,4.5397,4.5397,4.5397,4.5397,4.5397,4.5397,4.5397,4.5397,4.5397,4.5397,4.545,4.5476,4.5476,4.5528,4.5537,4.5537,4.5537,4.5537,4.5537,0.0,0.0,0.0,0.0,0.0,0.0,0.0,0.0,0.0,0.0,0.0,0.0,0.0,0.0,0.0,0.0,0.0,0.0,0.0,0.0,0.0,0.0,0.0,0.0,0.0,0.0,0.0,0.0,0.0,0.0,0.0,2.8748,2.913,2.9415,2.9915,3.0725,0.0,0.0,0.0,3.2107,0.0,3.2418,3.2936,3.3195,3.3302,3.3338,3.3588,3.3603,3.3504,3.3228,3.2997,3.2747,3.2432,3.2232,3.2099,3.2055,3.2531,3.3267,3.4083,3.5221,3.6415,3.7283,3.8281,3.9146,3.9577,4.0076,4.0525,4.0789,4.0876,4.1136,4.1866,4.2289,4.2758,4.3461,4.3569,4.3655,4.3901,4.3936,4.3936,4.3936,4.3936,4.4126,4.4613,4.4678,4.4872,4.5363,4.5397,4.5276,4.5031,4.5031,4.5031,4.5031,4.5259,4.5397,4.5397,4.5397,4.5397,4.5397,4.5397,4.5397,4.5397,4.5397,4.5397,4.5397,4.5397,4.5397,4.5397,4.5397,4.5397,4.5397,4.5397,4.5397,4.5397,4.5397,4.5397,4.5397,0.0,0.0,0.0,0.0,0.0,0.0,0.0,0.0,0.0,0.0,0.0,0.0,0.0,0.0,0.0,0.0,0.0,0.0,0.0,0.0,0.0,0.0,0.0,0.0,0.0,0.0,0.0,0.0,0.0,0.0,0.0,0.0,2.863,2.9362,2.9362,3.0208,3.1643,3.1678,3.2142,3.2864,3.2882,3.2918,3.3025,3.3794,3.4107,3.4232,3.4945,3.5118,3.488,3.4092,3.3644,3.3298,3.2476,3.2073,3.1894,3.1894,3.2357,3.3041,0.0,0.0,0.0,3.6913,3.7286,3.7665,3.9029,3.9471,3.9805,4.0508,4.0787,4.1136,4.1866,4.2637,4.3414,4.4173,4.4328,4.4591,4.5294,4.5397,4.5397,4.5397,4.5397,4.5397,4.5397,4.5397,4.5397,4.5397,4.5397,4.5083,4.4333,4.4276,4.4276,4.4276,4.4979,4.5363,4.5363,4.538,4.5397,4.5397,4.5397,4.5397,4.5397,4.5397,4.5397,4.5397,4.5397,4.5397,4.5397,4.5397,4.5397,4.5397,4.5397,4.5397,4.5397,4.5397,4.5397,4.5397,0.0,0.0,0.0,0.0,0.0,0.0,2.5705,2.5223,0.0,0.0,0.0,0.0,0.0,0.0,0.0,0.0,0.0,0.0,0.0,0.0,0.0,2.8452,2.836,2.8286,0.0,0.0,0.0,0.0,0.0,0.0,0.0,0.0,0.0,2.8534,2.8534,2.9094,3.0118,3.1232,3.1821,3.2071,3.2668,3.3257,3.3794,3.4018,3.4428,3.4919,3.5073,3.5066,3.4951,3.4641,3.4382,3.4048,3.3133,3.2379,3.1829,3.1829,3.1956,3.2403,3.3741,0.0,0.0,0.0,0.0,0.0,3.7598,3.8676,3.965,3.9857,4.045,4.1136,4.1866,4.2176,4.2758,4.4087,4.4751,4.5169,4.5363,4.5397,4.5397,4.5397,4.5397,4.5397,4.5397,4.5397,4.5397,4.5397,4.5397,4.5083,4.4333,4.3793,4.35,4.35,4.4212,4.4609,4.4609,4.5134,4.5397,4.5397,4.5397,4.5397,4.5397,4.5397,4.5397,4.5397,4.5397,4.5397,4.5397,4.5397,4.5397,4.5397,4.5397,4.5397,4.5397,4.5397,4.5397,4.5397,0.0,0.0,0.0,0.0,0.0,2.6346,2.6249,2.6019,2.5934,0.0,0.0,0.0,0.0,0.0,0.0,0.0,0.0,0.0,0.0,2.8542,2.8497,2.8465,2.836,2.8286,2.8253,0.0,0.0,0.0,0.0,0.0,0.0,0.0,0.0,2.8196,2.8196,2.8463,2.9005,3.0539,3.1385,3.1768,3.2579,3.3374,3.4125,3.4446,3.5034,3.5739,3.5981,3.6015,3.588,3.538,3.4841,3.4265,3.3696,3.2943,3.2265,3.2265,3.2265,3.2524,3.3758,3.431,3.4805,3.5842,0.0,0.0,3.6928,3.778,3.8734,3.938,4.0001,4.0624,4.14,4.1797,4.228,4.3177,4.4234,4.5048,4.5363,4.5397,4.5397,4.5397,4.5397,4.5397,4.5397,4.5397,4.5397,4.5397,4.5397,4.4945,4.3897,4.3431,4.3051,4.2706,4.3448,4.3983,4.4311,4.4716,4.51,4.5397,4.5397,4.5397,4.5397,4.5397,4.5397,4.5397,4.5397,4.5397,4.5397,4.5397,4.5397,4.5397,4.5397,4.5397,4.5397,4.5397,4.5397,4.5397,0.0,0.0,2.7056,2.7135,2.7347,2.7313,2.667,2.6788,2.6998,0.0,0.0,0.0,0.0,0.0,0.0,0.0,0.0,0.0,0.0,2.8536,2.8465,2.8386,2.832,2.8253,2.8196,2.8196,0.0,0.0,0.0,0.0,0.0,0.0,0.0,0.0,2.8196,2.8249,2.8427,2.9882,3.096,3.1752,3.2571,3.3427,3.4285,3.4945,3.5748,3.6604,3.7172,3.7345,3.7152,3.6218,3.5196,3.4327,3.4246,3.3689,3.3041,3.3041,3.3041,0.0,3.4017,3.4707,0.0,3.6019,3.6112,0.0,3.6678,3.6973,3.7507,3.8881,3.9444,3.9917,4.0624,4.1383,4.19,4.1987,4.3142,4.4333,4.5169,4.5345,4.5397,4.5397,4.5397,4.5397,4.5397,4.5397,4.5397,4.5397,4.5311,4.4716,4.3396,4.3241,4.2827,4.2021,4.2775,4.3465,4.4035,4.4138,4.4557,4.529,4.529,4.5311,4.5397,4.5397,4.5397,4.5397,4.5397,4.5397,4.5397,4.5397,4.5397,4.5397,4.5397,4.5397,4.5397,4.5397,4.5397,4.5397,0.0,2.7079,2.7222,2.7386,2.7554,2.7673,2.7685,2.7811,2.7959,2.804,0.0,0.0,0.0,0.0,0.0,0.0,0.0,0.0,0.0,0.0,2.8386,2.832,2.8264,2.8209,2.8196,2.8196,2.8196,0.0,0.0,0.0,0.0,0.0,0.0,0.0,2.8196,2.8552,2.9212,3.0055,3.0886,3.1684,3.2547,3.3749,3.4999,3.5159,3.6096,3.7371,3.7338,3.7306,3.7222,3.6701,3.5923,3.5141,3.5013,3.4466,3.3862,3.3862,3.3862,3.4034,3.4776,3.5087,3.5349,3.6019,3.6193,0.0,3.6174,3.6736,3.7345,3.7647,3.8763,3.9761,3.9917,4.0572,4.1309,4.19,4.2245,4.2935,4.4315,4.5031,4.5397,4.5397,4.5397,4.5397,4.5397,4.5397,4.5397,4.5397,4.4854,4.4384,4.4104,4.3517,4.2827,4.2021,4.2775,4.2965,4.2452,4.3086,4.3793,4.4505,4.4505,4.482,4.5397,4.5397,4.5397,4.5397,4.5397,4.5397,4.5397,4.5397,4.5397,4.5397,4.5397,4.5397,4.5397,4.5397,4.5397,4.5397,0.0,2.7332,2.7507,2.7721,2.7886,2.8035,2.8136,2.8239,2.8327,0.0,0.0,0.0,0.0,0.0,0.0,0.0,0.0,0.0,0.0,2.8432,2.8367,2.8307,2.8243,2.8196,2.8196,2.8196,2.8196,2.8196,0.0,0.0,0.0,0.0,0.0,0.0,2.863,2.9023,2.9462,3.0538,3.1237,3.1671,3.2443,3.3713,3.5144,3.5144,3.6167,3.7567,3.7372,3.7163,3.6965,3.6773,3.6311,3.5839,3.577,3.5242,3.4655,3.4655,3.4655,3.4724,3.5104,3.5473,3.5825,3.6179,3.6219,0.0,0.0,3.6435,3.6857,3.7217,3.8286,3.9261,3.9629,4.0365,4.1021,4.1383,4.1762,4.2263,4.3039,4.413,4.4979,4.5363,4.5397,4.5397,4.5397,4.5397,4.5397,4.5397,4.5048,4.4682,4.4328,4.3949,4.3207,4.2038,4.2383,4.2413,4.2004,4.2413,4.2982,4.3759,4.4121,4.4488,4.4872,4.5238,4.5397,4.5397,4.5397,4.5397,4.5397,4.5397,4.5397,4.5397,4.5397,4.5397,4.5397,4.5397,4.5397,4.5397,2.7425,2.7637,2.7836,2.8003,2.8205,2.8347,2.8347,2.8393,2.8513,0.0,0.0,0.0,0.0,0.0,0.0,0.0,0.0,0.0,0.0,2.8894,2.8827,2.8727,2.854,2.8427,2.8427,2.8285,2.8196,2.8196,0.0,0.0,0.0,2.8196,2.8285,2.8463,2.9112,2.9551,2.9911,3.1074,3.1657,3.1828,3.2501,3.3711,3.5119,3.5261,3.6275,3.7567,3.7372,3.7044,3.6702,3.6702,3.6523,3.6301,3.6301,3.5887,3.5404,3.5404,3.5404,3.5404,3.5404,3.5852,3.6301,3.6301,3.6255,3.6219,0.0,0.0,0.0,3.6992,3.7781,3.8606,3.9353,4.0141,4.071,4.0865,4.14,4.1831,4.1987,4.3073,4.4195,4.5083,4.5186,4.5238,4.538,4.5397,4.5397,4.5397,4.5397,4.5134,4.454,4.4505,4.3884,4.2487,4.2314,4.2159,4.2004,4.1849,4.2176,4.2982,4.3569,4.4018,4.4328,4.4923,4.5272,4.5397,4.5397,4.5397,4.5397,4.5397,4.5397,4.5397,4.5397,4.5397,4.5397,4.5397,4.5397,4.5397,2.7694,2.7872,2.8085,2.8161,2.834,2.8491,2.8491,2.8536,2.884,0.0,0.0,0.0,3.0647,3.0738,3.0738,3.0738,3.0738,3.067,3.0542,3.0521,3.0431,3.0258,2.9619,2.9255,2.9255,2.8552,2.8196,2.8196,0.0,0.0,0.0,2.8196,2.8588,2.928,2.9369,3.0128,3.1359,3.1468,3.1848,3.2462,3.3134,3.4085,3.5172,3.5892,3.6755,3.7567,3.7372,3.7044,3.6702,3.6702,3.6523,3.6301,3.6301,3.6232,3.618,3.618,3.618,3.618,3.618,3.6232,3.6301,3.6301,3.629,3.629,3.629,0.0,3.6314,3.6411,0.0,3.7847,3.8588,0.0,0.0,4.0791,4.0981,4.1245,4.19,4.2142,4.2797,4.4246,4.4419,4.4678,4.5328,4.5397,4.5397,4.5397,4.5397,4.5363,4.529,4.529,4.4893,4.4069,4.3396,4.2723,4.2004,4.1348,4.14,4.2142,4.2211,4.297,4.4311,4.4384,4.4785,4.5397,4.5397,4.5397,4.5397,4.5397,4.5397,4.5397,4.5397,4.5397,4.5397,4.5397,4.5397,4.5397,2.8014,2.8132,2.8304,2.836,2.8478,2.8562,2.8562,2.8973,2.9597,3.0394,3.0509,3.0618,3.0955,3.0991,3.0991,3.0991,3.0991,3.0941,3.0815,3.0808,0.0,3.0511,3.02,3.004,3.004,2.9291,2.8898,2.8898,2.8427,0.0,0.0,0.0,2.8596,2.9301,2.9763,3.0561,3.1574,3.1928,3.2506,3.3256,3.3961,3.4835,3.5714,3.606,3.6708,3.7419,3.7325,3.7066,3.6738,3.6705,3.6564,3.6402,3.6322,3.6611,3.6898,3.6439,3.6628,3.6898,3.6422,3.6301,3.6301,3.6301,3.6301,3.6301,3.6301,3.6301,3.6301,3.6301,0.0,0.0,0.0,0.0,0.0,0.0,4.0912,4.1015,4.1314,4.1348,4.193,4.3483,4.3655,4.3949,4.4682,4.4751,4.4941,4.5363,4.5397,4.5397,4.5397,4.5397,4.5048,4.4328,4.4,4.3258,4.2004,4.1693,4.1469,4.1378,4.1797,4.2573,4.3672,4.4104,4.4699,4.5397,4.5397,4.5397,4.5397,4.5397,4.5397,4.5397,4.5397,4.5397,4.5397,4.5397,4.5397,4.5397,2.8286,0.0,2.8445,2.8479,2.8562,2.8672,2.8896,2.9615,3.0418,3.1227,3.1517,3.1734,3.1969,3.2187,3.2325,3.2325,3.2285,3.2213,3.211,3.1864,3.1664,3.1492,3.1056,3.0825,3.0825,3.0093,2.9594,2.9398,2.882,2.8427,0.0,0.0,2.8884,2.9562,3.0376,3.1121,3.1822,3.2532,3.3142,3.3741,3.4737,3.5648,3.6458,3.6494,3.6858,3.7334,3.7306,3.7114,3.6874,3.6969,3.6898,3.6828,3.6902,3.7329,3.7691,3.7105,3.7346,3.7674,3.7077,3.6922,3.687,3.6691,3.6639,3.6559,3.6353,3.6301,3.6353,3.6577,3.7519,0.0,0.0,0.0,0.0,0.0,0.0,4.0912,4.0912,4.0912,4.1395,4.2706,4.3069,4.3414,4.3949,4.419,4.4522,4.5048,4.5276,4.5397,4.5397,4.5397,4.5152,4.4626,4.4402,4.3672,4.2332,4.2107,4.1624,4.0912,4.1435,4.2107,4.2896,4.3655,4.4402,4.5117,4.5311,4.5397,4.5397,4.5397,4.5397,4.5397,4.5397,4.5397,4.5397,4.5397,4.5397,4.5397,2.8491,2.8486,2.851,2.8492,2.8562,2.8853,2.9633,3.043,3.1245,3.206,3.2832,3.3628,3.44,3.5178,3.5641,3.5641,3.5533,3.5427,3.5356,3.4556,3.4063,3.399,3.2491,3.1661,3.1661,3.0878,3.0111,2.9398,2.9362,2.8969,0.0,0.0,0.0,3.0394,3.1201,3.1895,3.2516,3.3309,3.36,3.3644,3.5308,3.6524,3.7367,3.7504,3.7495,3.7392,3.7325,3.7172,3.7073,3.7582,3.7679,3.7694,3.8328,3.8537,3.8554,3.8537,3.8537,3.8554,3.8537,3.8537,3.8347,3.764,3.745,3.726,3.6473,3.6301,3.6525,3.7295,3.7502,3.7967,0.0,0.0,0.0,0.0,0.0,0.0,0.0,4.0912,4.1188,4.1952,4.2723,4.3207,4.3224,4.388,4.4311,4.4328,4.501,4.5397,4.5397,4.5397,4.538,4.5363,4.4665,4.3931,4.3172,4.2396,4.1624,4.0912,4.0929,4.1314,4.2073,4.2879,4.3638,4.438,4.5083,4.5397,4.5397,4.5397,4.5397,4.5397,4.5397,4.5397,4.5397,4.5397,4.5397,4.5397,2.8426,2.8504,2.8568,2.8568,2.9028,2.9832,3.1172,3.1625,3.227,3.3603,3.4019,3.4508,3.5305,3.5649,3.5804,3.5804,3.567,3.5563,3.5499,3.5183,3.4931,3.482,3.3839,3.3294,3.3294,3.1974,3.1171,3.0921,3.0386,2.9986,2.9736,0.0,0.0,0.0,3.1406,3.2133,3.3178,3.3547,3.4261,3.5256,3.6454,3.717,3.7531,3.7577,3.7512,3.7392,3.7325,3.7546,3.7865,3.7915,3.8231,3.8603,3.8703,3.908,3.9352,3.8766,3.8951,3.9215,3.8726,3.8606,3.8537,3.8295,3.8226,3.8157,3.787,3.7829,3.7898,3.8174,3.8623,3.9123,0.0,0.0,0.0,0.0,0.0,0.0,0.0,4.0912,4.0998,4.1245,4.1516,4.1878,4.2349,4.2625,4.3194,4.4225,4.454,4.4889,4.5363,4.5397,4.5397,4.5397,4.5169,4.444,4.3207,4.293,4.2154,4.0912,4.0912,4.1291,4.2021,4.2827,4.3603,4.4333,4.5083,4.5397,4.5397,4.5397,4.5397,4.5397,4.5397,4.5397,4.5397,4.5397,4.5397,4.5397,2.881,2.8945,2.9022,2.9022,2.9941,3.0991,3.2042,3.2687,3.3429,3.4454,3.5095,3.5657,3.6164,3.649,3.6636,3.6586,3.6478,3.6386,3.6284,3.5948,3.5728,3.5632,3.4892,3.4499,3.4499,3.3223,3.2402,3.2125,3.1314,3.0771,3.0504,0.0,0.0,0.0,3.184,3.2573,3.3627,3.4006,3.488,3.6116,3.7026,3.7485,3.7621,3.7925,3.7807,3.7493,3.7671,3.7982,3.8377,3.8705,3.9118,3.954,3.9622,3.9967,4.0222,3.9652,3.9796,4.002,3.9554,3.9416,3.9347,3.9071,3.8985,3.8933,3.8657,3.8606,3.8675,3.8933,3.937,3.9796,0.0,0.0,0.0,0.0,0.0,0.0,0.0,4.0912,4.0912,4.0912,4.0912,4.1101,4.1555,4.1849,4.2401,4.3414,4.4,4.4505,4.4992,4.5272,4.5397,4.5397,4.5397,4.4686,4.3207,4.3189,4.243,4.0912,4.0912,4.1141,4.1642,4.2706,4.3465,4.3966,4.4962,4.5397,4.5397,4.5397,4.5397,4.5397,4.5397,4.5569,4.5793,4.55,4.5397,4.5397,2.9611,2.9858,2.9929,2.9965,3.1245,3.227,3.2306,3.3647,3.4671,3.4707,3.6045,3.7013,3.7049,3.7738,3.8149,3.8009,3.7933,3.7837,3.7703,3.6916,3.6461,3.6461,3.5685,3.5266,3.5266,3.4535,3.3758,3.2953,3.2196,3.1403,3.0646,0.0,0.0,0.0,3.2496,3.3219,3.3897,3.4703,3.5482,3.6244,3.7063,3.7503,3.7729,3.8504,3.8344,3.7799,3.8356,3.8551,3.8714,3.9929,4.0346,4.0482,4.104,4.1175,4.1105,4.1105,4.1006,4.0906,4.0923,4.0912,4.0722,3.9951,3.975,3.9589,3.8882,3.8709,3.8916,3.9612,3.975,3.9991,0.0,0.0,0.0,0.0,0.0,0.0,0.0,4.0912,4.0912,4.0912,4.0912,4.0912,4.0912,4.1521,4.1952,4.2004,4.3384,4.4259,4.4311,4.4996,4.5397,4.5397,4.5397,4.4686,4.3207,4.3189,4.243,4.0912,4.0912,4.0912,4.0963,4.2499,4.3189,4.3276,4.4755,4.5397,4.5397,4.5397,4.5397,4.5397,4.5432,4.5962,4.6548,4.5742,4.5466,4.5449,3.0549,3.1135,3.177,3.2361,3.2814,3.3284,3.3893,3.4834,3.5703,3.6298,3.6741,3.723,3.7828,3.8074,3.8149,3.8009,3.7933,3.7837,3.7703,3.7444,3.7282,3.7282,3.6524,3.6096,3.6096,3.532,3.4553,3.3794,3.3598,3.3062,3.2285,0.0,0.0,0.0,3.3288,3.3959,3.4597,3.5455,3.6298,3.7099,3.7312,3.7831,3.8513,3.8727,3.9012,3.9324,3.943,3.9842,4.037,4.0587,4.0993,4.1418,4.1479,4.1426,4.1301,4.1203,4.1157,4.1111,4.1053,4.1047,4.0971,4.0665,4.0589,4.0538,4.0348,4.0308,4.0348,4.0538,4.0589,4.0658,4.086,0.0,0.0,0.0,0.0,0.0,0.0,4.0912,4.0912,4.0912,4.0912,4.0912,4.0912,4.1067,4.14,4.1952,4.293,4.3724,4.4276,4.4996,4.5397,4.5397,4.5397,4.4686,4.3207,4.3189,4.243,4.0912,4.0912,4.0912,4.0963,4.2499,4.3189,4.3276,4.4755,4.5397,4.5397,4.5397,4.5397,4.5466,4.6065,4.6755,4.7324,4.6565,4.6289,4.6203,3.1386,3.2423,3.3502,3.4309,3.4733,3.5005,3.5106,3.5812,3.6498,3.6941,3.7303,3.782,3.8635,3.8665,3.8722,3.8941,3.8906,3.8805,3.8678,3.8622,3.8451,3.813,3.7684,3.7273,3.6925,3.6131,3.5516,3.5114,3.4436,3.3865,3.3427,0.0,0.0,0.0,3.3581,3.4286,3.5013,3.6146,3.7123,3.7908,3.7908,3.8472,0.0,3.9672,4.0047,4.0475,4.0782,4.0946,4.1034,4.124,4.1573,4.1862,4.1725,4.1593,4.1471,4.1329,4.1243,4.1186,4.1152,4.114,4.1129,4.1059,4.103,4.103,4.103,4.1,4.1,4.1,4.0935,4.0912,4.0912,0.0,0.0,0.0,0.0,0.0,0.0,4.0912,4.0912,4.0912,4.0912,4.0912,4.0912,4.0912,4.1067,4.1486,4.224,4.3017,4.3776,4.4522,4.5065,4.538,4.5397,4.4686,4.3207,4.3189,4.243,4.0912,4.0912,4.0912,4.0963,4.2499,4.3189,4.3276,4.4755,4.5397,4.5397,4.5397,4.5397,4.5518,4.6652,4.7531,4.81,4.7358,4.6876,4.6479,3.2481,3.3762,3.4982,3.5788,3.6616,3.6951,3.6355,3.6788,3.7194,3.7303,3.7919,3.8663,3.9442,3.9427,3.9581,4.0136,4.0132,4.0037,3.9904,3.9904,3.9619,3.8977,3.8941,3.8576,3.7764,3.7068,3.6613,3.6399,3.5061,3.4303,0.0,0.0,0.0,0.0,3.3766,3.4542,3.5448,3.6819,3.7856,3.8601,3.868,3.9263,4.0136,4.0842,4.1163,4.1341,4.2047,4.1808,4.125,4.1849,4.2037,4.1987,4.1884,4.1747,4.1626,4.1504,4.1386,4.1277,4.1255,4.1243,4.122,4.1192,4.1209,4.1209,4.1209,4.1152,4.1117,4.1117,4.1018,4.093,4.0935,4.0923,4.0912,0.0,0.0,4.0912,4.0912,4.0912,4.0912,4.0912,4.0912,0.0,4.0912,4.0912,4.0912,4.0912,4.1573,4.2309,4.3,4.3845,4.4591,4.5238,4.5345,4.4686,4.3207,4.3189,4.243,4.0912,4.0912,4.0912,4.0963,4.2499,4.3189,4.3276,4.4755,4.5397,4.5397,4.5397,4.5518,4.5828,4.7186,4.8151,4.872,4.7979,4.7238,4.6479,3.4893,3.5183,3.5674,3.6468,3.7382,3.8164,3.8681,3.8327,3.8218,3.8889,3.9106,3.9452,4.0149,4.0194,4.0174,4.0122,4.0112,4.0037,3.9904,3.9904,3.9851,3.9708,3.9708,3.9351,3.8611,3.8442,3.7737,3.6399,3.6131,3.5346,3.4107,0.0,0.0,3.3911,3.4584,3.5572,3.6794,3.7621,3.8176,3.8575,3.9175,4.0004,4.0913,4.1056,4.1502,4.2101,4.2244,4.2198,4.2088,4.221,4.2173,4.2079,4.2051,4.2002,4.1941,4.1891,4.1797,4.1681,4.1553,4.1442,4.134,4.1232,4.1209,4.1209,4.1209,4.1186,4.1175,4.1175,4.1152,4.1134,4.1082,4.0971,4.0912,4.0912,4.0912,4.0912,4.0912,4.0912,4.0912,4.0912,4.0912,4.0912,4.0912,4.0912,4.0912,4.0912,4.1573,4.2056,4.2194,4.3552,4.4363,4.4488,4.5083,4.4686,4.3207,4.3189,4.243,4.0912,4.0912,4.0912,4.0963,4.2499,4.3189,4.3276,4.4755,4.5397,4.5397,4.5397,4.6138,4.7324,4.7582,4.8151,4.872,4.7979,4.7238,4.6479,3.6039,3.6486,3.7051,3.7843,3.868,3.9364,3.9761,3.949,3.94,3.986,3.986,4.0095,4.0841,4.0893,4.0996,4.1312,4.128,4.1213,4.1145,4.1145,4.0967,4.0546,4.0511,4.0154,3.9387,3.8995,3.8424,3.7648,3.6809,3.6024,3.5275,3.4874,3.4678,3.4705,3.5341,3.6356,3.7636,3.8043,3.8778,3.9724,4.0164,4.089,4.1726,4.1726,4.1958,4.2297,4.2297,4.2297,4.2297,4.2297,4.2256,4.2176,4.2114,4.2079,4.2044,4.2016,4.1945,4.1902,4.1837,4.1754,4.1699,4.1626,4.1615,4.1604,4.152,4.1464,4.1386,4.1318,4.1243,4.1186,4.1163,4.1076,4.0994,4.0994,4.0947,4.0912,4.0912,4.0912,4.0912,4.0912,4.0912,4.0912,4.0912,4.0912,4.0912,4.0912,4.1228,4.159,4.1987,4.3103,4.3897,4.4294,4.5014,4.4686,4.3207,4.3189,4.243,4.0912,4.0912,4.1101,4.1504,4.2672,4.3414,4.3828,4.4928,4.5397,4.5397,4.5397,4.6324,4.7669,4.7272,4.7807,4.8654,4.7548,4.6893,4.6479,3.7021,3.781,3.8564,3.9211,3.9948,4.046,4.046,4.0585,4.0676,4.0626,4.0516,4.0756,4.1546,4.1594,4.1803,4.2391,4.2356,4.2297,4.2297,4.2297,4.2012,4.1377,4.1359,4.0985,4.0172,3.9583,3.9119,3.8798,3.7541,3.6738,3.6381,3.5748,3.5454,3.5464,3.6264,3.7211,3.8199,3.8644,3.961,4.0864,4.1133,4.1652,4.2297,4.2297,4.2297,4.2297,4.2297,4.2297,4.2297,4.2297,4.2297,4.2277,4.2184,4.2135,4.2132,4.2083,4.2041,4.2019,4.2019,4.2016,4.1994,4.1994,4.1994,4.1984,4.1862,4.1765,4.1666,4.1538,4.1397,4.1277,4.1243,4.1175,4.1111,4.1111,4.1024,4.0965,4.0965,4.0942,4.0935,4.0935,4.0923,4.0912,4.0912,4.0912,4.0912,4.0912,4.0912,4.1141,4.1745,4.2516,4.3293,4.4035,4.4785,4.4527,4.3207,4.3189,4.243,4.0912,4.1055,4.1447,4.2038,4.3,4.3741,4.4333,4.5083,4.5397,4.5397,4.5397,4.6221,4.741,4.6824,4.7307,4.8203,4.7031,4.6496,4.6255,3.8595,3.9303,3.9915,3.9986,4.0717,4.1287,4.1287,4.1856,4.2042,4.1395,4.1297,4.1572,4.2327,4.2396,4.2374,4.2318,4.2308,4.2297,4.2297,4.2297,4.2262,4.219,4.219,4.1815,4.1002,4.0913,4.0199,3.8798,3.8656,3.7826,3.6399,3.6328,3.6257,3.6265,3.7731,3.8401,3.8561,3.9969,4.0732,4.1029,4.1712,4.2123,4.2297,4.2297,4.2297,4.2297,4.2297,4.2297,4.2297,4.2297,4.2297,4.2297,4.2287,4.2277,4.2277,4.2267,4.2184,4.2082,4.2082,4.2044,4.1994,4.1994,4.1994,4.1994,4.1984,4.1973,4.1962,4.1952,4.1743,4.1526,4.1397,4.1283,4.1186,4.1186,4.1186,4.1175,4.1175,4.1117,4.107,4.107,4.0971,4.0912,4.0912,4.0912,4.0912,4.0912,4.0912,4.0917,4.0998,4.1711,4.2482,4.3276,4.4018,4.4018,4.3207,4.3189,4.243,4.0912,4.1573,4.1935,4.2056,4.3534,4.4225,4.4333,4.5083,4.5397,4.5397,4.5397,4.5897,4.6686,4.6617,4.6686,4.6789,4.6652,4.6134,4.55,3.9458,4.013,4.0695,4.0695,4.1388,4.1936,4.1936,4.2182,4.2262,4.198,4.1936,4.2041,4.2341,4.2377,4.2356,4.2308,4.2297,4.2297,4.2297,4.2297,4.2297,4.2297,4.2297,4.2155,4.1833,4.1341,4.0806,4.0182,3.9708,3.9137,3.8495,3.8495,3.8466,3.8426,3.9056,3.953,3.9937,4.0628,4.1212,4.1687,4.208,4.2256,4.2297,4.2297,4.2297,4.2297,4.2297,4.2297,4.2297,4.2297,4.2297,4.2297,4.2297,4.2297,4.2297,4.2297,4.2267,4.2225,4.2225,4.2194,4.2181,4.2181,4.2181,4.216,4.2086,4.2065,4.2044,4.2016,4.1912,4.1797,4.1659,4.152,4.1419,4.1329,4.1243,4.1209,4.1209,4.118,4.1163,4.1163,4.1088,4.1023,4.1023,4.0947,4.0912,4.0912,4.0912,4.0912,4.0912,4.159,4.2378,4.3172,4.3483,4.35,4.3189,4.2723,4.2159,4.1555,4.1849,4.247,4.3414,4.4018,4.454,4.4992,4.5259,4.5397,4.5397,4.5397,4.5862,4.6548,4.6065,4.6169,4.6531,4.6065,4.5673,4.5397,4.0163,4.0793,4.1327,4.1388,4.1872,4.2256,4.2297,4.2297,4.2297,4.2297,4.2297,4.2297,4.2297,4.2297,4.2297,4.2297,4.2297,4.2297,4.2297,4.2297,4.2297,4.2297,4.2297,4.2297,4.2297,4.1744,4.1341,4.1092,4.0529,4.0136,3.9904,3.9904,3.9865,3.9842,4.0083,4.0443,4.0915,4.1228,4.1668,4.2173,4.2267,4.2297,4.2297,4.2297,4.2297,4.2297,4.2297,4.2297,4.2297,4.2297,4.2297,4.2297,4.2297,4.2297,4.2297,4.2297,4.2297,4.2297,4.2297,4.2297,4.2297,4.2297,4.2297,4.2277,4.2176,4.2156,4.2132,4.2051,4.203,4.198,4.1873,4.1786,4.1688,4.16,4.1504,4.1419,4.1379,4.1334,4.13,4.1255,4.1186,4.1111,4.1093,4.1006,4.0935,4.0912,4.0912,4.0912,4.0912,4.1383,4.2038,4.2827,4.2844,4.2965,4.3189,4.2637,4.2349,4.2349,4.2573,4.3258,4.4311,4.4522,4.4906,4.5397,4.5397,4.5397,4.5397,4.5397,4.5725,4.6186,4.5621,4.5755,4.6186,4.5604,4.5397,4.5397,4.0756,4.1329,4.1849,4.2044,4.2103,4.2163,4.2277,4.2297,4.2297,4.2297,4.2297,4.2297,4.2297,4.2297,4.2297,4.2297,4.2297,4.2297,4.2297,4.2297,4.2297,4.2297,4.2297,4.2297,4.2297,4.2297,4.1905,4.1092,4.1092,4.0681,3.9904,3.9904,3.9904,3.993,4.0725,4.1092,4.1145,4.1958,4.2297,4.2297,4.2297,4.2297,4.2297,4.2297,4.2297,4.2297,4.2297,4.2297,4.2297,4.2297,4.2297,4.2297,4.2297,4.2297,4.2297,4.2297,4.2297,4.2297,4.2297,4.2297,4.2297,4.2297,4.2297,4.2297,4.2297,4.2297,4.2267,4.2124,4.2093,4.2079,4.1998,4.1994,4.1994,4.1994,4.1994,4.1934,4.1819,4.1681,4.1549,4.1414,4.1283,4.1169,4.1105,4.1093,4.1047,4.0912,4.0912,4.0912,4.0912,4.0912,4.1245,4.1987,4.2004,4.2413,4.3189,4.3189,4.3189,4.3189,4.3931,4.4276,4.4315,4.5048,4.538,4.5397,4.5397,4.5397,4.5397,4.5397,4.5414,4.5414,4.5397,4.5414,4.5414,4.5397,4.5397,4.5397,4.147,4.1653,4.1852,4.1991,4.1959,4.1931,4.2083,4.2023,4.2005,4.2163,4.2156,4.2205,4.2287,4.2297,4.2297,4.2297,4.2297,4.2297,4.2297,4.2297,4.2297,4.2297,4.2297,4.2297,4.2297,4.2297,4.2172,4.1923,4.1923,4.1798,4.1548,4.1548,4.1548,4.1538,4.1798,4.1923,4.194,4.219,4.2297,4.2297,4.2297,4.2297,4.2297,4.2297,4.2297,4.2297,4.2297,4.2297,4.2297,4.2297,4.2297,4.2297,4.2297,4.2297,4.2297,4.2297,4.2297,4.2297,4.2297,4.2297,4.2297,4.2297,4.2297,4.2297,4.2297,4.2297,4.2287,4.2246,4.2246,4.2205,4.2079,4.2058,4.2055,4.2016,4.1994,4.1994,4.1934,4.1902,4.1808,4.1681,4.1542,4.1386,4.118,4.1123,4.1047,4.0923,4.0912,4.0912,4.0912,4.0912,4.1498,4.2775,4.2292,4.2637,4.3931,4.3448,4.3448,4.3949,4.419,4.4557,4.5048,4.5276,4.5397,4.5397,4.5397,4.5397,4.5397,4.5397,4.5397,4.5397,4.5397,4.5397,4.5397,4.5397,4.5397,4.5397,4.151,4.1493,4.1538,4.1797,4.1743,4.1732,4.1955,4.1902,4.1877,4.2072,4.2093,4.2145,4.2287,4.2297,4.2297,4.2297,4.2297,4.2297,4.2297,4.2297,4.2297,4.2297,4.2297,4.2297,4.2297,4.2297,4.2297,4.2297,4.2256,4.2207,4.2207,4.2212,4.2191,4.2191,4.2191,4.2191,4.2191,4.2191,4.2191,4.2191,4.2215,4.2207,4.2236,4.2277,4.2297,4.2297,4.2297,4.2297,4.2297,4.2297,4.2297,4.2297,4.2297,4.2297,4.2297,4.2297,4.2297,4.2297,4.2297,4.2297,4.2297,4.2297,4.2297,4.2297,4.2297,4.2297,4.2297,4.2297,4.2297,4.2277,4.2176,4.2184,4.2163,4.2125,4.2115,4.2104,4.2034,4.2051,4.198,4.1812,4.1725,4.1542,4.1232,4.1157,4.1059,4.0923,4.0912,4.0912,4.0912,4.0912,4.1481,4.2706,4.2263,4.2746,4.4276,4.3845,4.397,4.4699,4.4699,4.4945,4.5397,4.5397,4.5397,4.5397,4.5397,4.5397,4.5397,4.5397,4.5397,4.5397,4.5397,4.5397,4.5397,4.5397,4.5397,4.5432,4.1035,4.1011,4.1047,4.1526,4.1482,4.1515,4.1891,4.183,4.1823,4.2019,4.2051,4.2103,4.2246,4.2267,4.2277,4.2287,4.2297,4.2297,4.2297,4.2297,4.2297,4.2297,4.2297,4.2297,4.2297,4.2297,4.2297,4.2287,4.2163,4.2082,4.2082,4.203,4.1994,4.1994,4.1994,4.2041,4.2076,4.2076,4.2111,4.2175,4.2218,4.2242,4.2281,4.2396,4.2448,4.2448,4.2458,4.2458,4.2458,4.2458,4.2422,4.2387,4.2387,4.2333,4.2297,4.2297,4.2297,4.2297,4.2297,4.2297,4.2297,4.2297,4.2297,4.2297,4.2297,4.2297,4.2297,4.2297,4.2297,4.2297,4.2297,4.2297,4.2297,4.2297,4.2297,4.2256,4.2124,4.2114,4.2048,4.1834,4.1801,4.1642,4.1243,4.1209,4.1117,4.0923,4.0912,4.0929,4.0981,4.0981,4.1314,4.2056,4.2125,4.2866,4.4363,4.438,4.4716,4.5397,4.5397,4.5397,4.5397,4.5397,4.5397,4.5397,4.5397,4.5397,4.5397,4.5397,4.5397,4.5397,4.5397,4.5397,4.5397,4.5397,4.5432,4.5587,4.1011,4.107,4.1157,4.1538,4.1408,4.1318,4.1504,4.1387,4.133,4.1549,4.1582,4.167,4.1888,4.192,4.1984,4.2124,4.2246,4.2297,4.2297,4.2297,4.2297,4.2297,4.2297,4.2297,4.2297,4.2297,4.2256,4.2163,4.2065,4.2019,4.2019,4.2016,4.1994,4.1994,4.1994,4.2306,4.2837,4.2837,4.318,4.3764,4.3769,4.3791,4.3791,4.3923,4.3978,4.3978,4.4028,4.4061,4.4061,4.4061,4.3686,4.3222,4.3222,4.2787,4.2297,4.2297,4.2297,4.2297,4.2297,4.2297,4.2297,4.2297,4.2297,4.2297,4.2297,4.2297,4.2297,4.2297,4.2297,4.2297,4.2297,4.2297,4.2297,4.2297,4.2297,4.2287,4.2256,4.2256,4.2173,4.1977,4.1945,4.1754,4.1255,4.1209,4.1117,4.0923,4.0912,4.1153,4.1711,4.1745,4.2102,4.2896,4.3465,4.4212,4.5134,4.5134,4.5238,4.5397,4.5397,4.5397,4.5397,4.5397,4.5397,4.5397,4.5397,4.5397,4.5397,4.5397,4.5397,4.5397,4.5397,4.5397,4.5397,4.5397,4.579,4.6341,4.0846,4.0976,4.1111,4.1448,4.1312,4.1209,4.138,4.1227,4.1175,4.1369,4.1403,4.1504,4.1769,4.1791,4.1888,4.2082,4.2173,4.2218,4.2297,4.2297,4.2297,4.2297,4.2297,4.2427,4.2739,4.2757,4.2864,4.3108,4.3017,4.2917,4.2862,4.2817,4.2743,4.2686,4.2686,4.2915,4.3277,4.3277,4.3564,4.4038,4.4101,4.4147,4.4216,4.4369,4.4414,4.4425,4.4529,4.4555,4.4555,4.4592,4.4328,4.4007,4.4007,4.3704,4.3286,4.2947,4.2601,4.2297,4.2297,4.2297,4.2297,4.2297,4.2297,4.2297,4.2297,4.2297,4.2297,4.2297,4.2297,4.2297,4.2297,4.2297,4.2297,4.2297,4.2297,4.2297,4.2297,4.2297,4.2233,4.2026,4.1994,4.1786,4.1255,4.1209,4.1117,4.0923,4.0912,4.121,4.1952,4.2361,4.2896,4.3672,4.4087,4.4647,4.5397,4.5397,4.5397,4.5397,4.5397,4.5397,4.5397,4.5397,4.5397,4.5397,4.5397,4.5397,4.5397,4.5397,4.5397,4.5397,4.5397,4.5621,4.5945,4.5945,4.6445,4.7151,4.0636,4.0793,4.0965,4.129,4.1192,4.1128,4.1267,4.1146,4.1088,4.1226,4.1377,4.1555,4.178,4.1918,4.2082,4.2321,4.2363,4.2395,4.2483,4.2601,4.2644,4.2634,4.2623,4.2881,4.3446,4.3431,4.3696,4.4238,4.4113,4.3968,4.3828,4.3727,4.3602,4.3494,4.3494,4.3564,4.3685,4.3685,4.3798,4.4029,4.4142,4.4278,4.4407,4.4546,4.4603,4.4638,4.4762,4.4836,4.4869,4.4905,4.4859,4.4792,4.4792,4.4703,4.4489,4.3847,4.3179,4.2601,4.2351,4.2297,4.2297,4.2297,4.2297,4.2297,4.2297,4.2297,4.2297,4.2297,4.2297,4.2297,4.2297,4.2297,4.2297,4.2297,4.2297,4.2297,4.2297,4.2287,4.2194,4.2026,4.1984,4.1765,4.1255,4.1209,4.1117,4.0923,4.0912,4.1274,4.2142,4.2827,4.3586,4.4436,4.4471,4.4768,4.5397,4.5397,4.5397,4.5397,4.5397,4.5397,4.5397,4.5397,4.5397,4.5397,4.5397,4.5397,4.5397,4.5397,4.5466,4.5569,4.5569,4.6083,4.6772,4.6772,4.7238,4.7962,4.06,4.0709,4.0817,4.1105,4.1018,4.09,4.0829,4.0781,4.0733,4.0638,4.129,4.1746,4.1795,4.245,4.3055,4.343,4.3559,4.3528,4.3326,4.39,4.4214,4.4151,4.4169,4.415,4.4141,4.4039,4.3967,4.3962,4.3839,4.3692,4.3572,4.353,4.3506,4.3494,4.3494,4.3877,4.4503,4.4503,4.4898,4.5485,4.5498,4.5586,4.5723,4.5847,4.5986,4.6094,4.6224,4.6359,4.6434,4.6463,4.608,4.5624,4.5624,4.5149,4.4578,4.446,4.4346,4.3954,4.2654,4.2297,4.2297,4.2297,4.2297,4.2297,4.2297,4.2297,4.2297,4.2297,4.2297,4.2297,4.2297,4.2297,4.2297,4.2297,4.2297,4.2297,4.2297,4.2205,4.21,4.2016,4.1902,4.167,4.1243,4.1209,4.1117,4.0923,4.0912,4.1516,4.2948,4.3138,4.3815,4.5186,4.5238,4.5276,4.5397,4.5397,4.5397,4.5397,4.5397,4.5397,4.5397,4.5397,4.5397,4.5397,4.5397,4.5397,4.5397,4.5397,4.5807,4.641,4.641,4.6876,4.7531,4.7531,4.7996,4.8637,4.0522,4.066,4.0757,4.0959,4.0876,4.0906,4.1241,4.1224,4.1316,4.1642,4.2039,4.2312,4.2375,4.281,4.3254,4.3661,4.423,4.4536,4.4518,4.4469,4.4412,4.4391,4.4391,4.4478,4.4671,4.4981,4.5059,4.4925,4.4858,4.4759,4.4634,4.4634,4.4584,4.452,4.452,4.4728,4.5074,4.5074,4.5321,4.568,4.568,4.577,4.5897,4.5955,4.6067,4.6204,4.635,4.6483,4.6602,4.6743,4.6593,4.6347,4.6433,4.6195,4.582,4.5363,4.4935,4.4364,4.3251,4.2947,4.284,4.2404,4.2297,4.2297,4.2297,4.2297,4.2297,4.2297,4.2297,4.2297,4.2297,4.2297,4.2297,4.2297,4.2297,4.2297,4.2297,4.2176,4.2079,4.2016,4.1808,4.1553,4.1232,4.1169,4.107,4.0923,4.1274,4.1999,4.3138,4.3586,4.4298,4.5363,4.5397,4.5397,4.5397,4.5397,4.5397,4.5414,4.5841,4.6048,4.6065,4.6462,4.6638,4.6638,4.6638,4.6638,4.6638,4.6638,4.6858,4.7186,4.7186,4.7634,4.8289,4.8289,4.8789,4.9444,4.0337,4.0436,4.0603,4.0871,4.0832,4.1027,4.1762,4.1805,4.1976,4.2534,4.2782,4.294,4.3009,4.3306,4.3639,4.4031,4.4743,4.5271,4.5476,4.4959,4.4688,4.478,4.474,4.4847,4.5182,4.5683,4.5884,4.5744,4.5744,4.568,4.5537,4.5537,4.5502,4.5397,4.5397,4.5397,4.5397,4.5397,4.5463,4.5537,4.5537,4.5628,4.5744,4.5744,4.5846,4.601,4.6117,4.6259,4.6447,4.6672,4.6766,4.683,4.6957,4.7009,4.6884,4.6266,4.5641,4.4953,4.4007,4.3757,4.3615,4.2983,4.2708,4.2583,4.2583,4.244,4.2297,4.2297,4.2297,4.2297,4.2297,4.2297,4.2297,4.2297,4.2297,4.2297,4.2297,4.2173,4.2065,4.2005,4.1732,4.1453,4.1232,4.1146,4.1116,4.1153,4.1676,4.2418,4.3396,4.3983,4.463,4.538,4.5397,4.5397,4.5397,4.5397,4.5483,4.5703,4.6307,4.6686,4.6876,4.7445,4.7703,4.7703,4.7703,4.7703,4.7703,4.7703,4.7807,4.7962,4.7962,4.8427,4.9082,4.9082,4.9462,5.0011,3.9952,3.9952,4.0184,4.0862,4.098,4.1233,4.1971,4.2169,4.2269,4.2326,4.3026,4.3481,4.3376,4.414,4.4783,4.5062,4.5272,4.5485,4.5746,4.5719,4.586,4.6234,4.6009,4.5833,4.5734,4.579,4.5744,4.5602,4.5602,4.5554,4.541,4.541,4.541,4.5397,4.5397,4.5397,4.5397,4.5397,4.541,4.541,4.541,4.5502,4.5602,4.5602,4.5787,4.5998,4.601,4.6179,4.6417,4.6566,4.6696,4.683,4.6957,4.7009,4.6991,4.6938,4.6866,4.648,4.4935,4.4524,4.4496,4.4453,4.3918,4.3418,4.3418,4.284,4.2297,4.2297,4.2297,4.2297,4.2297,4.2297,4.2297,4.2297,4.2297,4.2297,4.2297,4.2128,4.2005,4.1994,4.1655,4.1352,4.122,4.1146,4.1341,4.1878,4.1969,4.2642,4.4138,4.4276,4.463,4.538,4.5397,4.5397,4.5397,4.5397,4.5759,4.6514,4.6565,4.6962,4.7617,4.7686,4.7703,4.7703,4.7703,4.7703,4.7703,4.7703,4.81,4.8706,4.8706,4.9203,4.991,4.991,4.9959,5.0011,4.0074,4.0161,4.0408,4.1226,4.1373,4.1665,4.254,4.2699,4.2908,4.3362,4.3707,4.3889,4.3849,4.4311,4.4686,4.4876,4.5136,4.5349,4.5533,4.5624,4.5778,4.6023,4.5935,4.5808,4.5667,4.5684,4.5619,4.5476,4.5476,4.545,4.5397,4.5397,4.5397,4.5397,4.5397,4.5397,4.5397,4.5397,4.5397,4.5397,4.5397,4.5423,4.5476,4.5476,4.5645,4.5871,4.5871,4.6048,4.6319,4.653,4.6637,4.6708,4.6922,4.7009,4.7009,4.7009,4.7009,4.6866,4.6248,4.5731,4.522,4.4721,4.44,4.4185,4.4185,4.3579,4.3036,4.3036,4.2654,4.2297,4.2297,4.2297,4.2297,4.2297,4.2297,4.2277,4.2176,4.2065,4.1973,4.1902,4.1509,4.1446,4.1888,4.1769,4.1966,4.2689,4.3172,4.3677,4.4276,4.4734,4.5117,4.538,4.5397,4.5397,4.5397,4.588,4.6307,4.66,4.7531,4.8117,4.841,4.8893,4.9131,4.9131,4.9131,4.9131,4.9131,4.9131,4.9289,4.9531,4.9531,4.972,5.0011,5.0011,5.0011,5.0011,4.0122,4.0361,4.0769,4.1581,4.1728,4.2033,4.2982,4.3127,4.3339,4.3927,4.401,4.4039,4.4083,4.4267,4.4435,4.4555,4.478,4.5002,4.519,4.5376,4.5559,4.5718,4.5749,4.5667,4.5541,4.5541,4.5489,4.5397,4.5397,4.5397,4.5397,4.5397,4.5535,4.5776,4.5776,4.5897,4.6121,4.6121,4.6121,4.6121,4.6121,4.6121,4.6121,4.6121,4.629,4.6521,4.6521,4.6688,4.6953,4.717,4.712,4.7027,4.7227,4.7171,4.7009,4.7009,4.7009,4.7009,4.7009,4.6598,4.6034,4.5488,4.5149,4.4988,4.4988,4.44,4.3847,4.3847,4.3411,4.3019,4.3019,4.3019,4.3019,4.3019,4.3005,4.2952,4.2878,4.2746,4.2604,4.2476,4.2136,4.2125,4.2629,4.2488,4.2694,4.3483,4.4018,4.4397,4.4643,4.5134,4.5397,4.5397,4.5397,4.5518,4.5759,4.6324,4.6824,4.7307,4.8324,4.893,4.9203,4.9737,5.0011,5.0011,5.0011,5.0011,5.0011,5.0011,5.0011,5.0011,5.0011,5.0011,5.0011,5.0011,5.0011,5.0011,3.9947,4.051,4.1216,4.1886,4.2,4.2322,4.3257,4.3387,4.3492,4.3758,4.3802,4.386,4.4068,4.4083,4.4155,4.4279,4.4279,4.4437,4.4776,4.5046,4.5327,4.5594,4.5607,4.5541,4.5397,4.5397,4.5397,4.5414,4.5414,4.5414,4.5414,4.5414,4.5841,4.66,4.66,4.7014,4.7703,4.7703,4.7703,4.7703,4.7703,4.7703,4.7703,4.7703,4.7878,4.81,4.81,4.8273,4.8521,4.8649,4.8307,4.7823,4.7974,4.7553,4.7027,4.7009,4.7009,4.7009,4.7009,4.7009,4.7009,4.7009,4.6391,4.582,4.582,4.5184,4.4614,4.4614,4.4614,4.4614,4.4614,4.4614,4.4614,4.4614,4.4551,4.4492,4.4492,4.4279,4.4055,4.3916,4.3656,4.3451,4.3316,4.3252,4.35,4.4259,4.4311,4.4643,4.5363,4.5397,4.5397,4.5397,4.5414,4.5807,4.66,4.66,4.7358,4.8792,4.8824,4.9238,5.0011,5.0011,5.0011,5.0011,5.0011,5.0011,5.0011,5.0011,5.0011,5.0011,5.0011,5.0011,5.0011,5.0011,5.0011,5.0011,4.0933,4.1262,4.1683,4.2489,4.2619,4.2762,4.3126,4.3189,4.3219,4.331,4.3309,4.3324,4.3386,4.3522,4.3626,4.3671,4.3758,4.3991,4.4423,4.4745,4.5272,4.6054,4.5686,4.5437,4.5397,4.5397,4.5673,4.6238,4.6238,4.6514,4.7014,4.7014,4.7151,4.7376,4.7376,4.7496,4.7703,4.7703,4.7703,4.7703,4.7703,4.7703,4.7703,4.7703,4.781,4.797,4.806,4.822,4.8404,4.8624,4.8642,4.8609,4.8846,4.877,4.8502,4.7991,4.7841,4.7723,4.7152,4.7009,4.7009,4.7009,4.683,4.6652,4.6652,4.6016,4.5434,4.5434,4.4988,4.4614,4.4614,4.4614,4.4581,4.454,4.4514,4.4436,4.4256,4.4067,4.391,4.3775,4.3523,4.3578,4.4095,4.4046,4.4281,4.5014,4.5065,4.5169,4.538,4.5397,4.5397,4.5397,4.5945,4.66,4.7358,4.7376,4.7858,4.8824,4.9375,4.9769,5.0011,5.0011,5.0011,5.0011,5.0011,5.0011,5.0011,5.0011,5.0011,5.0011,5.0011,5.0011,5.0011,5.0011,5.0324,5.0772,4.1449,4.1807,4.2163,4.2694,4.2791,4.2806,4.2882,4.2898,4.2929,4.3006,4.3022,4.3036,4.3081,4.3204,4.3281,4.3281,4.3832,4.4323,4.4716,4.5374,4.6071,4.6821,4.6507,4.6324,4.6324,4.6324,4.6548,4.7031,4.7031,4.7255,4.7703,4.7703,4.7858,4.8151,4.8151,4.8307,4.86,4.86,4.86,4.86,4.86,4.86,4.86,4.86,4.8698,4.882,4.8899,4.9046,4.9231,4.9407,4.9379,4.9278,4.9237,4.9221,4.9126,4.8752,4.8651,4.8472,4.7687,4.7473,4.7402,4.708,4.7009,4.7009,4.7009,4.6616,4.6266,4.6266,4.5891,4.553,4.5486,4.5475,4.5441,4.5352,4.5296,4.5186,4.5035,4.4846,4.4678,4.4539,4.4342,4.4382,4.4815,4.4772,4.4923,4.5363,4.5397,4.5397,4.5397,4.569,4.5862,4.5862,4.6634,4.7393,4.8134,4.8151,4.8531,4.9289,4.9769,5.0011,5.0011,5.0011,5.0011,5.0011,5.0011,5.0011,5.0011,5.0011,5.0011,5.0011,5.0011,5.0011,5.0045,5.0324,5.072,5.1134,4.1693,4.218,4.2602,4.2602,4.2602,4.2602,4.2602,4.2602,4.2665,4.2853,4.2868,4.2914,4.3052,4.3116,4.3149,4.3149,4.4313,4.5167,4.5459,4.6551,4.735,4.7762,4.7793,4.7824,4.791,4.7772,4.7738,4.7807,4.7807,4.7841,4.791,4.791,4.8255,4.891,4.891,4.9306,5.0011,5.0011,5.0011,5.0011,5.0011,5.0011,5.0011,5.0011,5.008,5.0175,5.0203,5.0355,5.0557,5.0598,5.0351,4.991,4.9451,4.9295,4.9301,4.937,4.9388,4.924,4.8508,4.8306,4.8109,4.7312,4.7116,4.7098,4.7027,4.7009,4.7009,4.7009,4.7009,4.6957,4.683,4.6807,4.6743,4.6602,4.6483,4.641,4.6369,4.6142,4.5935,4.5808,4.5667,4.5541,4.541,4.5397,4.5397,4.5397,4.5397,4.5432,4.55,4.6203,4.6634,4.6686,4.741,4.8117,4.8792,4.8861,4.9272,5.0011,5.0011,5.0011,5.0011,5.0011,5.0011,5.0011,5.0011,5.0011,5.0011,5.0011,5.0011,5.0011,5.0011,5.0045,5.0168,5.0841,5.1186,5.141,4.2278,4.2489,4.2602,4.2602,4.2602,4.2602,4.2602,4.2602,4.2618,4.2665,4.2665,4.2681,4.2712,4.3215,4.3572,4.3572,4.4683,4.5595,4.6069,4.6697,4.7446,4.8363,4.8509,4.8858,4.9493,4.8324,4.7979,4.8565,4.8565,4.8875,4.9496,4.9496,4.9582,4.9737,4.9737,4.9841,5.0011,5.0011,5.0011,5.0011,5.0011,5.0011,5.0011,5.0011,5.0008,5.0051,5.016,5.0246,5.0341,5.0657,5.08,5.085,5.0825,5.0819,5.0738,5.0225,5.008,4.9932,4.9245,4.9055,4.8877,4.8133,4.7949,4.777,4.7134,4.7009,4.7009,4.7009,4.7009,4.6957,4.683,4.6807,4.6719,4.6483,4.6417,4.6374,4.627,4.601,4.5833,4.5795,4.5594,4.5423,4.5397,4.5397,4.5397,4.5397,4.5397,4.5673,4.6307,4.6496,4.6858,4.7445,4.8186,4.8651,4.8792,4.9427,4.9838,5.0011,5.0011,5.0011,5.0011,5.0011,5.0011,5.0011,5.0011,5.0011,5.0011,5.0011,5.0011,5.0011,5.0011,5.0341,5.0875,5.103,5.1858,5.3011,4.2522,4.2602,4.2602,4.2602,4.2602,4.2602,4.2602,4.2602,4.2732,4.3088,4.312,4.3266,4.3605,4.3978,4.4286,4.4463,4.5644,4.6591,4.7036,4.7838,4.8582,4.9243,4.9332,4.9565,4.9979,4.9203,4.8996,4.9375,4.9375,4.9582,5.0011,5.0011,5.0011,5.0011,5.0011,5.0011,5.0011,5.0011,5.0011,5.0011,5.0011,5.0011,5.0011,5.0011,5.0011,5.0011,5.0094,5.0149,5.0246,5.0523,5.0716,5.0878,5.1026,5.1123,5.1149,5.0862,5.0776,5.0612,4.9881,4.968,4.9502,4.8733,4.8567,4.8336,4.7247,4.7009,4.7009,4.7009,4.7009,4.6934,4.6731,4.6696,4.6613,4.6338,4.6301,4.6277,4.6209,4.5972,4.5795,4.5795,4.555,4.5397,4.5397,4.5397,4.5552,4.5945,4.5979,4.6307,4.7083,4.7462,4.7824,4.822,4.8979,4.9375,4.9375,4.9804,5.0011,5.0011,5.0011,5.0011,5.0011,5.0011,5.0011,5.0011,5.0011,5.0011,5.0011,5.0011,5.0011,5.0031,5.039,5.0755,5.1186,5.1927,5.2942,5.3977,4.2602,4.2602,4.2602,4.2602,4.2602,4.2635,4.2764,4.278,4.3039,4.3784,4.3897,4.4123,4.4772,4.5,4.531,4.5796,4.6946,4.7778,4.8158,4.9141,4.9784,4.9996,5.0011,5.0011,5.0011,5.0011,5.0011,5.0011,5.0011,5.0011,5.0011,5.0011,5.0011,5.0011,5.0011,5.0011,5.0011,5.0011,5.0011,5.0011,5.0011,5.0011,5.0011,5.0011,5.0011,5.0011,5.0011,5.0094,5.0217,5.0331,5.0436,5.0588,5.0698,5.0851,5.1034,5.1176,5.1228,5.1131,5.0489,5.0312,5.0117,4.9308,4.9208,4.8952,4.7653,4.7272,4.7205,4.7205,4.7098,4.6922,4.6672,4.6613,4.6518,4.627,4.6196,4.6159,4.6159,4.5935,4.5774,4.5774,4.5554,4.5449,4.5587,4.5604,4.5931,4.672,4.6789,4.7117,4.7858,4.8479,4.8858,4.9013,4.9651,5.0011,5.0011,5.0011,5.0011,5.0011,5.0011,5.0011,5.0011,5.0011,5.0011,5.0011,5.0011,5.0011,4.9996,5.0149,5.02,5.0269,5.0996,5.1358,5.1651,5.308,5.3977,5.4527,4.2602,4.2602,4.2602,4.2602,4.2602,4.2813,4.3444,4.3557,4.3832,4.4544,4.4642,4.4756,4.5033,4.5832,4.6813,4.7973,4.836,4.8738,4.9242,4.9536,4.9784,4.9996,5.0011,5.0011,5.0011,5.0011,5.0011,5.0011,5.0011,5.0011,5.0011,5.0011,5.0011,5.0011,5.0011,5.0011,5.0011,5.0011,5.0011,5.0011,5.0011,5.0011,5.0011,5.0011,5.0011,5.0011,5.0011,5.0094,5.0203,5.0217,5.0331,5.0425,5.0439,5.0547,5.0698,5.0834,5.099,5.1141,5.1148,5.1152,5.0944,5.0135,5.0036,4.9918,4.9023,4.8408,4.8038,4.8038,4.7473,4.6945,4.6807,4.6672,4.6554,4.6398,4.6184,4.6023,4.6023,4.5812,4.5632,4.5632,4.5502,4.5673,4.6376,4.6445,4.6755,4.7496,4.7548,4.7876,4.8603,4.8755,4.9117,4.9806,4.9942,5.0011,5.0011,5.0011,5.0011,5.0011,5.0011,5.0011,5.0011,5.0011,5.0011,5.0011,5.0011,5.0011,5.0048,5.0686,5.0944,5.1013,5.1755,5.2479,5.3201,5.4046,5.441,5.4527,4.2882,4.2821,4.2775,4.2775,4.3021,4.3362,4.3798,4.422,4.4773,4.5587,4.5685,4.5914,4.6487,4.7208,4.7957,4.8702,4.9,4.929,4.959,4.9769,4.9921,4.9996,5.0011,5.0011,5.0011,5.0011,5.0011,5.0011,5.0011,5.0011,5.0011,5.0011,5.0011,5.0011,5.0011,5.0011,5.0011,5.0011,5.0011,5.0011,5.0011,5.0011,5.0011,5.0011,5.0011,5.0011,5.0011,5.0037,5.0094,5.0094,5.0178,5.0288,5.0288,5.0422,5.0612,5.0667,5.0824,5.0998,5.1048,5.1074,5.1004,5.0638,5.0703,5.0756,5.033,4.9772,4.9281,4.8895,4.8473,4.814,4.7991,4.7858,4.7599,4.7053,4.7133,4.7146,4.6731,4.6782,4.6861,4.6781,4.6713,4.6824,4.7186,4.722,4.7514,4.8255,4.831,4.8651,4.9427,4.9479,4.9634,4.9993,5.0011,5.0011,5.0011,5.0011,5.0011,5.0011,5.0011,5.0011,5.0011,5.0011,5.0011,5.0028,5.0427,5.0599,5.0668,5.141,5.172,5.1789,5.2565,5.3356,5.4047,5.4391,5.4496,5.4543]}]]